<?xml version='1.0' encoding='UTF-8'?><gpx version="1.1" creator="JPX - https://github.com/jenetics/jpx" xmlns="http://www.topografix.com/GPX/1/1"><trk><trkseg><trkpt lat="45.062035976345875" lon="10.647512637637561"><ele>20.0</ele><time>2026-04-03T13:12:34.999Z</time></trkpt><trkpt lat="45.06199473214823" lon="10.647596194663072"><ele>20.0</ele><time>2026-04-03T13:12:36.999Z</time></trkpt><trkpt lat="45.06202057377229" lon="10.647706833574134"><ele>20.0</ele><time>2026-04-03T13:12:38.999Z</time></trkpt><trkpt lat="45.06204835636853" lon="10.647824693913659"><ele>20.0</ele><time>2026-04-03T13:12:42.999Z</time></trkpt><trkpt lat="45.06219096948062" lon="10.647790080664658"><ele>20.0</ele><time>2026-04-03T13:12:43.999Z</time></trkpt><trkpt lat="45.06227704774983" lon="10.647776683303915"><ele>20.0</ele><time>2026-04-03T13:12:44.999Z</time></trkpt><trkpt lat="45.062363869018874" lon="10.64776385374897"><ele>20.0</ele><time>2026-04-03T13:12:45.999Z</time></trkpt><trkpt lat="45.062440986361096" lon="10.64775678405715"><ele>20.0</ele><time>2026-04-03T13:12:46.999Z</time></trkpt><trkpt lat="45.062515304402986" lon="10.647750959550994"><ele>20.0</ele><time>2026-04-03T13:12:47.999Z</time></trkpt><trkpt lat="45.06257943624293" lon="10.647743198221697"><ele>20.0</ele><time>2026-04-03T13:12:48.999Z</time></trkpt><trkpt lat="45.06265165543892" lon="10.647724575110782"><ele>20.0</ele><time>2026-04-03T13:12:50.999Z</time></trkpt><trkpt lat="45.06269523777554" lon="10.647646226130274"><ele>20.0</ele><time>2026-04-03T13:13:03.999Z</time></trkpt><trkpt lat="45.06263550969111" lon="10.64742161618043"><ele>20.2</ele><time>2026-04-03T13:13:05.999Z</time></trkpt><trkpt lat="45.06259176691518" lon="10.647332947654382"><ele>20.4</ele><time>2026-04-03T13:13:06.999Z</time></trkpt><trkpt lat="45.062550154289546" lon="10.647232867214141"><ele>20.6</ele><time>2026-04-03T13:13:07.999Z</time></trkpt><trkpt lat="45.06250423036744" lon="10.647113899487294"><ele>20.8</ele><time>2026-04-03T13:13:09Z</time></trkpt><trkpt lat="45.0624582626381" lon="10.646990394881172"><ele>21.0</ele><time>2026-04-03T13:13:10Z</time></trkpt><trkpt lat="45.06241512346903" lon="10.646863774625535"><ele>21.0</ele><time>2026-04-03T13:13:11Z</time></trkpt><trkpt lat="45.06237187893047" lon="10.646726258646844"><ele>21.0</ele><time>2026-04-03T13:13:12Z</time></trkpt><trkpt lat="45.06232934076625" lon="10.646580246605842"><ele>21.0</ele><time>2026-04-03T13:13:13Z</time></trkpt><trkpt lat="45.06228966067199" lon="10.646428232090681"><ele>21.0</ele><time>2026-04-03T13:13:14Z</time></trkpt><trkpt lat="45.06225012557119" lon="10.646268930370804"><ele>21.25</ele><time>2026-04-03T13:13:15Z</time></trkpt><trkpt lat="45.06221607227167" lon="10.646104460515982"><ele>21.5</ele><time>2026-04-03T13:13:16Z</time></trkpt><trkpt lat="45.06218424843214" lon="10.645945110679571"><ele>21.75</ele><time>2026-04-03T13:13:17Z</time></trkpt><trkpt lat="45.06215762885219" lon="10.645774504937696"><ele>22.0</ele><time>2026-04-03T13:13:18Z</time></trkpt><trkpt lat="45.06212870382129" lon="10.645597021968015"><ele>22.0</ele><time>2026-04-03T13:13:19Z</time></trkpt><trkpt lat="45.06209987681321" lon="10.64541598329063"><ele>22.0</ele><time>2026-04-03T13:13:20Z</time></trkpt><trkpt lat="45.06206809173227" lon="10.645236997601558"><ele>22.0</ele><time>2026-04-03T13:13:21Z</time></trkpt><trkpt lat="45.0620355294186" lon="10.64507214882939"><ele>22.0</ele><time>2026-04-03T13:13:22Z</time></trkpt><trkpt lat="45.06200162164805" lon="10.644903609610095"><ele>22.0</ele><time>2026-04-03T13:13:23Z</time></trkpt><trkpt lat="45.061967716111425" lon="10.64472312707158"><ele>22.0</ele><time>2026-04-03T13:13:24Z</time></trkpt><trkpt lat="45.06193782413565" lon="10.644535531150954"><ele>22.0</ele><time>2026-04-03T13:13:25Z</time></trkpt><trkpt lat="45.06191269988303" lon="10.644344178995542"><ele>22.0</ele><time>2026-04-03T13:13:26Z</time></trkpt><trkpt lat="45.0618991525328" lon="10.644153588287622"><ele>21.75</ele><time>2026-04-03T13:13:27Z</time></trkpt><trkpt lat="45.06188731199107" lon="10.643962804864177"><ele>21.5</ele><time>2026-04-03T13:13:28Z</time></trkpt><trkpt lat="45.061874181901814" lon="10.6437745140823"><ele>21.25</ele><time>2026-04-03T13:13:29Z</time></trkpt><trkpt lat="45.0618591373299" lon="10.643586258807835"><ele>21.0</ele><time>2026-04-03T13:13:30Z</time></trkpt><trkpt lat="45.06184325657869" lon="10.643393847786154"><ele>21.0</ele><time>2026-04-03T13:13:31Z</time></trkpt><trkpt lat="45.06182783364345" lon="10.643205207353754"><ele>21.0</ele><time>2026-04-03T13:13:32Z</time></trkpt><trkpt lat="45.061814749711374" lon="10.643017683601672"><ele>21.0</ele><time>2026-04-03T13:13:33Z</time></trkpt><trkpt lat="45.06180436405825" lon="10.642826778073077"><ele>21.0</ele><time>2026-04-03T13:13:34Z</time></trkpt><trkpt lat="45.061795557098165" lon="10.642629440043233"><ele>21.0</ele><time>2026-04-03T13:13:35Z</time></trkpt><trkpt lat="45.0617933805775" lon="10.64242721254358"><ele>21.0</ele><time>2026-04-03T13:13:36Z</time></trkpt><trkpt lat="45.06179436462288" lon="10.642218330917474"><ele>21.0</ele><time>2026-04-03T13:13:37Z</time></trkpt><trkpt lat="45.061800907898686" lon="10.642007013208564"><ele>21.0</ele><time>2026-04-03T13:13:38Z</time></trkpt><trkpt lat="45.06181574509395" lon="10.641799787199268"><ele>20.5</ele><time>2026-04-03T13:13:39Z</time></trkpt><trkpt lat="45.0618318979033" lon="10.64159723080038"><ele>20.0</ele><time>2026-04-03T13:13:40Z</time></trkpt><trkpt lat="45.06184268869927" lon="10.64139427004201"><ele>19.5</ele><time>2026-04-03T13:13:41Z</time></trkpt><trkpt lat="45.061841788790446" lon="10.641186944459676"><ele>19.0</ele><time>2026-04-03T13:13:42Z</time></trkpt><trkpt lat="45.06183030950663" lon="10.640973344513188"><ele>18.333333333333332</ele><time>2026-04-03T13:13:43Z</time></trkpt><trkpt lat="45.06180781118394" lon="10.640756021827727"><ele>17.666666666666668</ele><time>2026-04-03T13:13:44Z</time></trkpt><trkpt lat="45.061777599335386" lon="10.64054066876441"><ele>17.0</ele><time>2026-04-03T13:13:45Z</time></trkpt><trkpt lat="45.06174741775542" lon="10.640327460749175"><ele>17.333333333333336</ele><time>2026-04-03T13:13:46Z</time></trkpt><trkpt lat="45.061722729742165" lon="10.640110370729575"><ele>17.666666666666668</ele><time>2026-04-03T13:13:47Z</time></trkpt><trkpt lat="45.061715702996004" lon="10.639892049429506"><ele>18.0</ele><time>2026-04-03T13:13:48Z</time></trkpt><trkpt lat="45.06172944661944" lon="10.63966773904527"><ele>18.0</ele><time>2026-04-03T13:13:49Z</time></trkpt><trkpt lat="45.06176247423254" lon="10.639439604039532"><ele>18.0</ele><time>2026-04-03T13:13:50Z</time></trkpt><trkpt lat="45.061804153411884" lon="10.639199124404191"><ele>18.0</ele><time>2026-04-03T13:13:51Z</time></trkpt><trkpt lat="45.061851756473004" lon="10.63897175789013"><ele>18.0</ele><time>2026-04-03T13:13:52Z</time></trkpt><trkpt lat="45.061891772161005" lon="10.638763455036974"><ele>18.0</ele><time>2026-04-03T13:13:53Z</time></trkpt><trkpt lat="45.06192465247633" lon="10.638564243296548"><ele>18.0</ele><time>2026-04-03T13:13:54Z</time></trkpt><trkpt lat="45.06195245979969" lon="10.638359938948055"><ele>18.0</ele><time>2026-04-03T13:13:55Z</time></trkpt><trkpt lat="45.06197046645231" lon="10.63815436503702"><ele>18.0</ele><time>2026-04-03T13:13:55.999Z</time></trkpt><trkpt lat="45.06197742104704" lon="10.637957987558769"><ele>18.0</ele><time>2026-04-03T13:13:56.999Z</time></trkpt><trkpt lat="45.061978340783504" lon="10.637759223839225"><ele>18.0</ele><time>2026-04-03T13:13:57.999Z</time></trkpt><trkpt lat="45.06197773419902" lon="10.637546467440716"><ele>18.0</ele><time>2026-04-03T13:13:58.999Z</time></trkpt><trkpt lat="45.061977209718975" lon="10.63732282281153"><ele>18.0</ele><time>2026-04-03T13:13:59.999Z</time></trkpt><trkpt lat="45.06197757427636" lon="10.637097454307217"><ele>18.0</ele><time>2026-04-03T13:14:00.999Z</time></trkpt><trkpt lat="45.06198120513373" lon="10.636872620624706"><ele>18.0</ele><time>2026-04-03T13:14:01.999Z</time></trkpt><trkpt lat="45.06198472079348" lon="10.63664713782699"><ele>18.0</ele><time>2026-04-03T13:14:02.999Z</time></trkpt><trkpt lat="45.061986429236775" lon="10.636420571145598"><ele>18.0</ele><time>2026-04-03T13:14:03.999Z</time></trkpt><trkpt lat="45.06198265655393" lon="10.636168273592608"><ele>18.0</ele><time>2026-04-03T13:14:04.999Z</time></trkpt><trkpt lat="45.06197316523973" lon="10.63587069392683"><ele>19.0</ele><time>2026-04-03T13:14:05.999Z</time></trkpt><trkpt lat="45.06196900105289" lon="10.635558467747506"><ele>20.0</ele><time>2026-04-03T13:14:06.999Z</time></trkpt><trkpt lat="45.06197579616271" lon="10.635270616286485"><ele>21.0</ele><time>2026-04-03T13:14:07.999Z</time></trkpt><trkpt lat="45.061987069097" lon="10.635015019882507"><ele>21.0</ele><time>2026-04-03T13:14:08.999Z</time></trkpt><trkpt lat="45.06199294838227" lon="10.634770538779959"><ele>21.0</ele><time>2026-04-03T13:14:09.999Z</time></trkpt><trkpt lat="45.06198719782047" lon="10.634543872255298"><ele>21.0</ele><time>2026-04-03T13:14:10.999Z</time></trkpt><trkpt lat="45.06197279167901" lon="10.634312460296146"><ele>21.0</ele><time>2026-04-03T13:14:11.999Z</time></trkpt><trkpt lat="45.061956960597975" lon="10.634079899162876"><ele>21.0</ele><time>2026-04-03T13:14:12.999Z</time></trkpt><trkpt lat="45.06194254759228" lon="10.633845224203988"><ele>21.0</ele><time>2026-04-03T13:14:13.999Z</time></trkpt><trkpt lat="45.06193732591314" lon="10.633608902014736"><ele>20.666666666666668</ele><time>2026-04-03T13:14:14.999Z</time></trkpt><trkpt lat="45.06195045606119" lon="10.633374869318413"><ele>20.333333333333336</ele><time>2026-04-03T13:14:15.999Z</time></trkpt><trkpt lat="45.06198421753501" lon="10.633139476204455"><ele>20.0</ele><time>2026-04-03T13:14:16.999Z</time></trkpt><trkpt lat="45.06203310871231" lon="10.63289737834565"><ele>19.666666666666668</ele><time>2026-04-03T13:14:17.999Z</time></trkpt><trkpt lat="45.062090835853304" lon="10.632656256843479"><ele>19.333333333333332</ele><time>2026-04-03T13:14:18.999Z</time></trkpt><trkpt lat="45.06215202729339" lon="10.632416780249098"><ele>19.0</ele><time>2026-04-03T13:14:19.999Z</time></trkpt><trkpt lat="45.06221310735828" lon="10.632182532879527"><ele>19.0</ele><time>2026-04-03T13:14:20.999Z</time></trkpt><trkpt lat="45.06227147373243" lon="10.6319447995205"><ele>19.0</ele><time>2026-04-03T13:14:21.999Z</time></trkpt><trkpt lat="45.06232571993311" lon="10.63170365385983"><ele>19.0</ele><time>2026-04-03T13:14:22.999Z</time></trkpt><trkpt lat="45.06237524483057" lon="10.631459634133337"><ele>19.0</ele><time>2026-04-03T13:14:23.999Z</time></trkpt><trkpt lat="45.062426822323424" lon="10.63121134293585"><ele>19.0</ele><time>2026-04-03T13:14:24.999Z</time></trkpt><trkpt lat="45.06248049945938" lon="10.630970367860655"><ele>19.0</ele><time>2026-04-03T13:14:25.999Z</time></trkpt><trkpt lat="45.062533124564276" lon="10.63072692082666"><ele>19.333333333333332</ele><time>2026-04-03T13:14:26.999Z</time></trkpt><trkpt lat="45.06258259774772" lon="10.630481805948952"><ele>19.666666666666668</ele><time>2026-04-03T13:14:27.999Z</time></trkpt><trkpt lat="45.06263056840533" lon="10.63023819684091"><ele>20.0</ele><time>2026-04-03T13:14:28.999Z</time></trkpt><trkpt lat="45.06268282725013" lon="10.629994661803838"><ele>20.0</ele><time>2026-04-03T13:14:29.999Z</time></trkpt><trkpt lat="45.06273636031041" lon="10.629748562562634"><ele>20.0</ele><time>2026-04-03T13:14:30.999Z</time></trkpt><trkpt lat="45.06278787912899" lon="10.629505542650291"><ele>20.0</ele><time>2026-04-03T13:14:31.999Z</time></trkpt><trkpt lat="45.06284132867782" lon="10.62925669746337"><ele>19.666666666666668</ele><time>2026-04-03T13:14:32.999Z</time></trkpt><trkpt lat="45.06290048948008" lon="10.629015214220397"><ele>19.333333333333332</ele><time>2026-04-03T13:14:33.999Z</time></trkpt><trkpt lat="45.062967275167814" lon="10.628780183058549"><ele>19.0</ele><time>2026-04-03T13:14:34.999Z</time></trkpt><trkpt lat="45.06304718620903" lon="10.628557812269227"><ele>19.0</ele><time>2026-04-03T13:14:35.999Z</time></trkpt><trkpt lat="45.063139157704775" lon="10.628339645889112"><ele>19.0</ele><time>2026-04-03T13:14:36.999Z</time></trkpt><trkpt lat="45.063240933710354" lon="10.628128136684126"><ele>19.0</ele><time>2026-04-03T13:14:37.999Z</time></trkpt><trkpt lat="45.06334873987151" lon="10.627924568477974"><ele>19.333333333333332</ele><time>2026-04-03T13:14:38.999Z</time></trkpt><trkpt lat="45.06345959945647" lon="10.627722936033136"><ele>19.666666666666668</ele><time>2026-04-03T13:14:39.999Z</time></trkpt><trkpt lat="45.063572842679235" lon="10.627514430087494"><ele>20.0</ele><time>2026-04-03T13:14:40.999Z</time></trkpt><trkpt lat="45.06368605056866" lon="10.627310830782207"><ele>20.0</ele><time>2026-04-03T13:14:41.999Z</time></trkpt><trkpt lat="45.063801009262065" lon="10.627105151525145"><ele>20.0</ele><time>2026-04-03T13:14:42.999Z</time></trkpt><trkpt lat="45.063916364008755" lon="10.62690595816018"><ele>20.0</ele><time>2026-04-03T13:14:43.999Z</time></trkpt><trkpt lat="45.06403799957208" lon="10.626709910605353"><ele>20.0</ele><time>2026-04-03T13:14:44.999Z</time></trkpt><trkpt lat="45.06416653859957" lon="10.62652419116023"><ele>20.0</ele><time>2026-04-03T13:14:45.999Z</time></trkpt><trkpt lat="45.064305173236995" lon="10.626344151956042"><ele>20.0</ele><time>2026-04-03T13:14:46.999Z</time></trkpt><trkpt lat="45.0644346160141" lon="10.626149624771728"><ele>20.0</ele><time>2026-04-03T13:14:47.999Z</time></trkpt><trkpt lat="45.064572450996046" lon="10.625963659556417"><ele>20.0</ele><time>2026-04-03T13:14:48.999Z</time></trkpt><trkpt lat="45.064712422745636" lon="10.62577481144795"><ele>20.0</ele><time>2026-04-03T13:14:49.999Z</time></trkpt><trkpt lat="45.06486392080732" lon="10.625603018951598"><ele>20.333333333333336</ele><time>2026-04-03T13:14:50.999Z</time></trkpt><trkpt lat="45.065002541060714" lon="10.625411878684604"><ele>20.666666666666668</ele><time>2026-04-03T13:14:51.999Z</time></trkpt><trkpt lat="45.06514282734891" lon="10.625220791445326"><ele>21.0</ele><time>2026-04-03T13:14:52.999Z</time></trkpt><trkpt lat="45.06528373495847" lon="10.625028804027888"><ele>21.0</ele><time>2026-04-03T13:14:53.999Z</time></trkpt><trkpt lat="45.065423852709266" lon="10.624835359370238"><ele>21.0</ele><time>2026-04-03T13:14:54.999Z</time></trkpt><trkpt lat="45.065564648612245" lon="10.624641293919248"><ele>21.0</ele><time>2026-04-03T13:14:55.999Z</time></trkpt><trkpt lat="45.06570761272817" lon="10.624445831656562"><ele>21.333333333333332</ele><time>2026-04-03T13:14:56.999Z</time></trkpt><trkpt lat="45.06585197867589" lon="10.624254130151229"><ele>21.666666666666664</ele><time>2026-04-03T13:14:57.999Z</time></trkpt><trkpt lat="45.065994155419155" lon="10.624064484747459"><ele>22.0</ele><time>2026-04-03T13:14:58.999Z</time></trkpt><trkpt lat="45.066138636231905" lon="10.623868611410275"><ele>22.0</ele><time>2026-04-03T13:14:59.999Z</time></trkpt><trkpt lat="45.06628252850768" lon="10.623674356655474"><ele>22.0</ele><time>2026-04-03T13:15:00.999Z</time></trkpt><trkpt lat="45.06642603491209" lon="10.623475114282224"><ele>22.0</ele><time>2026-04-03T13:15:01.999Z</time></trkpt><trkpt lat="45.06656721660198" lon="10.623278305104343"><ele>21.666666666666664</ele><time>2026-04-03T13:15:02.999Z</time></trkpt><trkpt lat="45.066711792151864" lon="10.623079318357842"><ele>21.333333333333332</ele><time>2026-04-03T13:15:03.999Z</time></trkpt><trkpt lat="45.066858017657694" lon="10.622882817755224"><ele>21.0</ele><time>2026-04-03T13:15:04.999Z</time></trkpt><trkpt lat="45.067004440326464" lon="10.622685436901374"><ele>20.666666666666668</ele><time>2026-04-03T13:15:05.999Z</time></trkpt><trkpt lat="45.06715076832066" lon="10.62248669551246"><ele>20.333333333333336</ele><time>2026-04-03T13:15:06.999Z</time></trkpt><trkpt lat="45.06729756595018" lon="10.622287705789077"><ele>20.0</ele><time>2026-04-03T13:15:07.999Z</time></trkpt><trkpt lat="45.06744672104256" lon="10.622087337738176"><ele>19.666666666666668</ele><time>2026-04-03T13:15:08.999Z</time></trkpt><trkpt lat="45.06759479439868" lon="10.621888848950329"><ele>19.333333333333332</ele><time>2026-04-03T13:15:09.999Z</time></trkpt><trkpt lat="45.06774217710673" lon="10.621687554578465"><ele>19.0</ele><time>2026-04-03T13:15:10.999Z</time></trkpt><trkpt lat="45.0678918799662" lon="10.62148349317644"><ele>19.0</ele><time>2026-04-03T13:15:11.999Z</time></trkpt><trkpt lat="45.06804233841484" lon="10.621282895440523"><ele>19.0</ele><time>2026-04-03T13:15:12.999Z</time></trkpt><trkpt lat="45.06819295640774" lon="10.621081744339552"><ele>19.0</ele><time>2026-04-03T13:15:13.999Z</time></trkpt><trkpt lat="45.06833825737287" lon="10.620883539467895"><ele>19.0</ele><time>2026-04-03T13:15:14.999Z</time></trkpt><trkpt lat="45.06848309658549" lon="10.620679818584156"><ele>19.0</ele><time>2026-04-03T13:15:15.999Z</time></trkpt><trkpt lat="45.06862850965075" lon="10.620480175903419"><ele>19.0</ele><time>2026-04-03T13:15:16.999Z</time></trkpt><trkpt lat="45.06877681911473" lon="10.620281336131896"><ele>19.333333333333332</ele><time>2026-04-03T13:15:17.999Z</time></trkpt><trkpt lat="45.06892602455518" lon="10.620084927622855"><ele>19.666666666666668</ele><time>2026-04-03T13:15:18.999Z</time></trkpt><trkpt lat="45.06907468708453" lon="10.619887210024071"><ele>20.0</ele><time>2026-04-03T13:15:19.999Z</time></trkpt><trkpt lat="45.06922209290761" lon="10.61968628218026"><ele>20.0</ele><time>2026-04-03T13:15:20.999Z</time></trkpt><trkpt lat="45.06936825156814" lon="10.619484652042136"><ele>20.0</ele><time>2026-04-03T13:15:21.999Z</time></trkpt><trkpt lat="45.06951672780792" lon="10.619279957183611"><ele>20.0</ele><time>2026-04-03T13:15:22.999Z</time></trkpt><trkpt lat="45.06966568014084" lon="10.619075615962853"><ele>20.0</ele><time>2026-04-03T13:15:23.999Z</time></trkpt><trkpt lat="45.069815000398236" lon="10.618872304364833"><ele>20.0</ele><time>2026-04-03T13:15:24.999Z</time></trkpt><trkpt lat="45.06996586421062" lon="10.618669903866962"><ele>20.0</ele><time>2026-04-03T13:15:25.999Z</time></trkpt><trkpt lat="45.070115777296074" lon="10.618466215415085"><ele>20.0</ele><time>2026-04-03T13:15:26.999Z</time></trkpt><trkpt lat="45.07026560346592" lon="10.618263689188003"><ele>20.0</ele><time>2026-04-03T13:15:27.999Z</time></trkpt><trkpt lat="45.070416539042" lon="10.6180594486709"><ele>20.0</ele><time>2026-04-03T13:15:28.999Z</time></trkpt><trkpt lat="45.07056815347731" lon="10.617855003042674"><ele>20.0</ele><time>2026-04-03T13:15:29.999Z</time></trkpt><trkpt lat="45.070721318942525" lon="10.617648102608177"><ele>20.0</ele><time>2026-04-03T13:15:30.999Z</time></trkpt><trkpt lat="45.07087716293102" lon="10.617436925974888"><ele>20.0</ele><time>2026-04-03T13:15:31.999Z</time></trkpt><trkpt lat="45.07103424169679" lon="10.617223767091343"><ele>19.666666666666668</ele><time>2026-04-03T13:15:32.999Z</time></trkpt><trkpt lat="45.07119304541059" lon="10.617007681456862"><ele>19.333333333333332</ele><time>2026-04-03T13:15:33.999Z</time></trkpt><trkpt lat="45.07134903852572" lon="10.616790906662288"><ele>19.0</ele><time>2026-04-03T13:15:34.999Z</time></trkpt><trkpt lat="45.071505202336986" lon="10.616580238275514"><ele>18.666666666666664</ele><time>2026-04-03T13:15:35.999Z</time></trkpt><trkpt lat="45.071657643170106" lon="10.616374755845817"><ele>18.333333333333332</ele><time>2026-04-03T13:15:36.999Z</time></trkpt><trkpt lat="45.07180975147364" lon="10.616170274835955"><ele>18.0</ele><time>2026-04-03T13:15:37.999Z</time></trkpt><trkpt lat="45.071962078653115" lon="10.615963750870682"><ele>18.0</ele><time>2026-04-03T13:15:38.999Z</time></trkpt><trkpt lat="45.0721105479426" lon="10.615759765907127"><ele>18.0</ele><time>2026-04-03T13:15:39.999Z</time></trkpt><trkpt lat="45.07224992865152" lon="10.615572887609485"><ele>18.0</ele><time>2026-04-03T13:15:40.999Z</time></trkpt><trkpt lat="45.07238274640853" lon="10.615399127014149"><ele>18.0</ele><time>2026-04-03T13:15:41.999Z</time></trkpt><trkpt lat="45.07250810806029" lon="10.615209040519941"><ele>18.0</ele><time>2026-04-03T13:15:42.999Z</time></trkpt><trkpt lat="45.072665029395225" lon="10.615061782407457"><ele>18.0</ele><time>2026-04-03T13:15:43.999Z</time></trkpt><trkpt lat="45.07281885227597" lon="10.614914371859136"><ele>18.0</ele><time>2026-04-03T13:15:44.999Z</time></trkpt><trkpt lat="45.07298610953722" lon="10.614774954497946"><ele>18.0</ele><time>2026-04-03T13:15:45.999Z</time></trkpt><trkpt lat="45.07315876705191" lon="10.614644862615066"><ele>18.0</ele><time>2026-04-03T13:15:46.999Z</time></trkpt><trkpt lat="45.07333510265245" lon="10.614517425071627"><ele>18.0</ele><time>2026-04-03T13:15:47.999Z</time></trkpt><trkpt lat="45.073512414553214" lon="10.614387967848792"><ele>18.0</ele><time>2026-04-03T13:15:48.999Z</time></trkpt><trkpt lat="45.073686640188" lon="10.61426018573751"><ele>18.0</ele><time>2026-04-03T13:15:49.999Z</time></trkpt><trkpt lat="45.07386340886313" lon="10.614129375517761"><ele>18.0</ele><time>2026-04-03T13:15:50.999Z</time></trkpt><trkpt lat="45.07403782134371" lon="10.613997098848984"><ele>18.0</ele><time>2026-04-03T13:15:51.999Z</time></trkpt><trkpt lat="45.07420878657522" lon="10.613870466366816"><ele>18.0</ele><time>2026-04-03T13:15:52.999Z</time></trkpt><trkpt lat="45.074373727201035" lon="10.613749205033596"><ele>17.666666666666668</ele><time>2026-04-03T13:15:53.999Z</time></trkpt><trkpt lat="45.074541568606904" lon="10.613625957479352"><ele>17.333333333333336</ele><time>2026-04-03T13:15:54.999Z</time></trkpt><trkpt lat="45.07470381683334" lon="10.613504247905873"><ele>17.0</ele><time>2026-04-03T13:15:55.999Z</time></trkpt><trkpt lat="45.074859337476" lon="10.613384769737966"><ele>17.666666666666668</ele><time>2026-04-03T13:15:56.999Z</time></trkpt><trkpt lat="45.075008997702284" lon="10.61326986734264"><ele>18.333333333333332</ele><time>2026-04-03T13:15:57.999Z</time></trkpt><trkpt lat="45.075157704523605" lon="10.613151962019668"><ele>19.0</ele><time>2026-04-03T13:15:58.999Z</time></trkpt><trkpt lat="45.07530589025708" lon="10.613025736553073"><ele>19.0</ele><time>2026-04-03T13:15:59.999Z</time></trkpt><trkpt lat="45.07545171034528" lon="10.612887759644332"><ele>19.0</ele><time>2026-04-03T13:16:00.999Z</time></trkpt><trkpt lat="45.075589602176606" lon="10.612729174533078"><ele>19.0</ele><time>2026-04-03T13:16:01.999Z</time></trkpt><trkpt lat="45.075716141614656" lon="10.6125622944517"><ele>19.333333333333332</ele><time>2026-04-03T13:16:02.999Z</time></trkpt><trkpt lat="45.075834062656355" lon="10.61238794937515"><ele>19.666666666666668</ele><time>2026-04-03T13:16:03.999Z</time></trkpt><trkpt lat="45.07594919841557" lon="10.612195953704509"><ele>20.0</ele><time>2026-04-03T13:16:04.999Z</time></trkpt><trkpt lat="45.07605119147057" lon="10.611986820003235"><ele>20.0</ele><time>2026-04-03T13:16:05.999Z</time></trkpt><trkpt lat="45.07615002795797" lon="10.611761493561623"><ele>20.0</ele><time>2026-04-03T13:16:06.999Z</time></trkpt><trkpt lat="45.07624710823144" lon="10.611528004618936"><ele>20.0</ele><time>2026-04-03T13:16:07.999Z</time></trkpt><trkpt lat="45.07634047519036" lon="10.611288672621338"><ele>20.0</ele><time>2026-04-03T13:16:08.999Z</time></trkpt><trkpt lat="45.07643083753693" lon="10.611050616420123"><ele>20.0</ele><time>2026-04-03T13:16:09.999Z</time></trkpt><trkpt lat="45.07652425405672" lon="10.610817749367998"><ele>20.0</ele><time>2026-04-03T13:16:10.999Z</time></trkpt><trkpt lat="45.07661526505583" lon="10.610596595301848"><ele>19.0</ele><time>2026-04-03T13:16:11.999Z</time></trkpt><trkpt lat="45.076702772457246" lon="10.610385777877308"><ele>18.0</ele><time>2026-04-03T13:16:12.999Z</time></trkpt><trkpt lat="45.07678654128151" lon="10.610180472683593"><ele>17.0</ele><time>2026-04-03T13:16:13.999Z</time></trkpt><trkpt lat="45.07687027454792" lon="10.609968836605711"><ele>17.0</ele><time>2026-04-03T13:16:14.999Z</time></trkpt><trkpt lat="45.076953756133385" lon="10.609754308605872"><ele>17.0</ele><time>2026-04-03T13:16:15.999Z</time></trkpt><trkpt lat="45.077039884260785" lon="10.6095388793367"><ele>17.0</ele><time>2026-04-03T13:16:16.999Z</time></trkpt><trkpt lat="45.07712554977264" lon="10.609328824328909"><ele>16.666666666666668</ele><time>2026-04-03T13:16:17.999Z</time></trkpt><trkpt lat="45.07721119100238" lon="10.60911868034883"><ele>16.333333333333332</ele><time>2026-04-03T13:16:18.999Z</time></trkpt><trkpt lat="45.07729410831024" lon="10.608916650674036"><ele>16.0</ele><time>2026-04-03T13:16:19.999Z</time></trkpt><trkpt lat="45.077374673774024" lon="10.608714933784007"><ele>16.0</ele><time>2026-04-03T13:16:20.999Z</time></trkpt><trkpt lat="45.077456180068864" lon="10.608514620679433"><ele>16.0</ele><time>2026-04-03T13:16:21.999Z</time></trkpt><trkpt lat="45.07754059130814" lon="10.608310885818847"><ele>16.0</ele><time>2026-04-03T13:16:22.999Z</time></trkpt><trkpt lat="45.077622619353996" lon="10.608110820756186"><ele>16.0</ele><time>2026-04-03T13:16:23.999Z</time></trkpt><trkpt lat="45.0777025493689" lon="10.60790846772885"><ele>16.0</ele><time>2026-04-03T13:16:24.999Z</time></trkpt><trkpt lat="45.077780089262546" lon="10.60771159304051"><ele>16.0</ele><time>2026-04-03T13:16:25.999Z</time></trkpt><trkpt lat="45.07785552482718" lon="10.60752638287955"><ele>16.333333333333332</ele><time>2026-04-03T13:16:26.999Z</time></trkpt><trkpt lat="45.077931208335315" lon="10.607339075398373"><ele>16.666666666666668</ele><time>2026-04-03T13:16:27.999Z</time></trkpt><trkpt lat="45.078007975317725" lon="10.607146659712264"><ele>17.0</ele><time>2026-04-03T13:16:28.999Z</time></trkpt><trkpt lat="45.078085433241235" lon="10.606955739731188"><ele>17.0</ele><time>2026-04-03T13:16:29.999Z</time></trkpt><trkpt lat="45.078162611974044" lon="10.606764955399571"><ele>17.0</ele><time>2026-04-03T13:16:30.999Z</time></trkpt><trkpt lat="45.078239542031845" lon="10.606572329252728"><ele>17.0</ele><time>2026-04-03T13:16:31.999Z</time></trkpt><trkpt lat="45.07831776272019" lon="10.606378375132483"><ele>17.333333333333336</ele><time>2026-04-03T13:16:32.999Z</time></trkpt><trkpt lat="45.078396986642716" lon="10.606182014545814"><ele>17.666666666666668</ele><time>2026-04-03T13:16:33.999Z</time></trkpt><trkpt lat="45.078472232002404" lon="10.605992035272996"><ele>18.0</ele><time>2026-04-03T13:16:34.999Z</time></trkpt><trkpt lat="45.078541818535946" lon="10.605816314710722"><ele>18.0</ele><time>2026-04-03T13:16:35.999Z</time></trkpt><trkpt lat="45.07860961239299" lon="10.605637070017808"><ele>18.0</ele><time>2026-04-03T13:16:36.999Z</time></trkpt><trkpt lat="45.07868357503426" lon="10.605453854794186"><ele>18.0</ele><time>2026-04-03T13:16:37.999Z</time></trkpt><trkpt lat="45.07876301911768" lon="10.605266659023048"><ele>18.0</ele><time>2026-04-03T13:16:38.999Z</time></trkpt><trkpt lat="45.078839980242705" lon="10.60507606276557"><ele>18.333333333333332</ele><time>2026-04-03T13:16:39.999Z</time></trkpt><trkpt lat="45.078916420426225" lon="10.604884511045165"><ele>18.666666666666664</ele><time>2026-04-03T13:16:40.999Z</time></trkpt><trkpt lat="45.0789889773684" lon="10.604694700784203"><ele>19.0</ele><time>2026-04-03T13:16:41.999Z</time></trkpt><trkpt lat="45.0790607885775" lon="10.6045131114435"><ele>18.75</ele><time>2026-04-03T13:16:42.999Z</time></trkpt><trkpt lat="45.07913521562337" lon="10.60433228870368"><ele>18.5</ele><time>2026-04-03T13:16:43.999Z</time></trkpt><trkpt lat="45.07921032144969" lon="10.604147045275004"><ele>18.25</ele><time>2026-04-03T13:16:44.999Z</time></trkpt><trkpt lat="45.07928426073359" lon="10.603961487549563"><ele>18.0</ele><time>2026-04-03T13:16:45.999Z</time></trkpt><trkpt lat="45.07935680536744" lon="10.603778046102105"><ele>18.333333333333332</ele><time>2026-04-03T13:16:46.999Z</time></trkpt><trkpt lat="45.07943287434522" lon="10.603587627864334"><ele>18.666666666666664</ele><time>2026-04-03T13:16:47.999Z</time></trkpt><trkpt lat="45.07950887077587" lon="10.603396934524808"><ele>19.0</ele><time>2026-04-03T13:16:48.999Z</time></trkpt><trkpt lat="45.07958717321739" lon="10.603199811438278"><ele>19.0</ele><time>2026-04-03T13:16:49.999Z</time></trkpt><trkpt lat="45.07966713597925" lon="10.603000338971245"><ele>19.0</ele><time>2026-04-03T13:16:50.999Z</time></trkpt><trkpt lat="45.07974824658615" lon="10.602804136812066"><ele>19.0</ele><time>2026-04-03T13:16:51.999Z</time></trkpt><trkpt lat="45.079829079149555" lon="10.602612359776149"><ele>19.0</ele><time>2026-04-03T13:16:52.999Z</time></trkpt><trkpt lat="45.07991130884283" lon="10.602427304357521"><ele>19.0</ele><time>2026-04-03T13:16:53.999Z</time></trkpt><trkpt lat="45.079996697279235" lon="10.602256370119074"><ele>19.0</ele><time>2026-04-03T13:16:54.999Z</time></trkpt><trkpt lat="45.08008975778213" lon="10.602094230520258"><ele>18.666666666666664</ele><time>2026-04-03T13:16:55.999Z</time></trkpt><trkpt lat="45.08019367216368" lon="10.601931911074876"><ele>18.333333333333332</ele><time>2026-04-03T13:16:56.999Z</time></trkpt><trkpt lat="45.080308858790275" lon="10.601774057778263"><ele>18.0</ele><time>2026-04-03T13:16:57.999Z</time></trkpt><trkpt lat="45.080437991379455" lon="10.60162367212949"><ele>18.0</ele><time>2026-04-03T13:16:58.999Z</time></trkpt><trkpt lat="45.08057194641143" lon="10.601482636215424"><ele>18.0</ele><time>2026-04-03T13:16:59.999Z</time></trkpt><trkpt lat="45.08071325478325" lon="10.601352318827859"><ele>18.0</ele><time>2026-04-03T13:17:00.999Z</time></trkpt><trkpt lat="45.0808607585685" lon="10.601236455076354"><ele>17.333333333333332</ele><time>2026-04-03T13:17:01.999Z</time></trkpt><trkpt lat="45.08101489155323" lon="10.601130565318924"><ele>16.666666666666664</ele><time>2026-04-03T13:17:02.999Z</time></trkpt><trkpt lat="45.08117226482719" lon="10.601027817911124"><ele>16.0</ele><time>2026-04-03T13:17:03.999Z</time></trkpt><trkpt lat="45.081326953872676" lon="10.600928697073687"><ele>16.0</ele><time>2026-04-03T13:17:04.999Z</time></trkpt><trkpt lat="45.081478937934804" lon="10.600829353313173"><ele>16.0</ele><time>2026-04-03T13:17:05.999Z</time></trkpt><trkpt lat="45.081621329876995" lon="10.600736090504716"><ele>16.0</ele><time>2026-04-03T13:17:06.999Z</time></trkpt><trkpt lat="45.08175807297255" lon="10.600639336978194"><ele>16.25</ele><time>2026-04-03T13:17:07.999Z</time></trkpt><trkpt lat="45.0818880611464" lon="10.600550413102715"><ele>16.5</ele><time>2026-04-03T13:17:08.999Z</time></trkpt><trkpt lat="45.08200853767657" lon="10.600471484409578"><ele>16.75</ele><time>2026-04-03T13:17:09.999Z</time></trkpt><trkpt lat="45.08212864405541" lon="10.600393171041308"><ele>17.0</ele><time>2026-04-03T13:17:10.999Z</time></trkpt><trkpt lat="45.082245199388936" lon="10.600314349327446"><ele>17.0</ele><time>2026-04-03T13:17:11.999Z</time></trkpt><trkpt lat="45.08235510906614" lon="10.600239967118206"><ele>17.0</ele><time>2026-04-03T13:17:12.999Z</time></trkpt><trkpt lat="45.08245606376053" lon="10.600180953673746"><ele>17.0</ele><time>2026-04-03T13:17:13.999Z</time></trkpt><trkpt lat="45.082545916753226" lon="10.600131302139461"><ele>17.0</ele><time>2026-04-03T13:17:14.999Z</time></trkpt><trkpt lat="45.08262044120435" lon="10.600066772638124"><ele>17.0</ele><time>2026-04-03T13:17:15.999Z</time></trkpt><trkpt lat="45.08271603829004" lon="10.60003750166312"><ele>17.4</ele><time>2026-04-03T13:17:16.999Z</time></trkpt><trkpt lat="45.082802657753696" lon="10.600034816549076"><ele>17.799999999999997</ele><time>2026-04-03T13:17:17.999Z</time></trkpt><trkpt lat="45.08288916641251" lon="10.600143860857203"><ele>18.2</ele><time>2026-04-03T13:17:18.999Z</time></trkpt><trkpt lat="45.08297768269936" lon="10.600173141890519"><ele>18.599999999999998</ele><time>2026-04-03T13:17:19.999Z</time></trkpt><trkpt lat="45.08306469607653" lon="10.600163701036987"><ele>19.0</ele><time>2026-04-03T13:17:20.999Z</time></trkpt><trkpt lat="45.08313338127213" lon="10.600109715434913"><ele>19.0</ele><time>2026-04-03T13:17:21.999Z</time></trkpt><trkpt lat="45.08318032008133" lon="10.59998651010369"><ele>19.0</ele><time>2026-04-03T13:17:22.999Z</time></trkpt><trkpt lat="45.08322610446166" lon="10.599863477879758"><ele>19.0</ele><time>2026-04-03T13:17:23.999Z</time></trkpt><trkpt lat="45.08325706131424" lon="10.599719642152872"><ele>19.0</ele><time>2026-04-03T13:17:24.999Z</time></trkpt><trkpt lat="45.0833264784443" lon="10.599581692369032"><ele>19.0</ele><time>2026-04-03T13:17:25.999Z</time></trkpt><trkpt lat="45.08339153455737" lon="10.59946850842372"><ele>18.25</ele><time>2026-04-03T13:17:26.999Z</time></trkpt><trkpt lat="45.083528116212456" lon="10.599438221801583"><ele>17.5</ele><time>2026-04-03T13:17:27.999Z</time></trkpt><trkpt lat="45.083637332564436" lon="10.599370453701251"><ele>16.75</ele><time>2026-04-03T13:17:28.999Z</time></trkpt><trkpt lat="45.08375092662033" lon="10.599305393004421"><ele>16.0</ele><time>2026-04-03T13:17:30Z</time></trkpt><trkpt lat="45.083868398390834" lon="10.599232482992193"><ele>16.0</ele><time>2026-04-03T13:17:31Z</time></trkpt><trkpt lat="45.08398444141972" lon="10.599150937798465"><ele>16.0</ele><time>2026-04-03T13:17:32Z</time></trkpt><trkpt lat="45.084097240888255" lon="10.599072171661874"><ele>16.0</ele><time>2026-04-03T13:17:33Z</time></trkpt><trkpt lat="45.08421341225632" lon="10.59899647636252"><ele>16.0</ele><time>2026-04-03T13:17:34Z</time></trkpt><trkpt lat="45.084331031223385" lon="10.598921586611844"><ele>16.0</ele><time>2026-04-03T13:17:35Z</time></trkpt><trkpt lat="45.08445497650684" lon="10.59883956103131"><ele>16.0</ele><time>2026-04-03T13:17:36Z</time></trkpt><trkpt lat="45.08457812720997" lon="10.598760178387218"><ele>16.0</ele><time>2026-04-03T13:17:37Z</time></trkpt><trkpt lat="45.08470651321829" lon="10.598680078365671"><ele>16.0</ele><time>2026-04-03T13:17:38Z</time></trkpt><trkpt lat="45.08482989674944" lon="10.598597177656005"><ele>16.0</ele><time>2026-04-03T13:17:39Z</time></trkpt><trkpt lat="45.084940654069705" lon="10.598515956552959"><ele>16.0</ele><time>2026-04-03T13:17:40Z</time></trkpt><trkpt lat="45.0850484566142" lon="10.598444529595428"><ele>16.0</ele><time>2026-04-03T13:17:41Z</time></trkpt><trkpt lat="45.08514444091214" lon="10.598384573955087"><ele>16.0</ele><time>2026-04-03T13:17:42Z</time></trkpt><trkpt lat="45.08521349262649" lon="10.59833134978798"><ele>16.0</ele><time>2026-04-03T13:17:43Z</time></trkpt><trkpt lat="45.0852781425674" lon="10.598286286814284"><ele>16.0</ele><time>2026-04-03T13:17:44Z</time></trkpt><trkpt lat="45.08533586664138" lon="10.598246250388387"><ele>16.0</ele><time>2026-04-03T13:17:45Z</time></trkpt><trkpt lat="45.08542604982182" lon="10.59818508345012"><ele>16.0</ele><time>2026-04-03T13:17:47Z</time></trkpt><trkpt lat="45.085481917481765" lon="10.598114994939728"><ele>16.0</ele><time>2026-04-03T13:17:49Z</time></trkpt><trkpt lat="45.08543262723298" lon="10.597964949379547"><ele>16.0</ele><time>2026-04-03T13:17:52Z</time></trkpt><trkpt lat="45.0853553217078" lon="10.597847347256282"><ele>16.142857142857142</ele><time>2026-04-03T13:17:54Z</time></trkpt><trkpt lat="45.085312582755286" lon="10.597773296087492"><ele>16.285714285714285</ele><time>2026-04-03T13:17:55Z</time></trkpt><trkpt lat="45.08526110585279" lon="10.597684105201871"><ele>16.428571428571427</ele><time>2026-04-03T13:17:56Z</time></trkpt><trkpt lat="45.08521090510263" lon="10.597594149853622"><ele>16.57142857142857</ele><time>2026-04-03T13:17:57Z</time></trkpt><trkpt lat="45.085158694713186" lon="10.59751294649098"><ele>16.714285714285715</ele><time>2026-04-03T13:17:58Z</time></trkpt><trkpt lat="45.08513459582393" lon="10.59741454178569"><ele>16.857142857142854</ele><time>2026-04-03T13:17:59Z</time></trkpt><trkpt lat="45.08511738420217" lon="10.597320792911479"><ele>17.0</ele><time>2026-04-03T13:18:00Z</time></trkpt><trkpt lat="45.08509606131797" lon="10.597217682592214"><ele>17.0</ele><time>2026-04-03T13:18:01Z</time></trkpt><trkpt lat="45.085081799106504" lon="10.597117574848792"><ele>17.0</ele><time>2026-04-03T13:18:01.999Z</time></trkpt><trkpt lat="45.08505559146431" lon="10.596979204422562"><ele>17.0</ele><time>2026-04-03T13:18:03.999Z</time></trkpt><trkpt lat="45.08502418854828" lon="10.596819432339665"><ele>17.0</ele><time>2026-04-03T13:18:05.999Z</time></trkpt><trkpt lat="45.08499441827235" lon="10.596710061507235"><ele>17.0</ele><time>2026-04-03T13:18:06.999Z</time></trkpt><trkpt lat="45.08496620995667" lon="10.596583145760729"><ele>17.2</ele><time>2026-04-03T13:18:07.999Z</time></trkpt><trkpt lat="45.08493834242814" lon="10.59644442027046"><ele>17.4</ele><time>2026-04-03T13:18:08.999Z</time></trkpt><trkpt lat="45.08490945250069" lon="10.596304802804859"><ele>17.6</ele><time>2026-04-03T13:18:09.999Z</time></trkpt><trkpt lat="45.08487345679015" lon="10.596157791087714"><ele>17.8</ele><time>2026-04-03T13:18:10.999Z</time></trkpt><trkpt lat="45.084833495805015" lon="10.596009547423245"><ele>18.0</ele><time>2026-04-03T13:18:11.999Z</time></trkpt><trkpt lat="45.08479094606378" lon="10.595859146680345"><ele>18.0</ele><time>2026-04-03T13:18:12.999Z</time></trkpt><trkpt lat="45.084742401993616" lon="10.59570665467739"><ele>18.0</ele><time>2026-04-03T13:18:13.999Z</time></trkpt><trkpt lat="45.08468862854995" lon="10.595557306070159"><ele>18.0</ele><time>2026-04-03T13:18:14.999Z</time></trkpt><trkpt lat="45.08463448852191" lon="10.595418909029311"><ele>18.0</ele><time>2026-04-03T13:18:15.999Z</time></trkpt><trkpt lat="45.08457951716135" lon="10.595280964455275"><ele>18.25</ele><time>2026-04-03T13:18:16.999Z</time></trkpt><trkpt lat="45.08452070455368" lon="10.59513823997486"><ele>18.5</ele><time>2026-04-03T13:18:17.999Z</time></trkpt><trkpt lat="45.084458481777105" lon="10.594992220173285"><ele>18.75</ele><time>2026-04-03T13:18:18.999Z</time></trkpt><trkpt lat="45.08439185836279" lon="10.594847600165561"><ele>19.0</ele><time>2026-04-03T13:18:19.999Z</time></trkpt><trkpt lat="45.08432665287287" lon="10.59470310735361"><ele>19.0</ele><time>2026-04-03T13:18:20.999Z</time></trkpt><trkpt lat="45.08425673990463" lon="10.594556133041134"><ele>19.0</ele><time>2026-04-03T13:18:21.999Z</time></trkpt><trkpt lat="45.084187100943986" lon="10.594411021728213"><ele>19.0</ele><time>2026-04-03T13:18:22.999Z</time></trkpt><trkpt lat="45.08412710274166" lon="10.594274139731834"><ele>19.0</ele><time>2026-04-03T13:18:23.999Z</time></trkpt><trkpt lat="45.084069007256645" lon="10.594142776793127"><ele>18.75</ele><time>2026-04-03T13:18:24.999Z</time></trkpt><trkpt lat="45.08400401584902" lon="10.594006547216091"><ele>18.5</ele><time>2026-04-03T13:18:25.999Z</time></trkpt><trkpt lat="45.08393076656686" lon="10.593875940920743"><ele>18.25</ele><time>2026-04-03T13:18:26.999Z</time></trkpt><trkpt lat="45.08386049316422" lon="10.593754310750214"><ele>18.0</ele><time>2026-04-03T13:18:27.999Z</time></trkpt><trkpt lat="45.08378852367214" lon="10.593634269620416"><ele>18.0</ele><time>2026-04-03T13:18:28.999Z</time></trkpt><trkpt lat="45.08373417930846" lon="10.593490934560904"><ele>18.0</ele><time>2026-04-03T13:18:29.999Z</time></trkpt><trkpt lat="45.08367790254113" lon="10.593358594207766"><ele>18.0</ele><time>2026-04-03T13:18:30.999Z</time></trkpt><trkpt lat="45.083620043785594" lon="10.593243554732727"><ele>18.0</ele><time>2026-04-03T13:18:31.999Z</time></trkpt><trkpt lat="45.08356887179372" lon="10.593124707327837"><ele>18.0</ele><time>2026-04-03T13:18:32.999Z</time></trkpt><trkpt lat="45.08350813844452" lon="10.592997177580214"><ele>18.0</ele><time>2026-04-03T13:18:33.999Z</time></trkpt><trkpt lat="45.08344077642709" lon="10.592865592592572"><ele>18.0</ele><time>2026-04-03T13:18:34.999Z</time></trkpt><trkpt lat="45.08336378677744" lon="10.592750717887345"><ele>18.0</ele><time>2026-04-03T13:18:35.999Z</time></trkpt><trkpt lat="45.083284049338864" lon="10.592639375627535"><ele>18.0</ele><time>2026-04-03T13:18:36.999Z</time></trkpt><trkpt lat="45.08320351319567" lon="10.592524684235757"><ele>18.5</ele><time>2026-04-03T13:18:37.999Z</time></trkpt><trkpt lat="45.083118665564264" lon="10.592406389483976"><ele>19.0</ele><time>2026-04-03T13:18:38.999Z</time></trkpt><trkpt lat="45.083036122313516" lon="10.592279545681679"><ele>19.5</ele><time>2026-04-03T13:18:39.999Z</time></trkpt><trkpt lat="45.08295655452275" lon="10.592147129829948"><ele>20.0</ele><time>2026-04-03T13:18:40.999Z</time></trkpt><trkpt lat="45.08287090389716" lon="10.592018762435462"><ele>20.25</ele><time>2026-04-03T13:18:41.999Z</time></trkpt><trkpt lat="45.082792091879575" lon="10.591885005720245"><ele>20.5</ele><time>2026-04-03T13:18:42.999Z</time></trkpt><trkpt lat="45.08271734477791" lon="10.591743828256623"><ele>20.75</ele><time>2026-04-03T13:18:43.999Z</time></trkpt><trkpt lat="45.08264420449657" lon="10.591590082966343"><ele>21.0</ele><time>2026-04-03T13:18:44.999Z</time></trkpt><trkpt lat="45.08256884597333" lon="10.591427921440625"><ele>21.0</ele><time>2026-04-03T13:18:45.999Z</time></trkpt><trkpt lat="45.08249546947501" lon="10.591266209504552"><ele>21.0</ele><time>2026-04-03T13:18:46.999Z</time></trkpt><trkpt lat="45.082418312120375" lon="10.591101655144527"><ele>21.0</ele><time>2026-04-03T13:18:47.999Z</time></trkpt><trkpt lat="45.0823419903498" lon="10.590948397540515"><ele>21.0</ele><time>2026-04-03T13:18:48.999Z</time></trkpt><trkpt lat="45.08227196633255" lon="10.590811679747523"><ele>20.8</ele><time>2026-04-03T13:18:49.999Z</time></trkpt><trkpt lat="45.08220471018686" lon="10.590693357224415"><ele>20.6</ele><time>2026-04-03T13:18:50.999Z</time></trkpt><trkpt lat="45.08213294518643" lon="10.590588480927122"><ele>20.4</ele><time>2026-04-03T13:18:51.999Z</time></trkpt><trkpt lat="45.082058615003504" lon="10.590469376421206"><ele>20.2</ele><time>2026-04-03T13:18:52.999Z</time></trkpt><trkpt lat="45.081947740531845" lon="10.59039597141065"><ele>20.0</ele><time>2026-04-03T13:18:53.999Z</time></trkpt><trkpt lat="45.08185172400451" lon="10.590284848256337"><ele>20.0</ele><time>2026-04-03T13:18:54.999Z</time></trkpt><trkpt lat="45.08174848338748" lon="10.590195960522793"><ele>20.0</ele><time>2026-04-03T13:18:55.999Z</time></trkpt><trkpt lat="45.08164621378452" lon="10.590107906909275"><ele>20.0</ele><time>2026-04-03T13:18:56.999Z</time></trkpt><trkpt lat="45.0815375560403" lon="10.590016152033945"><ele>20.0</ele><time>2026-04-03T13:18:57.999Z</time></trkpt><trkpt lat="45.08142596896199" lon="10.589922609644374"><ele>19.75</ele><time>2026-04-03T13:18:58.999Z</time></trkpt><trkpt lat="45.081314697576005" lon="10.589829332221008"><ele>19.5</ele><time>2026-04-03T13:18:59.999Z</time></trkpt><trkpt lat="45.08120001573567" lon="10.58973388676509"><ele>19.25</ele><time>2026-04-03T13:19:00.999Z</time></trkpt><trkpt lat="45.08108708699179" lon="10.58964011632955"><ele>19.0</ele><time>2026-04-03T13:19:01.999Z</time></trkpt><trkpt lat="45.080975382249" lon="10.589547363639607"><ele>18.5</ele><time>2026-04-03T13:19:02.999Z</time></trkpt><trkpt lat="45.08086333079875" lon="10.589452404095839"><ele>18.0</ele><time>2026-04-03T13:19:03.999Z</time></trkpt><trkpt lat="45.08074747569881" lon="10.589355888126603"><ele>17.5</ele><time>2026-04-03T13:19:04.999Z</time></trkpt><trkpt lat="45.080629426277305" lon="10.589257958724918"><ele>17.0</ele><time>2026-04-03T13:19:05.999Z</time></trkpt><trkpt lat="45.08051071223116" lon="10.589159478006124"><ele>16.75</ele><time>2026-04-03T13:19:06.999Z</time></trkpt><trkpt lat="45.0803937675461" lon="10.589061902670412"><ele>16.5</ele><time>2026-04-03T13:19:07.999Z</time></trkpt><trkpt lat="45.08027385864313" lon="10.588960855906729"><ele>16.25</ele><time>2026-04-03T13:19:08.999Z</time></trkpt><trkpt lat="45.0801534862367" lon="10.58885941847394"><ele>16.0</ele><time>2026-04-03T13:19:09.999Z</time></trkpt><trkpt lat="45.08003247904842" lon="10.58875744612308"><ele>16.5</ele><time>2026-04-03T13:19:10.999Z</time></trkpt><trkpt lat="45.079913825820846" lon="10.58865745740176"><ele>17.0</ele><time>2026-04-03T13:19:11.999Z</time></trkpt><trkpt lat="45.07979889604145" lon="10.588560606466796"><ele>17.5</ele><time>2026-04-03T13:19:12.999Z</time></trkpt><trkpt lat="45.07968756955453" lon="10.588466791953124"><ele>18.0</ele><time>2026-04-03T13:19:13.999Z</time></trkpt><trkpt lat="45.07957682936265" lon="10.588373471595757"><ele>18.0</ele><time>2026-04-03T13:19:14.999Z</time></trkpt><trkpt lat="45.07946771411246" lon="10.588282043767167"><ele>18.0</ele><time>2026-04-03T13:19:15.999Z</time></trkpt><trkpt lat="45.07935825591574" lon="10.588190396042748"><ele>18.0</ele><time>2026-04-03T13:19:16.999Z</time></trkpt><trkpt lat="45.07925060827132" lon="10.588100264224515"><ele>18.0</ele><time>2026-04-03T13:19:17.999Z</time></trkpt><trkpt lat="45.07914005167596" lon="10.588007696719309"><ele>19.5</ele><time>2026-04-03T13:19:18.999Z</time></trkpt><trkpt lat="45.07902624718299" lon="10.587912409856523"><ele>21.0</ele><time>2026-04-03T13:19:19.999Z</time></trkpt><trkpt lat="45.07891871922078" lon="10.58782237827345"><ele>22.5</ele><time>2026-04-03T13:19:20.999Z</time></trkpt><trkpt lat="45.07881606514207" lon="10.587736863646231"><ele>24.0</ele><time>2026-04-03T13:19:21.999Z</time></trkpt><trkpt lat="45.078715766050095" lon="10.587653790759425"><ele>24.0</ele><time>2026-04-03T13:19:22.999Z</time></trkpt><trkpt lat="45.07861280031162" lon="10.587568509044191"><ele>24.0</ele><time>2026-04-03T13:19:23.999Z</time></trkpt><trkpt lat="45.07850853791792" lon="10.587482153426206"><ele>24.0</ele><time>2026-04-03T13:19:24.999Z</time></trkpt><trkpt lat="45.07840746060667" lon="10.587398435917551"><ele>24.0</ele><time>2026-04-03T13:19:25.999Z</time></trkpt><trkpt lat="45.078311913765674" lon="10.58731929891652"><ele>23.799999999999997</ele><time>2026-04-03T13:19:27Z</time></trkpt><trkpt lat="45.07821949145914" lon="10.587242631021203"><ele>23.599999999999998</ele><time>2026-04-03T13:19:28Z</time></trkpt><trkpt lat="45.07812029674654" lon="10.587159081918697"><ele>23.4</ele><time>2026-04-03T13:19:29Z</time></trkpt><trkpt lat="45.078023638901925" lon="10.587077669572984"><ele>23.2</ele><time>2026-04-03T13:19:30Z</time></trkpt><trkpt lat="45.07793823497823" lon="10.58700573602767"><ele>23.0</ele><time>2026-04-03T13:19:31Z</time></trkpt><trkpt lat="45.077855403954224" lon="10.586935969798324"><ele>23.0</ele><time>2026-04-03T13:19:32Z</time></trkpt><trkpt lat="45.07777209443968" lon="10.586865800377709"><ele>23.0</ele><time>2026-04-03T13:19:33Z</time></trkpt><trkpt lat="45.07768402680395" lon="10.586791782946301"><ele>23.0</ele><time>2026-04-03T13:19:34Z</time></trkpt><trkpt lat="45.07759341686793" lon="10.586715659461783"><ele>23.0</ele><time>2026-04-03T13:19:35Z</time></trkpt><trkpt lat="45.07750566352494" lon="10.586642116711932"><ele>23.0</ele><time>2026-04-03T13:19:36Z</time></trkpt><trkpt lat="45.077415701352926" lon="10.586567208942208"><ele>23.599999999999998</ele><time>2026-04-03T13:19:37Z</time></trkpt><trkpt lat="45.077320530506015" lon="10.586487964140339"><ele>24.2</ele><time>2026-04-03T13:19:38Z</time></trkpt><trkpt lat="45.07721458895828" lon="10.586419482548097"><ele>24.8</ele><time>2026-04-03T13:19:39Z</time></trkpt><trkpt lat="45.077122550816526" lon="10.586321227857647"><ele>25.4</ele><time>2026-04-03T13:19:40Z</time></trkpt><trkpt lat="45.077032488604075" lon="10.586242181711116"><ele>26.0</ele><time>2026-04-03T13:19:41Z</time></trkpt><trkpt lat="45.07696338836894" lon="10.58618136569798"><ele>25.499999999999996</ele><time>2026-04-03T13:19:42Z</time></trkpt><trkpt lat="45.07690212784194" lon="10.586126101653484"><ele>25.0</ele><time>2026-04-03T13:19:43Z</time></trkpt><trkpt lat="45.07684718125051" lon="10.586075804748281"><ele>24.5</ele><time>2026-04-03T13:19:44Z</time></trkpt><trkpt lat="45.07676147507023" lon="10.585997351207007"><ele>24.0</ele><time>2026-04-03T13:19:46Z</time></trkpt><trkpt lat="45.07671005465661" lon="10.585911562142012"><ele>23.5</ele><time>2026-04-03T13:19:49Z</time></trkpt><trkpt lat="45.07675760593577" lon="10.585795330491115"><ele>23.0</ele><time>2026-04-03T13:19:52Z</time></trkpt><trkpt lat="45.076824709977195" lon="10.585774769659366"><ele>23.0</ele><time>2026-04-03T13:20:02Z</time></trkpt><trkpt lat="45.076922261912394" lon="10.585767778998461"><ele>23.0</ele><time>2026-04-03T13:20:04Z</time></trkpt><trkpt lat="45.0770321306329" lon="10.585759161096064"><ele>23.0</ele><time>2026-04-03T13:20:06Z</time></trkpt><trkpt lat="45.07714667668356" lon="10.585747746050119"><ele>23.0</ele><time>2026-04-03T13:20:08Z</time></trkpt><trkpt lat="45.07727139773056" lon="10.585735935394887"><ele>23.0</ele><time>2026-04-03T13:20:10Z</time></trkpt><trkpt lat="45.077340532255455" lon="10.585730760298112"><ele>23.0</ele><time>2026-04-03T13:20:11Z</time></trkpt><trkpt lat="45.07740775717857" lon="10.58571845050703"><ele>23.0</ele><time>2026-04-03T13:20:12Z</time></trkpt><trkpt lat="45.07747953983388" lon="10.585704817550223"><ele>23.0</ele><time>2026-04-03T13:20:13Z</time></trkpt><trkpt lat="45.07754615537542" lon="10.585690343293551"><ele>23.0</ele><time>2026-04-03T13:20:14Z</time></trkpt><trkpt lat="45.077612430423805" lon="10.585679331825643"><ele>23.0</ele><time>2026-04-03T13:20:15Z</time></trkpt><trkpt lat="45.0776793764343" lon="10.585668198678764"><ele>23.0</ele><time>2026-04-03T13:20:16Z</time></trkpt><trkpt lat="45.077742968594656" lon="10.5856597668514"><ele>23.0</ele><time>2026-04-03T13:20:17Z</time></trkpt><trkpt lat="45.07785710237627" lon="10.585647765165527"><ele>22.2</ele><time>2026-04-03T13:20:19Z</time></trkpt><trkpt lat="45.0779723609345" lon="10.585637947157997"><ele>21.4</ele><time>2026-04-03T13:20:21Z</time></trkpt><trkpt lat="45.078041398873516" lon="10.585641494965765"><ele>20.599999999999998</ele><time>2026-04-03T13:20:23Z</time></trkpt><trkpt lat="45.07811137442156" lon="10.58563290525117"><ele>19.799999999999997</ele><time>2026-04-03T13:20:41.999Z</time></trkpt><trkpt lat="45.07822791832701" lon="10.585631687878791"><ele>19.0</ele><time>2026-04-03T13:20:43.999Z</time></trkpt><trkpt lat="45.07835056821159" lon="10.585635702733766"><ele>18.8</ele><time>2026-04-03T13:20:45.999Z</time></trkpt><trkpt lat="45.07845247254606" lon="10.585627013661352"><ele>18.599999999999998</ele><time>2026-04-03T13:20:47.999Z</time></trkpt><trkpt lat="45.07856983401906" lon="10.585611696569062"><ele>18.4</ele><time>2026-04-03T13:20:49.999Z</time></trkpt><trkpt lat="45.07867821470543" lon="10.585590299122165"><ele>18.2</ele><time>2026-04-03T13:20:51.999Z</time></trkpt><trkpt lat="45.07878599351567" lon="10.585536950706052"><ele>18.0</ele><time>2026-04-03T13:20:53.999Z</time></trkpt><trkpt lat="45.07887383850788" lon="10.585478143016003"><ele>18.0</ele><time>2026-04-03T13:20:55.999Z</time></trkpt><trkpt lat="45.0789283331729" lon="10.585431724940419"><ele>18.0</ele><time>2026-04-03T13:20:56.999Z</time></trkpt><trkpt lat="45.078983620056725" lon="10.58538622636354"><ele>18.0</ele><time>2026-04-03T13:20:57.999Z</time></trkpt><trkpt lat="45.079082677967975" lon="10.58529312109164"><ele>18.0</ele><time>2026-04-03T13:20:59.999Z</time></trkpt><trkpt lat="45.07918001272518" lon="10.585196997171245"><ele>18.0</ele><time>2026-04-03T13:21:01.999Z</time></trkpt><trkpt lat="45.07923730248388" lon="10.585145719926171"><ele>18.0</ele><time>2026-04-03T13:21:02.999Z</time></trkpt><trkpt lat="45.07929150340978" lon="10.585096693986104"><ele>18.0</ele><time>2026-04-03T13:21:03.999Z</time></trkpt><trkpt lat="45.079400235651875" lon="10.585009670594228"><ele>18.0</ele><time>2026-04-03T13:21:05.999Z</time></trkpt><trkpt lat="45.0794644536433" lon="10.584957532874405"><ele>18.0</ele><time>2026-04-03T13:21:06.999Z</time></trkpt><trkpt lat="45.079529906949595" lon="10.584907691047615"><ele>18.0</ele><time>2026-04-03T13:21:07.999Z</time></trkpt><trkpt lat="45.07959140784138" lon="10.584863534677304"><ele>18.0</ele><time>2026-04-03T13:21:08.999Z</time></trkpt><trkpt lat="45.07965015864573" lon="10.584826645610342"><ele>18.0</ele><time>2026-04-03T13:21:09.999Z</time></trkpt><trkpt lat="45.079709564916506" lon="10.58479381942421"><ele>18.000000000000004</ele><time>2026-04-03T13:21:10.999Z</time></trkpt><trkpt lat="45.07977415114371" lon="10.584761841228365"><ele>18.0</ele><time>2026-04-03T13:21:11.999Z</time></trkpt><trkpt lat="45.079841857072246" lon="10.584732629744751"><ele>18.0</ele><time>2026-04-03T13:21:12.999Z</time></trkpt><trkpt lat="45.0799113481615" lon="10.584705420678617"><ele>18.0</ele><time>2026-04-03T13:21:13.999Z</time></trkpt><trkpt lat="45.079982595260276" lon="10.584680974268542"><ele>18.0</ele><time>2026-04-03T13:21:14.999Z</time></trkpt><trkpt lat="45.08005215816311" lon="10.584662311670865"><ele>18.000000000000004</ele><time>2026-04-03T13:21:15.999Z</time></trkpt><trkpt lat="45.08012789589599" lon="10.584645062668486"><ele>18.0</ele><time>2026-04-03T13:21:16.999Z</time></trkpt><trkpt lat="45.08019110691361" lon="10.584622914794858"><ele>18.166666666666668</ele><time>2026-04-03T13:21:17.999Z</time></trkpt><trkpt lat="45.08025524206641" lon="10.584604555462313"><ele>18.333333333333332</ele><time>2026-04-03T13:21:18.999Z</time></trkpt><trkpt lat="45.08037872944788" lon="10.58456725055885"><ele>18.5</ele><time>2026-04-03T13:21:20.999Z</time></trkpt><trkpt lat="45.080451542730266" lon="10.584545609594711"><ele>18.666666666666664</ele><time>2026-04-03T13:21:21.999Z</time></trkpt><trkpt lat="45.08053253017028" lon="10.584526268070888"><ele>18.833333333333332</ele><time>2026-04-03T13:21:22.999Z</time></trkpt><trkpt lat="45.08060738646467" lon="10.584504435680849"><ele>19.0</ele><time>2026-04-03T13:21:23.999Z</time></trkpt><trkpt lat="45.08068207753759" lon="10.584485980125427"><ele>19.166666666666664</ele><time>2026-04-03T13:21:24.999Z</time></trkpt><trkpt lat="45.08075454894368" lon="10.584468339243994"><ele>19.333333333333332</ele><time>2026-04-03T13:21:25.999Z</time></trkpt><trkpt lat="45.08082497279259" lon="10.584460236080092"><ele>19.5</ele><time>2026-04-03T13:21:26.999Z</time></trkpt><trkpt lat="45.080888894558065" lon="10.58446040036871"><ele>19.666666666666668</ele><time>2026-04-03T13:21:27.999Z</time></trkpt><trkpt lat="45.081002133184484" lon="10.584464348885255"><ele>19.833333333333336</ele><time>2026-04-03T13:21:29.999Z</time></trkpt><trkpt lat="45.0810692117178" lon="10.584474647254298"><ele>20.0</ele><time>2026-04-03T13:21:30.999Z</time></trkpt><trkpt lat="45.08113831975583" lon="10.58449082933681"><ele>20.0</ele><time>2026-04-03T13:21:31.999Z</time></trkpt><trkpt lat="45.081207119855556" lon="10.584512918081606"><ele>20.0</ele><time>2026-04-03T13:21:33Z</time></trkpt><trkpt lat="45.081277537299556" lon="10.584535932998088"><ele>20.0</ele><time>2026-04-03T13:21:34Z</time></trkpt><trkpt lat="45.081350991356054" lon="10.584563476107236"><ele>20.0</ele><time>2026-04-03T13:21:35Z</time></trkpt><trkpt lat="45.08142068079419" lon="10.58460113454069"><ele>20.0</ele><time>2026-04-03T13:21:36Z</time></trkpt><trkpt lat="45.08148219004476" lon="10.584640724744709"><ele>20.0</ele><time>2026-04-03T13:21:37Z</time></trkpt><trkpt lat="45.081549300466186" lon="10.5846813142988"><ele>20.0</ele><time>2026-04-03T13:21:38Z</time></trkpt><trkpt lat="45.08162078691929" lon="10.584723720857564"><ele>20.166666666666668</ele><time>2026-04-03T13:21:39Z</time></trkpt><trkpt lat="45.081694039374" lon="10.584768345407824"><ele>20.333333333333336</ele><time>2026-04-03T13:21:40Z</time></trkpt><trkpt lat="45.08176429199676" lon="10.584815134258278"><ele>20.5</ele><time>2026-04-03T13:21:41Z</time></trkpt><trkpt lat="45.08183409531717" lon="10.584858325280553"><ele>20.666666666666668</ele><time>2026-04-03T13:21:42Z</time></trkpt><trkpt lat="45.08190713145018" lon="10.584899769214061"><ele>20.833333333333332</ele><time>2026-04-03T13:21:43Z</time></trkpt><trkpt lat="45.08198089317962" lon="10.58494516225363"><ele>21.0</ele><time>2026-04-03T13:21:44Z</time></trkpt><trkpt lat="45.082049369495294" lon="10.584990003333298"><ele>21.0</ele><time>2026-04-03T13:21:45Z</time></trkpt><trkpt lat="45.082114325649876" lon="10.585030927570111"><ele>21.0</ele><time>2026-04-03T13:21:46Z</time></trkpt><trkpt lat="45.082173381155485" lon="10.585066371603892"><ele>21.0</ele><time>2026-04-03T13:21:47Z</time></trkpt><trkpt lat="45.0822323072015" lon="10.585100047141248"><ele>21.0</ele><time>2026-04-03T13:21:48Z</time></trkpt><trkpt lat="45.08229394175943" lon="10.585138903807632"><ele>21.0</ele><time>2026-04-03T13:21:49Z</time></trkpt><trkpt lat="45.08235430317658" lon="10.585177242924507"><ele>21.0</ele><time>2026-04-03T13:21:50Z</time></trkpt><trkpt lat="45.082421330918756" lon="10.585218786665392"><ele>21.0</ele><time>2026-04-03T13:21:51Z</time></trkpt><trkpt lat="45.08249153816749" lon="10.585263086113574"><ele>20.833333333333332</ele><time>2026-04-03T13:21:52Z</time></trkpt><trkpt lat="45.08256690140804" lon="10.585307771681567"><ele>20.666666666666668</ele><time>2026-04-03T13:21:53Z</time></trkpt><trkpt lat="45.082639731048076" lon="10.585353136918762"><ele>20.5</ele><time>2026-04-03T13:21:54Z</time></trkpt><trkpt lat="45.08271211592008" lon="10.585396784976478"><ele>20.333333333333336</ele><time>2026-04-03T13:21:55Z</time></trkpt><trkpt lat="45.0827740347475" lon="10.585434510369497"><ele>20.166666666666668</ele><time>2026-04-03T13:21:56Z</time></trkpt><trkpt lat="45.082843115123595" lon="10.585477866401844"><ele>20.0</ele><time>2026-04-03T13:21:57Z</time></trkpt><trkpt lat="45.0829091299825" lon="10.585520305175177"><ele>20.0</ele><time>2026-04-03T13:21:58Z</time></trkpt><trkpt lat="45.08297241900712" lon="10.585561037606823"><ele>20.0</ele><time>2026-04-03T13:21:59Z</time></trkpt><trkpt lat="45.08304248168248" lon="10.585604337160559"><ele>20.0</ele><time>2026-04-03T13:22:00Z</time></trkpt><trkpt lat="45.08311181840371" lon="10.58564697612695"><ele>20.0</ele><time>2026-04-03T13:22:01Z</time></trkpt><trkpt lat="45.08318350689881" lon="10.585690791295788"><ele>20.0</ele><time>2026-04-03T13:22:02Z</time></trkpt><trkpt lat="45.083254617188686" lon="10.585735110886379"><ele>20.0</ele><time>2026-04-03T13:22:03Z</time></trkpt><trkpt lat="45.08332243585001" lon="10.585775384991798"><ele>20.0</ele><time>2026-04-03T13:22:04Z</time></trkpt><trkpt lat="45.08339510222588" lon="10.585818866482507"><ele>20.0</ele><time>2026-04-03T13:22:05Z</time></trkpt><trkpt lat="45.08346711763206" lon="10.585863714882628"><ele>20.0</ele><time>2026-04-03T13:22:06Z</time></trkpt><trkpt lat="45.083534739211295" lon="10.585906939386057"><ele>20.0</ele><time>2026-04-03T13:22:07Z</time></trkpt><trkpt lat="45.083648412719384" lon="10.585979830670803"><ele>20.0</ele><time>2026-04-03T13:22:09Z</time></trkpt><trkpt lat="45.08371707339298" lon="10.58601593464158"><ele>20.0</ele><time>2026-04-03T13:22:10Z</time></trkpt><trkpt lat="45.08378582114804" lon="10.586052337814493"><ele>20.0</ele><time>2026-04-03T13:22:11Z</time></trkpt><trkpt lat="45.08386116838681" lon="10.586083418924334"><ele>20.0</ele><time>2026-04-03T13:22:12Z</time></trkpt><trkpt lat="45.08394490780743" lon="10.586118765537144"><ele>20.0</ele><time>2026-04-03T13:22:13Z</time></trkpt><trkpt lat="45.08402261670872" lon="10.586146390530898"><ele>20.0</ele><time>2026-04-03T13:22:14Z</time></trkpt><trkpt lat="45.084096267790585" lon="10.586171114812268"><ele>20.0</ele><time>2026-04-03T13:22:15Z</time></trkpt><trkpt lat="45.08416533187591" lon="10.586189154588988"><ele>20.0</ele><time>2026-04-03T13:22:16Z</time></trkpt><trkpt lat="45.08423596890095" lon="10.586211165883809"><ele>19.5</ele><time>2026-04-03T13:22:17Z</time></trkpt><trkpt lat="45.08430494375694" lon="10.58623217495425"><ele>19.0</ele><time>2026-04-03T13:22:18Z</time></trkpt><trkpt lat="45.08437510296802" lon="10.586251681868086"><ele>18.5</ele><time>2026-04-03T13:22:19Z</time></trkpt><trkpt lat="45.084451217952065" lon="10.586271985901272"><ele>18.0</ele><time>2026-04-03T13:22:20Z</time></trkpt><trkpt lat="45.08452586208695" lon="10.586291914875495"><ele>17.5</ele><time>2026-04-03T13:22:21Z</time></trkpt><trkpt lat="45.08460390994544" lon="10.586313566511302"><ele>17.0</ele><time>2026-04-03T13:22:22Z</time></trkpt><trkpt lat="45.084685879892994" lon="10.586338829742166"><ele>17.0</ele><time>2026-04-03T13:22:23Z</time></trkpt><trkpt lat="45.0847562181553" lon="10.586358999102623"><ele>17.0</ele><time>2026-04-03T13:22:24Z</time></trkpt><trkpt lat="45.084832731579816" lon="10.586380226569103"><ele>17.0</ele><time>2026-04-03T13:22:25Z</time></trkpt><trkpt lat="45.08490943856957" lon="10.586401103855719"><ele>17.0</ele><time>2026-04-03T13:22:26Z</time></trkpt><trkpt lat="45.08498730176349" lon="10.586423849880921"><ele>17.0</ele><time>2026-04-03T13:22:27Z</time></trkpt><trkpt lat="45.085069170450716" lon="10.586449113046852"><ele>17.0</ele><time>2026-04-03T13:22:28Z</time></trkpt><trkpt lat="45.085145249502176" lon="10.586474138183592"><ele>17.333333333333336</ele><time>2026-04-03T13:22:29Z</time></trkpt><trkpt lat="45.08522134849866" lon="10.586496021925349"><ele>17.666666666666668</ele><time>2026-04-03T13:22:30Z</time></trkpt><trkpt lat="45.08529936056953" lon="10.586519967448488"><ele>18.0</ele><time>2026-04-03T13:22:31Z</time></trkpt><trkpt lat="45.085373724272564" lon="10.586537996700283"><ele>18.333333333333332</ele><time>2026-04-03T13:22:32Z</time></trkpt><trkpt lat="45.085440501145804" lon="10.58655566675137"><ele>18.666666666666664</ele><time>2026-04-03T13:22:33Z</time></trkpt><trkpt lat="45.085516511329516" lon="10.586577835675275"><ele>19.0</ele><time>2026-04-03T13:22:34Z</time></trkpt><trkpt lat="45.08559037183492" lon="10.586599596911825"><ele>19.0</ele><time>2026-04-03T13:22:35Z</time></trkpt><trkpt lat="45.085663340528626" lon="10.586623399629795"><ele>19.0</ele><time>2026-04-03T13:22:36Z</time></trkpt><trkpt lat="45.08573755630784" lon="10.586649101693608"><ele>19.0</ele><time>2026-04-03T13:22:37Z</time></trkpt><trkpt lat="45.08581014842143" lon="10.586676303972613"><ele>19.0</ele><time>2026-04-03T13:22:38Z</time></trkpt><trkpt lat="45.08588108384845" lon="10.586702733646957"><ele>19.0</ele><time>2026-04-03T13:22:39Z</time></trkpt><trkpt lat="45.08595870975927" lon="10.586731821021532"><ele>19.0</ele><time>2026-04-03T13:22:40Z</time></trkpt><trkpt lat="45.08602185357546" lon="10.586753875442554"><ele>19.0</ele><time>2026-04-03T13:22:41Z</time></trkpt><trkpt lat="45.08608472058423" lon="10.586775476658453"><ele>19.0</ele><time>2026-04-03T13:22:42Z</time></trkpt><trkpt lat="45.086147146996936" lon="10.586798594800927"><ele>19.0</ele><time>2026-04-03T13:22:43Z</time></trkpt><trkpt lat="45.086208847983286" lon="10.58682179049548"><ele>19.0</ele><time>2026-04-03T13:22:44Z</time></trkpt><trkpt lat="45.086333965019904" lon="10.586861296315151"><ele>19.0</ele><time>2026-04-03T13:22:46Z</time></trkpt><trkpt lat="45.08646262081377" lon="10.586884721406168"><ele>19.0</ele><time>2026-04-03T13:22:48Z</time></trkpt><trkpt lat="45.08653251177829" lon="10.586883212465976"><ele>18.71428571428571</ele><time>2026-04-03T13:22:49Z</time></trkpt><trkpt lat="45.08659731360781" lon="10.586876439062822"><ele>18.42857142857143</ele><time>2026-04-03T13:22:50Z</time></trkpt><trkpt lat="45.086661907456666" lon="10.586861125938313"><ele>18.142857142857142</ele><time>2026-04-03T13:22:51Z</time></trkpt><trkpt lat="45.08672515458789" lon="10.586837319738168"><ele>17.857142857142854</ele><time>2026-04-03T13:22:52Z</time></trkpt><trkpt lat="45.08679608641433" lon="10.586804396616271"><ele>17.57142857142857</ele><time>2026-04-03T13:22:53Z</time></trkpt><trkpt lat="45.08686797383836" lon="10.586768426215752"><ele>17.285714285714285</ele><time>2026-04-03T13:22:54Z</time></trkpt><trkpt lat="45.086935471314064" lon="10.586737963693679"><ele>17.0</ele><time>2026-04-03T13:22:55Z</time></trkpt><trkpt lat="45.08700247048056" lon="10.58670077731996"><ele>16.999999999999996</ele><time>2026-04-03T13:22:56Z</time></trkpt><trkpt lat="45.08706770509347" lon="10.586669139946832"><ele>17.0</ele><time>2026-04-03T13:22:57Z</time></trkpt><trkpt lat="45.08713590071106" lon="10.586644341039273"><ele>17.0</ele><time>2026-04-03T13:22:58Z</time></trkpt><trkpt lat="45.087212109957285" lon="10.586625201488898"><ele>17.0</ele><time>2026-04-03T13:22:59Z</time></trkpt><trkpt lat="45.087284856433236" lon="10.586608441514644"><ele>17.0</ele><time>2026-04-03T13:22:59.999Z</time></trkpt><trkpt lat="45.08736065275481" lon="10.586594988881211"><ele>16.999999999999996</ele><time>2026-04-03T13:23:00.999Z</time></trkpt><trkpt lat="45.08743065792478" lon="10.586587086108905"><ele>17.0</ele><time>2026-04-03T13:23:01.999Z</time></trkpt><trkpt lat="45.08750555072315" lon="10.586576996277861"><ele>17.333333333333336</ele><time>2026-04-03T13:23:02.999Z</time></trkpt><trkpt lat="45.08757517067877" lon="10.58656863655876"><ele>17.666666666666668</ele><time>2026-04-03T13:23:03.999Z</time></trkpt><trkpt lat="45.08765007078461" lon="10.58656032576121"><ele>18.0</ele><time>2026-04-03T13:23:04.999Z</time></trkpt><trkpt lat="45.08774026362065" lon="10.58655049366371"><ele>18.333333333333332</ele><time>2026-04-03T13:23:05.999Z</time></trkpt><trkpt lat="45.08782966335666" lon="10.58654862980836"><ele>18.666666666666664</ele><time>2026-04-03T13:23:06.999Z</time></trkpt><trkpt lat="45.08790766830583" lon="10.586544491751232"><ele>19.0</ele><time>2026-04-03T13:23:07.999Z</time></trkpt><trkpt lat="45.08799082101256" lon="10.586542874417937"><ele>19.0</ele><time>2026-04-03T13:23:08.999Z</time></trkpt><trkpt lat="45.08806824922588" lon="10.586544953078535"><ele>19.0</ele><time>2026-04-03T13:23:09.999Z</time></trkpt><trkpt lat="45.08814657811722" lon="10.586548005438262"><ele>19.0</ele><time>2026-04-03T13:23:10.999Z</time></trkpt><trkpt lat="45.088226068045316" lon="10.58655238994356"><ele>19.0</ele><time>2026-04-03T13:23:11.999Z</time></trkpt><trkpt lat="45.08830718676592" lon="10.586556404844687"><ele>19.0</ele><time>2026-04-03T13:23:12.999Z</time></trkpt><trkpt lat="45.08838997694629" lon="10.586562746770706"><ele>19.0</ele><time>2026-04-03T13:23:13.999Z</time></trkpt><trkpt lat="45.088470192302594" lon="10.58656870403347"><ele>19.333333333333332</ele><time>2026-04-03T13:23:14.999Z</time></trkpt><trkpt lat="45.08854871906358" lon="10.58657372281193"><ele>19.666666666666664</ele><time>2026-04-03T13:23:15.999Z</time></trkpt><trkpt lat="45.08862851154515" lon="10.58657791746162"><ele>20.0</ele><time>2026-04-03T13:23:16.999Z</time></trkpt><trkpt lat="45.08870273388056" lon="10.586578404636754"><ele>20.333333333333332</ele><time>2026-04-03T13:23:17.999Z</time></trkpt><trkpt lat="45.08876904428464" lon="10.586580092896865"><ele>20.666666666666668</ele><time>2026-04-03T13:23:18.999Z</time></trkpt><trkpt lat="45.088851188255596" lon="10.586576451953174"><ele>21.0</ele><time>2026-04-03T13:23:19.999Z</time></trkpt><trkpt lat="45.08893794641918" lon="10.586573079694434"><ele>21.0</ele><time>2026-04-03T13:23:20.999Z</time></trkpt><trkpt lat="45.08902463904718" lon="10.586567637371362"><ele>21.0</ele><time>2026-04-03T13:23:21.999Z</time></trkpt><trkpt lat="45.08911523994614" lon="10.586555894955827"><ele>21.0</ele><time>2026-04-03T13:23:22.999Z</time></trkpt><trkpt lat="45.08919776391218" lon="10.58655405486037"><ele>21.0</ele><time>2026-04-03T13:23:23.999Z</time></trkpt><trkpt lat="45.0892811934543" lon="10.586552159056392"><ele>21.0</ele><time>2026-04-03T13:23:24.999Z</time></trkpt><trkpt lat="45.08934771145306" lon="10.586552405181973"><ele>21.0</ele><time>2026-04-03T13:23:25.999Z</time></trkpt><trkpt lat="45.089417829831916" lon="10.586549800437481"><ele>21.0</ele><time>2026-04-03T13:23:26.999Z</time></trkpt><trkpt lat="45.08948877901322" lon="10.586557540135203"><ele>21.0</ele><time>2026-04-03T13:23:27.999Z</time></trkpt><trkpt lat="45.08956634375307" lon="10.586566210428034"><ele>21.0</ele><time>2026-04-03T13:23:28.999Z</time></trkpt><trkpt lat="45.08963893785602" lon="10.586576771037612"><ele>21.0</ele><time>2026-04-03T13:23:29.999Z</time></trkpt><trkpt lat="45.08971123528374" lon="10.586584812034118"><ele>21.0</ele><time>2026-04-03T13:23:30.999Z</time></trkpt><trkpt lat="45.08978467284534" lon="10.586594791229983"><ele>21.0</ele><time>2026-04-03T13:23:31.999Z</time></trkpt><trkpt lat="45.08986450861832" lon="10.586610681479732"><ele>21.0</ele><time>2026-04-03T13:23:32.999Z</time></trkpt><trkpt lat="45.0899456810946" lon="10.586625219729637"><ele>21.0</ele><time>2026-04-03T13:23:33.999Z</time></trkpt><trkpt lat="45.09002400628675" lon="10.586634987409056"><ele>21.0</ele><time>2026-04-03T13:23:34.999Z</time></trkpt><trkpt lat="45.09009451008823" lon="10.586643560301646"><ele>21.0</ele><time>2026-04-03T13:23:35.999Z</time></trkpt><trkpt lat="45.090165880900635" lon="10.586649039812288"><ele>21.0</ele><time>2026-04-03T13:23:36.999Z</time></trkpt><trkpt lat="45.090237803717415" lon="10.586650202245366"><ele>21.0</ele><time>2026-04-03T13:23:37.999Z</time></trkpt><trkpt lat="45.09031342888045" lon="10.586645304735084"><ele>21.0</ele><time>2026-04-03T13:23:39Z</time></trkpt><trkpt lat="45.0903855909566" lon="10.586643596574737"><ele>21.0</ele><time>2026-04-03T13:23:40Z</time></trkpt><trkpt lat="45.09044962386012" lon="10.586639301833836"><ele>21.0</ele><time>2026-04-03T13:23:41Z</time></trkpt><trkpt lat="45.090514842430295" lon="10.586634035266492"><ele>21.0</ele><time>2026-04-03T13:23:42Z</time></trkpt><trkpt lat="45.09058328006115" lon="10.586625515201531"><ele>21.0</ele><time>2026-04-03T13:23:43Z</time></trkpt><trkpt lat="45.09066186274807" lon="10.586610352327082"><ele>21.0</ele><time>2026-04-03T13:23:44Z</time></trkpt><trkpt lat="45.09074142455793" lon="10.586593051726657"><ele>21.0</ele><time>2026-04-03T13:23:45Z</time></trkpt><trkpt lat="45.09083832455562" lon="10.586574285442705"><ele>21.0</ele><time>2026-04-03T13:23:46Z</time></trkpt><trkpt lat="45.090922429986044" lon="10.586555620390142"><ele>21.166666666666668</ele><time>2026-04-03T13:23:47Z</time></trkpt><trkpt lat="45.09099827140149" lon="10.586541748100556"><ele>21.333333333333332</ele><time>2026-04-03T13:23:48Z</time></trkpt><trkpt lat="45.09107231634378" lon="10.586528557224637"><ele>21.5</ele><time>2026-04-03T13:23:49Z</time></trkpt><trkpt lat="45.09114664958315" lon="10.586515321846365"><ele>21.666666666666664</ele><time>2026-04-03T13:23:50Z</time></trkpt><trkpt lat="45.09121938868239" lon="10.58650445050912"><ele>21.833333333333332</ele><time>2026-04-03T13:23:51Z</time></trkpt><trkpt lat="45.091291540585416" lon="10.586497979815958"><ele>22.0</ele><time>2026-04-03T13:23:52Z</time></trkpt><trkpt lat="45.091371443950834" lon="10.586493100945523"><ele>22.0</ele><time>2026-04-03T13:23:53Z</time></trkpt><trkpt lat="45.09145028995567" lon="10.586495378013515"><ele>22.0</ele><time>2026-04-03T13:23:54Z</time></trkpt><trkpt lat="45.091527789430685" lon="10.586500458891487"><ele>22.0</ele><time>2026-04-03T13:23:55Z</time></trkpt><trkpt lat="45.09160353437361" lon="10.586516693205322"><ele>22.0</ele><time>2026-04-03T13:23:56Z</time></trkpt><trkpt lat="45.09168461137198" lon="10.58653721188555"><ele>22.0</ele><time>2026-04-03T13:23:57Z</time></trkpt><trkpt lat="45.091761937660465" lon="10.586562878857055"><ele>22.0</ele><time>2026-04-03T13:23:58Z</time></trkpt><trkpt lat="45.09184807452711" lon="10.586591277198883"><ele>21.666666666666664</ele><time>2026-04-03T13:23:59Z</time></trkpt><trkpt lat="45.091923351347326" lon="10.586617791836419"><ele>21.333333333333332</ele><time>2026-04-03T13:24:00Z</time></trkpt><trkpt lat="45.091999533059415" lon="10.58664281334525"><ele>21.0</ele><time>2026-04-03T13:24:01Z</time></trkpt><trkpt lat="45.092068733457594" lon="10.586665484432354"><ele>20.666666666666668</ele><time>2026-04-03T13:24:02Z</time></trkpt><trkpt lat="45.09214146414201" lon="10.586688245948771"><ele>20.333333333333336</ele><time>2026-04-03T13:24:03Z</time></trkpt><trkpt lat="45.09221426564406" lon="10.58671620921413"><ele>20.0</ele><time>2026-04-03T13:24:04Z</time></trkpt><trkpt lat="45.09228817565819" lon="10.58674320435389"><ele>20.0</ele><time>2026-04-03T13:24:05Z</time></trkpt><trkpt lat="45.09235821142771" lon="10.586768514109124"><ele>20.0</ele><time>2026-04-03T13:24:06Z</time></trkpt><trkpt lat="45.09242863641721" lon="10.586795778091515"><ele>20.0</ele><time>2026-04-03T13:24:07Z</time></trkpt><trkpt lat="45.09249813403043" lon="10.5868152023417"><ele>20.0</ele><time>2026-04-03T13:24:08Z</time></trkpt><trkpt lat="45.09257429551347" lon="10.586840942905798"><ele>20.0</ele><time>2026-04-03T13:24:09Z</time></trkpt><trkpt lat="45.092654080245765" lon="10.586871769444897"><ele>20.0</ele><time>2026-04-03T13:24:10Z</time></trkpt><trkpt lat="45.09273335004709" lon="10.586901826756593"><ele>20.166666666666668</ele><time>2026-04-03T13:24:11Z</time></trkpt><trkpt lat="45.09281702159332" lon="10.586931489868977"><ele>20.333333333333336</ele><time>2026-04-03T13:24:12Z</time></trkpt><trkpt lat="45.092890787134245" lon="10.586953490735144"><ele>20.5</ele><time>2026-04-03T13:24:13Z</time></trkpt><trkpt lat="45.09296289218269" lon="10.5869776956529"><ele>20.666666666666668</ele><time>2026-04-03T13:24:14Z</time></trkpt><trkpt lat="45.09303604881214" lon="10.587000172731587"><ele>20.833333333333332</ele><time>2026-04-03T13:24:15Z</time></trkpt><trkpt lat="45.09310826588132" lon="10.587016615942611"><ele>21.0</ele><time>2026-04-03T13:24:16Z</time></trkpt><trkpt lat="45.09318197716983" lon="10.58702961340769"><ele>20.666666666666668</ele><time>2026-04-03T13:24:17Z</time></trkpt><trkpt lat="45.09325834613155" lon="10.587039229786914"><ele>20.333333333333332</ele><time>2026-04-03T13:24:18Z</time></trkpt><trkpt lat="45.09333549861874" lon="10.587042868040815"><ele>20.0</ele><time>2026-04-03T13:24:19Z</time></trkpt><trkpt lat="45.09341495736885" lon="10.587042481181443"><ele>19.666666666666664</ele><time>2026-04-03T13:24:20Z</time></trkpt><trkpt lat="45.09349705146478" lon="10.587037564539967"><ele>19.333333333333332</ele><time>2026-04-03T13:24:21Z</time></trkpt><trkpt lat="45.09357909266875" lon="10.587029465455467"><ele>19.0</ele><time>2026-04-03T13:24:22Z</time></trkpt><trkpt lat="45.09365644536258" lon="10.587012114441999"><ele>19.333333333333332</ele><time>2026-04-03T13:24:23Z</time></trkpt><trkpt lat="45.09373518916642" lon="10.58699714108886"><ele>19.666666666666664</ele><time>2026-04-03T13:24:24Z</time></trkpt><trkpt lat="45.0938174419834" lon="10.586983460150256"><ele>20.0</ele><time>2026-04-03T13:24:25Z</time></trkpt><trkpt lat="45.09389923035581" lon="10.5869681992584"><ele>20.333333333333332</ele><time>2026-04-03T13:24:26Z</time></trkpt><trkpt lat="45.09398245494026" lon="10.586953112221684"><ele>20.666666666666668</ele><time>2026-04-03T13:24:27Z</time></trkpt><trkpt lat="45.094058155294206" lon="10.586934503790788"><ele>21.0</ele><time>2026-04-03T13:24:28Z</time></trkpt><trkpt lat="45.094140060724314" lon="10.586918174249142"><ele>21.166666666666668</ele><time>2026-04-03T13:24:29Z</time></trkpt><trkpt lat="45.094212041820896" lon="10.586899945539745"><ele>21.333333333333332</ele><time>2026-04-03T13:24:30Z</time></trkpt><trkpt lat="45.09429235279623" lon="10.58688199203448"><ele>21.5</ele><time>2026-04-03T13:24:31Z</time></trkpt><trkpt lat="45.09436868916747" lon="10.586862983518003"><ele>21.666666666666664</ele><time>2026-04-03T13:24:32Z</time></trkpt><trkpt lat="45.09444236182542" lon="10.586844174449785"><ele>21.833333333333332</ele><time>2026-04-03T13:24:33Z</time></trkpt><trkpt lat="45.094518411251826" lon="10.586820022095017"><ele>22.0</ele><time>2026-04-03T13:24:34Z</time></trkpt><trkpt lat="45.09459525702368" lon="10.586791009641024"><ele>22.0</ele><time>2026-04-03T13:24:35Z</time></trkpt><trkpt lat="45.09466871975391" lon="10.586759263846357"><ele>22.0</ele><time>2026-04-03T13:24:36Z</time></trkpt><trkpt lat="45.09474281851631" lon="10.58672548647028"><ele>22.0</ele><time>2026-04-03T13:24:37Z</time></trkpt><trkpt lat="45.094818521882694" lon="10.586695298391216"><ele>22.0</ele><time>2026-04-03T13:24:38Z</time></trkpt><trkpt lat="45.09489811737516" lon="10.586661590964052"><ele>22.0</ele><time>2026-04-03T13:24:39Z</time></trkpt><trkpt lat="45.09497916517181" lon="10.586628922077477"><ele>22.0</ele><time>2026-04-03T13:24:40Z</time></trkpt><trkpt lat="45.09505799362064" lon="10.586595711516997"><ele>21.833333333333332</ele><time>2026-04-03T13:24:41Z</time></trkpt><trkpt lat="45.095136622649164" lon="10.586562395659938"><ele>21.666666666666664</ele><time>2026-04-03T13:24:42Z</time></trkpt><trkpt lat="45.09520832043248" lon="10.586530753151308"><ele>21.5</ele><time>2026-04-03T13:24:43Z</time></trkpt><trkpt lat="45.09528986644238" lon="10.586495401661102"><ele>21.333333333333332</ele><time>2026-04-03T13:24:44Z</time></trkpt><trkpt lat="45.09536707169021" lon="10.586457233434931"><ele>21.166666666666668</ele><time>2026-04-03T13:24:45Z</time></trkpt><trkpt lat="45.095443164322546" lon="10.586422570854833"><ele>21.0</ele><time>2026-04-03T13:24:46Z</time></trkpt><trkpt lat="45.095520964672225" lon="10.586384154926195"><ele>21.0</ele><time>2026-04-03T13:24:47Z</time></trkpt><trkpt lat="45.09558845024855" lon="10.586350676790877"><ele>21.0</ele><time>2026-04-03T13:24:48Z</time></trkpt><trkpt lat="45.095657750120495" lon="10.586319407510839"><ele>21.0</ele><time>2026-04-03T13:24:48.999Z</time></trkpt><trkpt lat="45.095724702015566" lon="10.586289137613052"><ele>21.0</ele><time>2026-04-03T13:24:49.999Z</time></trkpt><trkpt lat="45.09579334748983" lon="10.58625400396928"><ele>21.0</ele><time>2026-04-03T13:24:50.999Z</time></trkpt><trkpt lat="45.095861908288654" lon="10.586213618397057"><ele>21.0</ele><time>2026-04-03T13:24:51.999Z</time></trkpt><trkpt lat="45.09593120657928" lon="10.586175940317196"><ele>21.0</ele><time>2026-04-03T13:24:52.999Z</time></trkpt><trkpt lat="45.096053781700434" lon="10.586093769964277"><ele>21.166666666666668</ele><time>2026-04-03T13:24:54.999Z</time></trkpt><trkpt lat="45.0961237188046" lon="10.586041662327975"><ele>21.333333333333332</ele><time>2026-04-03T13:24:55.999Z</time></trkpt><trkpt lat="45.096195856221065" lon="10.585985743450777"><ele>21.5</ele><time>2026-04-03T13:24:56.999Z</time></trkpt><trkpt lat="45.0962632899673" lon="10.585927996427408"><ele>21.666666666666664</ele><time>2026-04-03T13:24:57.999Z</time></trkpt><trkpt lat="45.09633436700324" lon="10.585863322015499"><ele>21.833333333333332</ele><time>2026-04-03T13:24:58.999Z</time></trkpt><trkpt lat="45.0964023340496" lon="10.585797880533528"><ele>22.0</ele><time>2026-04-03T13:24:59.999Z</time></trkpt><trkpt lat="45.09647315061778" lon="10.58573155061702"><ele>22.0</ele><time>2026-04-03T13:25:00.999Z</time></trkpt><trkpt lat="45.0965347925667" lon="10.585669638914734"><ele>22.0</ele><time>2026-04-03T13:25:01.999Z</time></trkpt><trkpt lat="45.096588163906645" lon="10.58561585540785"><ele>22.0</ele><time>2026-04-03T13:25:02.999Z</time></trkpt><trkpt lat="45.096641540673126" lon="10.585561874977893"><ele>22.0</ele><time>2026-04-03T13:25:03.999Z</time></trkpt><trkpt lat="45.09669691792151" lon="10.585505841863512"><ele>22.0</ele><time>2026-04-03T13:25:04.999Z</time></trkpt><trkpt lat="45.096758193909" lon="10.585442622113394"><ele>22.0</ele><time>2026-04-03T13:25:05.999Z</time></trkpt><trkpt lat="45.09681886933006" lon="10.585377767843712"><ele>22.0</ele><time>2026-04-03T13:25:06.999Z</time></trkpt><trkpt lat="45.09688261718247" lon="10.585314344353545"><ele>21.857142857142858</ele><time>2026-04-03T13:25:07.999Z</time></trkpt><trkpt lat="45.09694303872347" lon="10.58525117756563"><ele>21.714285714285715</ele><time>2026-04-03T13:25:08.999Z</time></trkpt><trkpt lat="45.0969985758429" lon="10.585188483270569"><ele>21.57142857142857</ele><time>2026-04-03T13:25:09.999Z</time></trkpt><trkpt lat="45.09704996077512" lon="10.585125221386079"><ele>21.42857142857143</ele><time>2026-04-03T13:25:10.999Z</time></trkpt><trkpt lat="45.09710321110213" lon="10.585063366577833"><ele>21.285714285714285</ele><time>2026-04-03T13:25:11.999Z</time></trkpt><trkpt lat="45.097157079046035" lon="10.584996181817745"><ele>21.142857142857142</ele><time>2026-04-03T13:25:12.999Z</time></trkpt><trkpt lat="45.09721087109085" lon="10.584927752898283"><ele>21.0</ele><time>2026-04-03T13:25:13.999Z</time></trkpt><trkpt lat="45.09726658836112" lon="10.584855651993077"><ele>21.0</ele><time>2026-04-03T13:25:14.999Z</time></trkpt><trkpt lat="45.09732344429337" lon="10.584779215096045"><ele>21.0</ele><time>2026-04-03T13:25:15.999Z</time></trkpt><trkpt lat="45.09737537382208" lon="10.584707252800074"><ele>21.0</ele><time>2026-04-03T13:25:16.999Z</time></trkpt><trkpt lat="45.09742582829251" lon="10.584637358967367"><ele>21.0</ele><time>2026-04-03T13:25:17.999Z</time></trkpt><trkpt lat="45.09751382065658" lon="10.584502504706597"><ele>21.0</ele><time>2026-04-03T13:25:19.999Z</time></trkpt><trkpt lat="45.097565863886096" lon="10.584421091852862"><ele>21.0</ele><time>2026-04-03T13:25:20.999Z</time></trkpt><trkpt lat="45.09762168164003" lon="10.584341172743732"><ele>20.857142857142858</ele><time>2026-04-03T13:25:21.999Z</time></trkpt><trkpt lat="45.09767407822068" lon="10.584260652615201"><ele>20.714285714285715</ele><time>2026-04-03T13:25:22.999Z</time></trkpt><trkpt lat="45.09772528254922" lon="10.584183359397459"><ele>20.57142857142857</ele><time>2026-04-03T13:25:23.999Z</time></trkpt><trkpt lat="45.09777585957202" lon="10.584105416383284"><ele>20.42857142857143</ele><time>2026-04-03T13:25:24.999Z</time></trkpt><trkpt lat="45.097823209122396" lon="10.584031645267219"><ele>20.285714285714285</ele><time>2026-04-03T13:25:25.999Z</time></trkpt><trkpt lat="45.097875007577294" lon="10.583952706505013"><ele>20.142857142857142</ele><time>2026-04-03T13:25:26.999Z</time></trkpt><trkpt lat="45.09792751036594" lon="10.583877198959577"><ele>20.0</ele><time>2026-04-03T13:25:27.999Z</time></trkpt><trkpt lat="45.097978265077465" lon="10.583799739525242"><ele>20.0</ele><time>2026-04-03T13:25:28.999Z</time></trkpt><trkpt lat="45.098022582069454" lon="10.583726062134756"><ele>20.0</ele><time>2026-04-03T13:25:29.999Z</time></trkpt><trkpt lat="45.09806922977016" lon="10.583659158471258"><ele>20.0</ele><time>2026-04-03T13:25:30.999Z</time></trkpt><trkpt lat="45.09811696075831" lon="10.583584632206422"><ele>20.0</ele><time>2026-04-03T13:25:31.999Z</time></trkpt><trkpt lat="45.09816056261881" lon="10.583515919987535"><ele>20.0</ele><time>2026-04-03T13:25:32.999Z</time></trkpt><trkpt lat="45.09820469663751" lon="10.5834483166462"><ele>20.0</ele><time>2026-04-03T13:25:33.999Z</time></trkpt><trkpt lat="45.0982514315341" lon="10.58337906186005"><ele>20.0</ele><time>2026-04-03T13:25:34.999Z</time></trkpt><trkpt lat="45.09830154576465" lon="10.583309409156374"><ele>20.2</ele><time>2026-04-03T13:25:35.999Z</time></trkpt><trkpt lat="45.09837967244118" lon="10.58318569774512"><ele>20.4</ele><time>2026-04-03T13:25:37.999Z</time></trkpt><trkpt lat="45.098449128074435" lon="10.58307717271481"><ele>20.6</ele><time>2026-04-03T13:25:39.999Z</time></trkpt><trkpt lat="45.09851390005423" lon="10.582975441792485"><ele>20.8</ele><time>2026-04-03T13:25:41.999Z</time></trkpt><trkpt lat="45.09857277741874" lon="10.582878204424002"><ele>21.0</ele><time>2026-04-03T13:25:43.999Z</time></trkpt><trkpt lat="45.09863338349417" lon="10.582785118686052"><ele>20.6</ele><time>2026-04-03T13:25:45.999Z</time></trkpt><trkpt lat="45.098696626408596" lon="10.582668701464026"><ele>20.200000000000003</ele><time>2026-04-03T13:25:47.999Z</time></trkpt><trkpt lat="45.09875498073042" lon="10.58255887313885"><ele>19.799999999999997</ele><time>2026-04-03T13:25:49.999Z</time></trkpt><trkpt lat="45.09880585099723" lon="10.582469396144"><ele>19.4</ele><time>2026-04-03T13:25:51.999Z</time></trkpt><trkpt lat="45.09885228188908" lon="10.582373669890922"><ele>19.0</ele><time>2026-04-03T13:25:53.999Z</time></trkpt><trkpt lat="45.09890559685993" lon="10.582261775272173"><ele>19.0</ele><time>2026-04-03T13:25:55.999Z</time></trkpt><trkpt lat="45.09897138098244" lon="10.582135470497628"><ele>19.0</ele><time>2026-04-03T13:25:58Z</time></trkpt><trkpt lat="45.099040865381376" lon="10.58200371418353"><ele>19.0</ele><time>2026-04-03T13:26:00Z</time></trkpt><trkpt lat="45.09911331307939" lon="10.581873115206829"><ele>19.0</ele><time>2026-04-03T13:26:02Z</time></trkpt><trkpt lat="45.09916770698409" lon="10.5817570879208"><ele>19.0</ele><time>2026-04-03T13:26:04Z</time></trkpt><trkpt lat="45.09920733268547" lon="10.58161926550289"><ele>19.2</ele><time>2026-04-03T13:26:06Z</time></trkpt><trkpt lat="45.099215994628665" lon="10.581486864543464"><ele>19.4</ele><time>2026-04-03T13:26:08Z</time></trkpt><trkpt lat="45.099222471803735" lon="10.581335075683732"><ele>19.6</ele><time>2026-04-03T13:26:10Z</time></trkpt><trkpt lat="45.09925224173531" lon="10.581189189314072"><ele>19.8</ele><time>2026-04-03T13:26:12Z</time></trkpt><trkpt lat="45.099308366921456" lon="10.581061280683828"><ele>20.0</ele><time>2026-04-03T13:26:14Z</time></trkpt><trkpt lat="45.09938135618487" lon="10.58093757903263"><ele>20.0</ele><time>2026-04-03T13:26:16Z</time></trkpt><trkpt lat="45.09942532194707" lon="10.580868932821893"><ele>20.0</ele><time>2026-04-03T13:26:17Z</time></trkpt><trkpt lat="45.09946919145784" lon="10.580804075747938"><ele>20.0</ele><time>2026-04-03T13:26:18Z</time></trkpt><trkpt lat="45.09952000775173" lon="10.580739843118415"><ele>20.0</ele><time>2026-04-03T13:26:19Z</time></trkpt><trkpt lat="45.09956799549705" lon="10.580679789477081"><ele>20.0</ele><time>2026-04-03T13:26:20Z</time></trkpt><trkpt lat="45.099665500975696" lon="10.580546444297925"><ele>20.0</ele><time>2026-04-03T13:26:22Z</time></trkpt><trkpt lat="45.09972045267089" lon="10.580472690589335"><ele>20.0</ele><time>2026-04-03T13:26:23Z</time></trkpt><trkpt lat="45.0997783190656" lon="10.580399298006032"><ele>20.0</ele><time>2026-04-03T13:26:24Z</time></trkpt><trkpt lat="45.09983623499864" lon="10.580324319274764"><ele>20.0</ele><time>2026-04-03T13:26:25Z</time></trkpt><trkpt lat="45.09988836230915" lon="10.580253823470926"><ele>20.0</ele><time>2026-04-03T13:26:26Z</time></trkpt><trkpt lat="45.09993683035796" lon="10.580191500696824"><ele>20.0</ele><time>2026-04-03T13:26:27Z</time></trkpt><trkpt lat="45.09998547924092" lon="10.58012504935271"><ele>20.0</ele><time>2026-04-03T13:26:28Z</time></trkpt><trkpt lat="45.100033878715244" lon="10.58006220901329"><ele>20.0</ele><time>2026-04-03T13:26:29Z</time></trkpt><trkpt lat="45.100126180823544" lon="10.579947210778833"><ele>20.142857142857142</ele><time>2026-04-03T13:26:31Z</time></trkpt><trkpt lat="45.100174117379545" lon="10.579884589859864"><ele>20.285714285714285</ele><time>2026-04-03T13:26:32Z</time></trkpt><trkpt lat="45.10022455288121" lon="10.57982433765487"><ele>20.42857142857143</ele><time>2026-04-03T13:26:33Z</time></trkpt><trkpt lat="45.100279764007276" lon="10.579758036058402"><ele>20.57142857142857</ele><time>2026-04-03T13:26:34Z</time></trkpt><trkpt lat="45.10033213973589" lon="10.57969616997114"><ele>20.714285714285715</ele><time>2026-04-03T13:26:35Z</time></trkpt><trkpt lat="45.10038364580566" lon="10.57963003229085"><ele>20.857142857142858</ele><time>2026-04-03T13:26:36Z</time></trkpt><trkpt lat="45.10043707668657" lon="10.57956593999725"><ele>21.0</ele><time>2026-04-03T13:26:37Z</time></trkpt><trkpt lat="45.1004944606855" lon="10.579496777128163"><ele>21.333333333333332</ele><time>2026-04-03T13:26:38Z</time></trkpt><trkpt lat="45.10054859686918" lon="10.579430638022098"><ele>21.666666666666668</ele><time>2026-04-03T13:26:39Z</time></trkpt><trkpt lat="45.10060241970564" lon="10.579369080637484"><ele>22.0</ele><time>2026-04-03T13:26:40Z</time></trkpt><trkpt lat="45.1006549609094" lon="10.57930782018889"><ele>22.333333333333336</ele><time>2026-04-03T13:26:41Z</time></trkpt><trkpt lat="45.10074573678696" lon="10.579181695683387"><ele>22.666666666666668</ele><time>2026-04-03T13:26:43Z</time></trkpt><trkpt lat="45.100795152655145" lon="10.579105554058598"><ele>23.0</ele><time>2026-04-03T13:26:44Z</time></trkpt><trkpt lat="45.10084073750601" lon="10.579026076797717"><ele>23.0</ele><time>2026-04-03T13:26:45Z</time></trkpt><trkpt lat="45.100880967733744" lon="10.578946048601829"><ele>23.0</ele><time>2026-04-03T13:26:46Z</time></trkpt><trkpt lat="45.100916941381314" lon="10.578866560202085"><ele>23.0</ele><time>2026-04-03T13:26:47Z</time></trkpt><trkpt lat="45.10095194680826" lon="10.578785901934529"><ele>23.0</ele><time>2026-04-03T13:26:48Z</time></trkpt><trkpt lat="45.100983068281046" lon="10.578704187967606"><ele>23.0</ele><time>2026-04-03T13:26:49Z</time></trkpt><trkpt lat="45.10101472873224" lon="10.578618624168898"><ele>23.0</ele><time>2026-04-03T13:26:50Z</time></trkpt><trkpt lat="45.101044095256384" lon="10.578533243461647"><ele>23.0</ele><time>2026-04-03T13:26:51Z</time></trkpt><trkpt lat="45.10107611629735" lon="10.578443239433529"><ele>23.0</ele><time>2026-04-03T13:26:52Z</time></trkpt><trkpt lat="45.1011073873172" lon="10.578345614183915"><ele>23.0</ele><time>2026-04-03T13:26:53Z</time></trkpt><trkpt lat="45.101140898917706" lon="10.578245704941391"><ele>23.0</ele><time>2026-04-03T13:26:54Z</time></trkpt><trkpt lat="45.101176326197745" lon="10.578149109754861"><ele>23.0</ele><time>2026-04-03T13:26:55Z</time></trkpt><trkpt lat="45.10121269283387" lon="10.578046139671121"><ele>23.0</ele><time>2026-04-03T13:26:56Z</time></trkpt><trkpt lat="45.10124774337295" lon="10.577939798530918"><ele>23.0</ele><time>2026-04-03T13:26:57Z</time></trkpt><trkpt lat="45.10128305228643" lon="10.577831500848015"><ele>23.0</ele><time>2026-04-03T13:26:58Z</time></trkpt><trkpt lat="45.10132019944461" lon="10.577724164895965"><ele>23.0</ele><time>2026-04-03T13:26:59Z</time></trkpt><trkpt lat="45.10135794007598" lon="10.57761744258637"><ele>23.0</ele><time>2026-04-03T13:27:00Z</time></trkpt><trkpt lat="45.10139433199704" lon="10.577517195601832"><ele>23.0</ele><time>2026-04-03T13:27:01Z</time></trkpt><trkpt lat="45.101427395543595" lon="10.577421895839413"><ele>23.0</ele><time>2026-04-03T13:27:02Z</time></trkpt><trkpt lat="45.101462165884705" lon="10.577318283623441"><ele>23.0</ele><time>2026-04-03T13:27:03Z</time></trkpt><trkpt lat="45.10149128732335" lon="10.577218115409735"><ele>23.0</ele><time>2026-04-03T13:27:04Z</time></trkpt><trkpt lat="45.10151749275785" lon="10.577121083703954"><ele>23.0</ele><time>2026-04-03T13:27:05Z</time></trkpt><trkpt lat="45.101542150593524" lon="10.577028036426656"><ele>23.0</ele><time>2026-04-03T13:27:06Z</time></trkpt><trkpt lat="45.10156537444546" lon="10.576944673682876"><ele>23.0</ele><time>2026-04-03T13:27:07Z</time></trkpt><trkpt lat="45.10159124425379" lon="10.576853737393538"><ele>23.0</ele><time>2026-04-03T13:27:08Z</time></trkpt><trkpt lat="45.101617320774466" lon="10.576760498348111"><ele>23.0</ele><time>2026-04-03T13:27:09Z</time></trkpt><trkpt lat="45.10164431373559" lon="10.576661246832801"><ele>23.0</ele><time>2026-04-03T13:27:10Z</time></trkpt><trkpt lat="45.10167253627439" lon="10.576563310499457"><ele>22.857142857142858</ele><time>2026-04-03T13:27:11Z</time></trkpt><trkpt lat="45.101698459721746" lon="10.576467436312408"><ele>22.71428571428571</ele><time>2026-04-03T13:27:12Z</time></trkpt><trkpt lat="45.10172364542295" lon="10.576367086542783"><ele>22.57142857142857</ele><time>2026-04-03T13:27:13Z</time></trkpt><trkpt lat="45.10175377731359" lon="10.576265840285835"><ele>22.42857142857143</ele><time>2026-04-03T13:27:14Z</time></trkpt><trkpt lat="45.1017807983488" lon="10.57616978541355"><ele>22.285714285714285</ele><time>2026-04-03T13:27:14.999Z</time></trkpt><trkpt lat="45.101809072800414" lon="10.57607264564138"><ele>22.142857142857142</ele><time>2026-04-03T13:27:15.999Z</time></trkpt><trkpt lat="45.10183496212608" lon="10.575970657740996"><ele>22.0</ele><time>2026-04-03T13:27:16.999Z</time></trkpt><trkpt lat="45.10185917006777" lon="10.575876365673636"><ele>22.0</ele><time>2026-04-03T13:27:17.999Z</time></trkpt><trkpt lat="45.101883954911315" lon="10.575788731941563"><ele>22.0</ele><time>2026-04-03T13:27:18.999Z</time></trkpt><trkpt lat="45.101910285177155" lon="10.575707599748947"><ele>22.0</ele><time>2026-04-03T13:27:19.999Z</time></trkpt><trkpt lat="45.101967531110326" lon="10.575573185860188"><ele>22.0</ele><time>2026-04-03T13:27:21.999Z</time></trkpt><trkpt lat="45.10206154332415" lon="10.575462862395339"><ele>22.0</ele><time>2026-04-03T13:27:23.999Z</time></trkpt><trkpt lat="45.102129814765675" lon="10.575418883076102"><ele>22.0</ele><time>2026-04-03T13:27:24.999Z</time></trkpt><trkpt lat="45.10221758826233" lon="10.57538251408669"><ele>22.0</ele><time>2026-04-03T13:27:25.999Z</time></trkpt><trkpt lat="45.10231005612316" lon="10.575353094714387"><ele>22.0</ele><time>2026-04-03T13:27:26.999Z</time></trkpt><trkpt lat="45.10239809397955" lon="10.575332816491953"><ele>22.0</ele><time>2026-04-03T13:27:27.999Z</time></trkpt><trkpt lat="45.10248192846575" lon="10.57531494197146"><ele>22.0</ele><time>2026-04-03T13:27:28.999Z</time></trkpt><trkpt lat="45.10256821826146" lon="10.57529913795188"><ele>22.0</ele><time>2026-04-03T13:27:29.999Z</time></trkpt><trkpt lat="45.10265508301304" lon="10.575283667390206"><ele>22.0</ele><time>2026-04-03T13:27:30.999Z</time></trkpt><trkpt lat="45.102748873826556" lon="10.575267464923686"><ele>22.0</ele><time>2026-04-03T13:27:31.999Z</time></trkpt><trkpt lat="45.10284111717935" lon="10.575252209425665"><ele>22.0</ele><time>2026-04-03T13:27:32.999Z</time></trkpt><trkpt lat="45.102927976254726" lon="10.575235920437366"><ele>22.0</ele><time>2026-04-03T13:27:33.999Z</time></trkpt><trkpt lat="45.10301648178412" lon="10.57522269656012"><ele>22.0</ele><time>2026-04-03T13:27:34.999Z</time></trkpt><trkpt lat="45.10311051323179" lon="10.575206509323458"><ele>22.0</ele><time>2026-04-03T13:27:35.999Z</time></trkpt><trkpt lat="45.10319492858136" lon="10.57519477164387"><ele>22.0</ele><time>2026-04-03T13:27:36.999Z</time></trkpt><trkpt lat="45.10326948902501" lon="10.575188174474926"><ele>22.0</ele><time>2026-04-03T13:27:37.999Z</time></trkpt><trkpt lat="45.10334662524516" lon="10.575175700572444"><ele>22.0</ele><time>2026-04-03T13:27:38.999Z</time></trkpt><trkpt lat="45.10342296392697" lon="10.575158821752474"><ele>22.0</ele><time>2026-04-03T13:27:39.999Z</time></trkpt><trkpt lat="45.10349599841992" lon="10.575146741044241"><ele>22.0</ele><time>2026-04-03T13:27:40.999Z</time></trkpt><trkpt lat="45.10358668426567" lon="10.575130345527256"><ele>22.0</ele><time>2026-04-03T13:27:41.999Z</time></trkpt><trkpt lat="45.103675578442065" lon="10.575116877037324"><ele>22.0</ele><time>2026-04-03T13:27:42.999Z</time></trkpt><trkpt lat="45.10377041801495" lon="10.575100370672724"><ele>22.0</ele><time>2026-04-03T13:27:43.999Z</time></trkpt><trkpt lat="45.10386037074042" lon="10.57507496488244"><ele>22.0</ele><time>2026-04-03T13:27:44.999Z</time></trkpt><trkpt lat="45.10395574689739" lon="10.575038995343872"><ele>22.0</ele><time>2026-04-03T13:27:45.999Z</time></trkpt><trkpt lat="45.104038412241174" lon="10.57500697647448"><ele>22.0</ele><time>2026-04-03T13:27:46.999Z</time></trkpt><trkpt lat="45.10411892423104" lon="10.574967142296718"><ele>22.0</ele><time>2026-04-03T13:27:47.999Z</time></trkpt><trkpt lat="45.10420255273536" lon="10.574925026038741"><ele>21.833333333333332</ele><time>2026-04-03T13:27:48.999Z</time></trkpt><trkpt lat="45.10428285521628" lon="10.574879320746236"><ele>21.666666666666664</ele><time>2026-04-03T13:27:49.999Z</time></trkpt><trkpt lat="45.104356790610666" lon="10.574835307504145"><ele>21.5</ele><time>2026-04-03T13:27:51Z</time></trkpt><trkpt lat="45.10443230097138" lon="10.574788829579864"><ele>21.333333333333332</ele><time>2026-04-03T13:27:52Z</time></trkpt><trkpt lat="45.10451843054621" lon="10.57473284649748"><ele>21.166666666666668</ele><time>2026-04-03T13:27:53Z</time></trkpt><trkpt lat="45.10460740216152" lon="10.57467806529389"><ele>21.0</ele><time>2026-04-03T13:27:54Z</time></trkpt><trkpt lat="45.10469928239299" lon="10.57462260334758"><ele>21.0</ele><time>2026-04-03T13:27:55Z</time></trkpt><trkpt lat="45.10478151197997" lon="10.57457199196215"><ele>21.0</ele><time>2026-04-03T13:27:56Z</time></trkpt><trkpt lat="45.10486521733025" lon="10.574523945400099"><ele>21.0</ele><time>2026-04-03T13:27:57Z</time></trkpt><trkpt lat="45.10494663501399" lon="10.574482110823626"><ele>21.0</ele><time>2026-04-03T13:27:58Z</time></trkpt><trkpt lat="45.105036036897424" lon="10.574434765526528"><ele>21.0</ele><time>2026-04-03T13:27:59Z</time></trkpt><trkpt lat="45.10511671778231" lon="10.574391099660568"><ele>21.0</ele><time>2026-04-03T13:28:00Z</time></trkpt><trkpt lat="45.10520154584344" lon="10.574351485623469"><ele>21.0</ele><time>2026-04-03T13:28:01Z</time></trkpt><trkpt lat="45.105281907206276" lon="10.574307191404849"><ele>21.0</ele><time>2026-04-03T13:28:02Z</time></trkpt><trkpt lat="45.105364297553024" lon="10.574262957787754"><ele>21.0</ele><time>2026-04-03T13:28:03Z</time></trkpt><trkpt lat="45.10545443165161" lon="10.574218335347705"><ele>21.0</ele><time>2026-04-03T13:28:04Z</time></trkpt><trkpt lat="45.10553639675935" lon="10.574175464782904"><ele>21.0</ele><time>2026-04-03T13:28:05Z</time></trkpt><trkpt lat="45.105622417207485" lon="10.574130446084721"><ele>21.0</ele><time>2026-04-03T13:28:06Z</time></trkpt><trkpt lat="45.105701783476476" lon="10.574080502316225"><ele>21.200000000000003</ele><time>2026-04-03T13:28:07Z</time></trkpt><trkpt lat="45.10577764711108" lon="10.57402854061076"><ele>21.400000000000002</ele><time>2026-04-03T13:28:08Z</time></trkpt><trkpt lat="45.10585695553828" lon="10.573965973642506"><ele>21.6</ele><time>2026-04-03T13:28:09Z</time></trkpt><trkpt lat="45.10594143026842" lon="10.573898866136904"><ele>21.8</ele><time>2026-04-03T13:28:10Z</time></trkpt><trkpt lat="45.106025245250535" lon="10.573834669796241"><ele>22.0</ele><time>2026-04-03T13:28:11Z</time></trkpt><trkpt lat="45.10611234310538" lon="10.573768708782957"><ele>22.0</ele><time>2026-04-03T13:28:12Z</time></trkpt><trkpt lat="45.10619713084486" lon="10.573701078843163"><ele>22.0</ele><time>2026-04-03T13:28:13Z</time></trkpt><trkpt lat="45.1062758493354" lon="10.573634062509841"><ele>22.0</ele><time>2026-04-03T13:28:14Z</time></trkpt><trkpt lat="45.10635626289945" lon="10.573562878879791"><ele>22.0</ele><time>2026-04-03T13:28:15Z</time></trkpt><trkpt lat="45.106437463238066" lon="10.57349336222507"><ele>22.0</ele><time>2026-04-03T13:28:16Z</time></trkpt><trkpt lat="45.10652185038707" lon="10.573428315373324"><ele>21.8</ele><time>2026-04-03T13:28:17Z</time></trkpt><trkpt lat="45.10660809458594" lon="10.573363590914811"><ele>21.6</ele><time>2026-04-03T13:28:18Z</time></trkpt><trkpt lat="45.10669479327243" lon="10.573296229708676"><ele>21.400000000000002</ele><time>2026-04-03T13:28:19Z</time></trkpt><trkpt lat="45.106780224444215" lon="10.573226763774752"><ele>21.200000000000003</ele><time>2026-04-03T13:28:20Z</time></trkpt><trkpt lat="45.106858233677954" lon="10.573170195157836"><ele>21.0</ele><time>2026-04-03T13:28:21Z</time></trkpt><trkpt lat="45.1069294541943" lon="10.573117137616999"><ele>21.0</ele><time>2026-04-03T13:28:22Z</time></trkpt><trkpt lat="45.107026060601434" lon="10.57304490298913"><ele>21.0</ele><time>2026-04-03T13:28:23Z</time></trkpt><trkpt lat="45.10711590573373" lon="10.572974656480744"><ele>21.0</ele><time>2026-04-03T13:28:24Z</time></trkpt><trkpt lat="45.107191009868174" lon="10.572916901622266"><ele>21.0</ele><time>2026-04-03T13:28:25Z</time></trkpt><trkpt lat="45.10725835519098" lon="10.57286130954448"><ele>21.0</ele><time>2026-04-03T13:28:26Z</time></trkpt><trkpt lat="45.107335071438484" lon="10.572797528218656"><ele>21.0</ele><time>2026-04-03T13:28:27Z</time></trkpt><trkpt lat="45.107422475054065" lon="10.572733408432482"><ele>21.0</ele><time>2026-04-03T13:28:28Z</time></trkpt><trkpt lat="45.10749806998692" lon="10.572663257130374"><ele>21.0</ele><time>2026-04-03T13:28:29Z</time></trkpt><trkpt lat="45.10756855237128" lon="10.572593612042677"><ele>21.0</ele><time>2026-04-03T13:28:30Z</time></trkpt><trkpt lat="45.10762506250189" lon="10.572529755121925"><ele>21.0</ele><time>2026-04-03T13:28:31Z</time></trkpt><trkpt lat="45.10769372256071" lon="10.572449949061019"><ele>21.0</ele><time>2026-04-03T13:28:32Z</time></trkpt><trkpt lat="45.10777971841399" lon="10.572359244687778"><ele>21.0</ele><time>2026-04-03T13:28:33Z</time></trkpt><trkpt lat="45.10784832228021" lon="10.572285941922589"><ele>21.0</ele><time>2026-04-03T13:28:34Z</time></trkpt><trkpt lat="45.107918595323554" lon="10.572192141802347"><ele>21.0</ele><time>2026-04-03T13:28:35Z</time></trkpt><trkpt lat="45.10797501128671" lon="10.57211491685972"><ele>21.0</ele><time>2026-04-03T13:28:36Z</time></trkpt><trkpt lat="45.10802684669886" lon="10.572041192127344"><ele>21.0</ele><time>2026-04-03T13:28:37Z</time></trkpt><trkpt lat="45.108076420844576" lon="10.571967082006836"><ele>21.0</ele><time>2026-04-03T13:28:38Z</time></trkpt><trkpt lat="45.108118657690596" lon="10.571868078751042"><ele>21.0</ele><time>2026-04-03T13:28:39Z</time></trkpt><trkpt lat="45.10817104612686" lon="10.571782613903679"><ele>21.0</ele><time>2026-04-03T13:28:40Z</time></trkpt><trkpt lat="45.10822204652496" lon="10.571697325132853"><ele>21.0</ele><time>2026-04-03T13:28:41Z</time></trkpt><trkpt lat="45.10826862216071" lon="10.571614241979988"><ele>21.0</ele><time>2026-04-03T13:28:42Z</time></trkpt><trkpt lat="45.10831058797521" lon="10.571538031735624"><ele>21.0</ele><time>2026-04-03T13:28:43Z</time></trkpt><trkpt lat="45.10838008284617" lon="10.5714091986564"><ele>21.0</ele><time>2026-04-03T13:28:45Z</time></trkpt><trkpt lat="45.10841904800011" lon="10.57133911306564"><ele>21.0</ele><time>2026-04-03T13:28:46Z</time></trkpt><trkpt lat="45.10847594082339" lon="10.571299004122213"><ele>21.0</ele><time>2026-04-03T13:28:47Z</time></trkpt><trkpt lat="45.10856674533516" lon="10.571211878904581"><ele>21.0</ele><time>2026-04-03T13:28:49Z</time></trkpt><trkpt lat="45.10861730214498" lon="10.571157645200593"><ele>21.0</ele><time>2026-04-03T13:28:50Z</time></trkpt><trkpt lat="45.10864698216047" lon="10.57078375180033"><ele>21.200000000000003</ele><time>2026-04-03T13:28:53Z</time></trkpt><trkpt lat="45.10867848018869" lon="10.570653013406545"><ele>21.400000000000002</ele><time>2026-04-03T13:28:55Z</time></trkpt><trkpt lat="45.10871018078576" lon="10.570522472466601"><ele>21.6</ele><time>2026-04-03T13:28:57Z</time></trkpt><trkpt lat="45.10874970630264" lon="10.570384404278615"><ele>21.8</ele><time>2026-04-03T13:28:59Z</time></trkpt><trkpt lat="45.10878698893723" lon="10.570252195699899"><ele>22.0</ele><time>2026-04-03T13:29:01Z</time></trkpt><trkpt lat="45.10882292596951" lon="10.570130949891878"><ele>22.200000000000003</ele><time>2026-04-03T13:29:03Z</time></trkpt><trkpt lat="45.10885162523061" lon="10.570017933802776"><ele>22.4</ele><time>2026-04-03T13:29:05Z</time></trkpt><trkpt lat="45.10888496160128" lon="10.569900292005974"><ele>22.6</ele><time>2026-04-03T13:29:07Z</time></trkpt><trkpt lat="45.10892865527623" lon="10.569729400548768"><ele>22.799999999999997</ele><time>2026-04-03T13:29:09Z</time></trkpt><trkpt lat="45.108958765732936" lon="10.569617068522552"><ele>23.0</ele><time>2026-04-03T13:29:10Z</time></trkpt><trkpt lat="45.10898721421119" lon="10.569512542895973"><ele>23.0</ele><time>2026-04-03T13:29:11Z</time></trkpt><trkpt lat="45.109010297666" lon="10.569420206574991"><ele>23.0</ele><time>2026-04-03T13:29:12Z</time></trkpt><trkpt lat="45.109035328729036" lon="10.569328298149978"><ele>23.0</ele><time>2026-04-03T13:29:13Z</time></trkpt><trkpt lat="45.10905725342253" lon="10.56922731664735"><ele>23.0</ele><time>2026-04-03T13:29:14Z</time></trkpt><trkpt lat="45.109071949805774" lon="10.5691291319531"><ele>23.0</ele><time>2026-04-03T13:29:15Z</time></trkpt><trkpt lat="45.109082758493926" lon="10.569025684360863"><ele>23.0</ele><time>2026-04-03T13:29:16Z</time></trkpt><trkpt lat="45.10909047604916" lon="10.568921718319533"><ele>23.0</ele><time>2026-04-03T13:29:17Z</time></trkpt><trkpt lat="45.10909573304227" lon="10.56882149877801"><ele>23.0</ele><time>2026-04-03T13:29:18Z</time></trkpt><trkpt lat="45.10910243254718" lon="10.568659952288627"><ele>23.0</ele><time>2026-04-03T13:29:20Z</time></trkpt><trkpt lat="45.10911045356464" lon="10.568477340542454"><ele>23.0</ele><time>2026-04-03T13:29:22Z</time></trkpt><trkpt lat="45.10912056228233" lon="10.568386806904039"><ele>23.0</ele><time>2026-04-03T13:29:23Z</time></trkpt><trkpt lat="45.1091324334971" lon="10.568289531319065"><ele>23.0</ele><time>2026-04-03T13:29:24Z</time></trkpt><trkpt lat="45.109148821938476" lon="10.568187210180202"><ele>23.0</ele><time>2026-04-03T13:29:25Z</time></trkpt><trkpt lat="45.10917143093551" lon="10.568083629646688"><ele>23.0</ele><time>2026-04-03T13:29:26Z</time></trkpt><trkpt lat="45.10919850294301" lon="10.567975139361549"><ele>23.0</ele><time>2026-04-03T13:29:27Z</time></trkpt><trkpt lat="45.10922932715696" lon="10.567862978546994"><ele>23.0</ele><time>2026-04-03T13:29:27.999Z</time></trkpt><trkpt lat="45.109262486886486" lon="10.56775932543831"><ele>23.0</ele><time>2026-04-03T13:29:29Z</time></trkpt><trkpt lat="45.10929559985583" lon="10.56766510842361"><ele>23.0</ele><time>2026-04-03T13:29:29.999Z</time></trkpt><trkpt lat="45.10934504937192" lon="10.567518569213338"><ele>22.833333333333336</ele><time>2026-04-03T13:29:31.999Z</time></trkpt><trkpt lat="45.109405448238455" lon="10.567375173155359"><ele>22.666666666666668</ele><time>2026-04-03T13:29:33.999Z</time></trkpt><trkpt lat="45.10944362960391" lon="10.567296291759506"><ele>22.5</ele><time>2026-04-03T13:29:34.999Z</time></trkpt><trkpt lat="45.109488433830165" lon="10.567219899756406"><ele>22.333333333333332</ele><time>2026-04-03T13:29:35.999Z</time></trkpt><trkpt lat="45.10953601734334" lon="10.567153317090197"><ele>22.166666666666664</ele><time>2026-04-03T13:29:36.999Z</time></trkpt><trkpt lat="45.10958636053122" lon="10.567092400413484"><ele>22.0</ele><time>2026-04-03T13:29:37.999Z</time></trkpt><trkpt lat="45.109638913686176" lon="10.567028228324055"><ele>21.857142857142858</ele><time>2026-04-03T13:29:38.999Z</time></trkpt><trkpt lat="45.10969638125781" lon="10.566965074263043"><ele>21.714285714285715</ele><time>2026-04-03T13:29:39.999Z</time></trkpt><trkpt lat="45.1097580251274" lon="10.566901787091561"><ele>21.57142857142857</ele><time>2026-04-03T13:29:40.999Z</time></trkpt><trkpt lat="45.109814990398654" lon="10.566846629692526"><ele>21.42857142857143</ele><time>2026-04-03T13:29:41.999Z</time></trkpt><trkpt lat="45.109866345953826" lon="10.566791298330493"><ele>21.285714285714285</ele><time>2026-04-03T13:29:42.999Z</time></trkpt><trkpt lat="45.10992381625737" lon="10.566719465455364"><ele>21.142857142857142</ele><time>2026-04-03T13:29:43.999Z</time></trkpt><trkpt lat="45.10998389851235" lon="10.566651448718199"><ele>21.0</ele><time>2026-04-03T13:29:44.999Z</time></trkpt><trkpt lat="45.1100489063425" lon="10.566581121828223"><ele>21.0</ele><time>2026-04-03T13:29:45.999Z</time></trkpt><trkpt lat="45.11011603488945" lon="10.566505049354383"><ele>21.0</ele><time>2026-04-03T13:29:46.999Z</time></trkpt><trkpt lat="45.110182295400854" lon="10.566429313151875"><ele>21.0</ele><time>2026-04-03T13:29:47.999Z</time></trkpt><trkpt lat="45.110247342625215" lon="10.566354208571571"><ele>21.0</ele><time>2026-04-03T13:29:48.999Z</time></trkpt><trkpt lat="45.11031066494866" lon="10.566284780822487"><ele>21.0</ele><time>2026-04-03T13:29:49.999Z</time></trkpt><trkpt lat="45.11036733501729" lon="10.566227070690966"><ele>21.0</ele><time>2026-04-03T13:29:50.999Z</time></trkpt><trkpt lat="45.11042063981764" lon="10.566176976455312"><ele>21.0</ele><time>2026-04-03T13:29:51.999Z</time></trkpt><trkpt lat="45.11053479242981" lon="10.566096137645498"><ele>21.0</ele><time>2026-04-03T13:29:53.999Z</time></trkpt><trkpt lat="45.11060059214304" lon="10.566057869720941"><ele>21.0</ele><time>2026-04-03T13:29:54.999Z</time></trkpt><trkpt lat="45.11067034698222" lon="10.566026377529107"><ele>21.0</ele><time>2026-04-03T13:29:55.999Z</time></trkpt><trkpt lat="45.110741189806255" lon="10.565996657889922"><ele>21.0</ele><time>2026-04-03T13:29:56.999Z</time></trkpt><trkpt lat="45.11080746297831" lon="10.565972127484871"><ele>21.0</ele><time>2026-04-03T13:29:57.999Z</time></trkpt><trkpt lat="45.11087190323542" lon="10.565941214462542"><ele>21.4</ele><time>2026-04-03T13:29:58.999Z</time></trkpt><trkpt lat="45.110975270563536" lon="10.565873504732867"><ele>21.8</ele><time>2026-04-03T13:30:00.999Z</time></trkpt><trkpt lat="45.11107803786074" lon="10.565775790112701"><ele>22.2</ele><time>2026-04-03T13:30:02.999Z</time></trkpt><trkpt lat="45.11113085771749" lon="10.565709787519863"><ele>22.599999999999998</ele><time>2026-04-03T13:30:03.999Z</time></trkpt><trkpt lat="45.11118246161699" lon="10.565637741196939"><ele>23.0</ele><time>2026-04-03T13:30:04.999Z</time></trkpt><trkpt lat="45.11123577070131" lon="10.565560677869179"><ele>23.0</ele><time>2026-04-03T13:30:05.999Z</time></trkpt><trkpt lat="45.111296329672435" lon="10.565474013886712"><ele>23.0</ele><time>2026-04-03T13:30:06.999Z</time></trkpt><trkpt lat="45.11135703474715" lon="10.565387636566944"><ele>23.0</ele><time>2026-04-03T13:30:07.999Z</time></trkpt><trkpt lat="45.1114140653681" lon="10.565309904249702"><ele>23.0</ele><time>2026-04-03T13:30:08.999Z</time></trkpt><trkpt lat="45.11148003490473" lon="10.565218864041213"><ele>23.0</ele><time>2026-04-03T13:30:09.999Z</time></trkpt><trkpt lat="45.11153618065711" lon="10.565142080827114"><ele>23.0</ele><time>2026-04-03T13:30:10.999Z</time></trkpt><trkpt lat="45.111598493387156" lon="10.565053407544927"><ele>22.833333333333336</ele><time>2026-04-03T13:30:11.999Z</time></trkpt><trkpt lat="45.111652667362165" lon="10.56497981526455"><ele>22.666666666666668</ele><time>2026-04-03T13:30:12.999Z</time></trkpt><trkpt lat="45.11170937056555" lon="10.564902515036067"><ele>22.5</ele><time>2026-04-03T13:30:14Z</time></trkpt><trkpt lat="45.11176794128794" lon="10.564827304822634"><ele>22.333333333333332</ele><time>2026-04-03T13:30:15Z</time></trkpt><trkpt lat="45.11182512930063" lon="10.564748647527443"><ele>22.166666666666664</ele><time>2026-04-03T13:30:16Z</time></trkpt><trkpt lat="45.11188465014869" lon="10.564666103009007"><ele>22.0</ele><time>2026-04-03T13:30:17Z</time></trkpt><trkpt lat="45.11195006595546" lon="10.564575120495688"><ele>21.666666666666664</ele><time>2026-04-03T13:30:18Z</time></trkpt><trkpt lat="45.11201243679715" lon="10.564487626028036"><ele>21.333333333333332</ele><time>2026-04-03T13:30:19Z</time></trkpt><trkpt lat="45.11207429132297" lon="10.564402131132914"><ele>21.0</ele><time>2026-04-03T13:30:20Z</time></trkpt><trkpt lat="45.11214031684569" lon="10.564314514941215"><ele>20.666666666666668</ele><time>2026-04-03T13:30:21Z</time></trkpt><trkpt lat="45.11220161960674" lon="10.564231256370634"><ele>20.333333333333336</ele><time>2026-04-03T13:30:22Z</time></trkpt><trkpt lat="45.11226218785599" lon="10.564149512435195"><ele>20.0</ele><time>2026-04-03T13:30:23Z</time></trkpt><trkpt lat="45.11232788981105" lon="10.564061184367386"><ele>20.0</ele><time>2026-04-03T13:30:24Z</time></trkpt><trkpt lat="45.11239017084993" lon="10.563971292234408"><ele>20.0</ele><time>2026-04-03T13:30:25Z</time></trkpt><trkpt lat="45.112454493196275" lon="10.563882570957363"><ele>20.0</ele><time>2026-04-03T13:30:26Z</time></trkpt><trkpt lat="45.11251903119322" lon="10.56379313322172"><ele>20.0</ele><time>2026-04-03T13:30:27Z</time></trkpt><trkpt lat="45.112584696543685" lon="10.56370295549523"><ele>20.0</ele><time>2026-04-03T13:30:28Z</time></trkpt><trkpt lat="45.112653078689306" lon="10.563614979140672"><ele>19.666666666666668</ele><time>2026-04-03T13:30:29Z</time></trkpt><trkpt lat="45.11271808365145" lon="10.563525866077937"><ele>19.333333333333336</ele><time>2026-04-03T13:30:30Z</time></trkpt><trkpt lat="45.11278009310856" lon="10.56343757115199"><ele>19.0</ele><time>2026-04-03T13:30:31Z</time></trkpt><trkpt lat="45.11283542227637" lon="10.563357176908278"><ele>18.666666666666668</ele><time>2026-04-03T13:30:32Z</time></trkpt><trkpt lat="45.112896073839806" lon="10.563273772129813"><ele>18.333333333333332</ele><time>2026-04-03T13:30:33Z</time></trkpt><trkpt lat="45.11296685809466" lon="10.563184915901386"><ele>18.0</ele><time>2026-04-03T13:30:34Z</time></trkpt><trkpt lat="45.11301723991576" lon="10.563110462946701"><ele>18.0</ele><time>2026-04-03T13:30:35Z</time></trkpt><trkpt lat="45.113075245923916" lon="10.563028802154829"><ele>18.0</ele><time>2026-04-03T13:30:36Z</time></trkpt><trkpt lat="45.11313334586277" lon="10.562946899507143"><ele>18.0</ele><time>2026-04-03T13:30:37Z</time></trkpt><trkpt lat="45.11318741030095" lon="10.56287028786146"><ele>18.0</ele><time>2026-04-03T13:30:38Z</time></trkpt><trkpt lat="45.113243101043324" lon="10.56279600541723"><ele>18.0</ele><time>2026-04-03T13:30:39Z</time></trkpt><trkpt lat="45.113303420237955" lon="10.56270493202435"><ele>18.0</ele><time>2026-04-03T13:30:40Z</time></trkpt><trkpt lat="45.11337100199331" lon="10.562612795374823"><ele>18.666666666666668</ele><time>2026-04-03T13:30:41Z</time></trkpt><trkpt lat="45.11343544761967" lon="10.562525123209655"><ele>19.333333333333332</ele><time>2026-04-03T13:30:42Z</time></trkpt><trkpt lat="45.11349552188835" lon="10.562439403947993"><ele>20.0</ele><time>2026-04-03T13:30:43Z</time></trkpt><trkpt lat="45.11355170838238" lon="10.562365023422988"><ele>20.666666666666664</ele><time>2026-04-03T13:30:44Z</time></trkpt><trkpt lat="45.113613404429884" lon="10.562280980696922"><ele>21.333333333333332</ele><time>2026-04-03T13:30:45Z</time></trkpt><trkpt lat="45.11368295498284" lon="10.56218569129544"><ele>22.0</ele><time>2026-04-03T13:30:46Z</time></trkpt><trkpt lat="45.113741529635845" lon="10.56210509253841"><ele>22.333333333333332</ele><time>2026-04-03T13:30:47Z</time></trkpt><trkpt lat="45.11379570919838" lon="10.56203006472911"><ele>22.666666666666664</ele><time>2026-04-03T13:30:48Z</time></trkpt><trkpt lat="45.113857260281634" lon="10.56194244108827"><ele>23.0</ele><time>2026-04-03T13:30:49Z</time></trkpt><trkpt lat="45.113926861702936" lon="10.56184614810159"><ele>23.333333333333332</ele><time>2026-04-03T13:30:50Z</time></trkpt><trkpt lat="45.11399189192481" lon="10.561757213250992"><ele>23.666666666666668</ele><time>2026-04-03T13:30:51Z</time></trkpt><trkpt lat="45.11404765004984" lon="10.561669995696722"><ele>24.0</ele><time>2026-04-03T13:30:52Z</time></trkpt><trkpt lat="45.114104440972916" lon="10.56159014085929"><ele>24.0</ele><time>2026-04-03T13:30:53Z</time></trkpt><trkpt lat="45.114163605495825" lon="10.561508116985161"><ele>24.0</ele><time>2026-04-03T13:30:54Z</time></trkpt><trkpt lat="45.114221006421516" lon="10.5614347572379"><ele>24.0</ele><time>2026-04-03T13:30:55Z</time></trkpt><trkpt lat="45.11428736174919" lon="10.561342915574398"><ele>24.0</ele><time>2026-04-03T13:30:56Z</time></trkpt><trkpt lat="45.11435865040664" lon="10.561247545992284"><ele>24.0</ele><time>2026-04-03T13:30:57Z</time></trkpt><trkpt lat="45.114425877162596" lon="10.561153817222321"><ele>24.0</ele><time>2026-04-03T13:30:58Z</time></trkpt><trkpt lat="45.11449635794091" lon="10.561056106977029"><ele>24.0</ele><time>2026-04-03T13:30:59Z</time></trkpt><trkpt lat="45.114567976492125" lon="10.560956350262716"><ele>24.0</ele><time>2026-04-03T13:31:00Z</time></trkpt><trkpt lat="45.114629404551934" lon="10.560871803279156"><ele>24.0</ele><time>2026-04-03T13:31:01Z</time></trkpt><trkpt lat="45.114686799031595" lon="10.560792209544843"><ele>24.0</ele><time>2026-04-03T13:31:02Z</time></trkpt><trkpt lat="45.114746072060434" lon="10.560714356562352"><ele>24.0</ele><time>2026-04-03T13:31:03Z</time></trkpt><trkpt lat="45.11480502454248" lon="10.560635100340233"><ele>24.0</ele><time>2026-04-03T13:31:04Z</time></trkpt><trkpt lat="45.11486524501295" lon="10.5605539429144"><ele>24.0</ele><time>2026-04-03T13:31:05Z</time></trkpt><trkpt lat="45.11491739470912" lon="10.560480252708132"><ele>24.0</ele><time>2026-04-03T13:31:06Z</time></trkpt><trkpt lat="45.11496533811988" lon="10.560417712906748"><ele>24.0</ele><time>2026-04-03T13:31:07Z</time></trkpt><trkpt lat="45.11504797186297" lon="10.560311164590969"><ele>24.0</ele><time>2026-04-03T13:31:09Z</time></trkpt><trkpt lat="45.11509653140648" lon="10.560250588187692"><ele>24.0</ele><time>2026-04-03T13:31:10Z</time></trkpt><trkpt lat="45.11515810451531" lon="10.560176839421354"><ele>24.0</ele><time>2026-04-03T13:31:11Z</time></trkpt><trkpt lat="45.115230545954894" lon="10.560093754202848"><ele>23.833333333333332</ele><time>2026-04-03T13:31:12Z</time></trkpt><trkpt lat="45.115300670391036" lon="10.560014421084535"><ele>23.666666666666668</ele><time>2026-04-03T13:31:13Z</time></trkpt><trkpt lat="45.115367131073086" lon="10.559942067065403"><ele>23.5</ele><time>2026-04-03T13:31:14Z</time></trkpt><trkpt lat="45.115429524606974" lon="10.55987081331843"><ele>23.333333333333336</ele><time>2026-04-03T13:31:15Z</time></trkpt><trkpt lat="45.11549980136257" lon="10.55979293653943"><ele>23.166666666666668</ele><time>2026-04-03T13:31:16Z</time></trkpt><trkpt lat="45.11556628388167" lon="10.559717278601713"><ele>23.0</ele><time>2026-04-03T13:31:17Z</time></trkpt><trkpt lat="45.11563188905857" lon="10.559642325208802"><ele>23.0</ele><time>2026-04-03T13:31:18Z</time></trkpt><trkpt lat="45.115695673609935" lon="10.559569715215819"><ele>23.0</ele><time>2026-04-03T13:31:19Z</time></trkpt><trkpt lat="45.11575753105599" lon="10.559500781787003"><ele>23.0</ele><time>2026-04-03T13:31:20Z</time></trkpt><trkpt lat="45.115822364620506" lon="10.559431225417892"><ele>23.0</ele><time>2026-04-03T13:31:21Z</time></trkpt><trkpt lat="45.115878941974465" lon="10.559367997268902"><ele>23.0</ele><time>2026-04-03T13:31:22Z</time></trkpt><trkpt lat="45.115931204423326" lon="10.55930876726384"><ele>23.0</ele><time>2026-04-03T13:31:23Z</time></trkpt><trkpt lat="45.116029989887565" lon="10.559191478104921"><ele>23.166666666666668</ele><time>2026-04-03T13:31:25Z</time></trkpt><trkpt lat="45.116089398562984" lon="10.559126388782309"><ele>23.333333333333336</ele><time>2026-04-03T13:31:26Z</time></trkpt><trkpt lat="45.11615239343967" lon="10.559058029882289"><ele>23.5</ele><time>2026-04-03T13:31:27Z</time></trkpt><trkpt lat="45.11621075062285" lon="10.558991541186412"><ele>23.666666666666668</ele><time>2026-04-03T13:31:28Z</time></trkpt><trkpt lat="45.116269899344644" lon="10.558922365414087"><ele>23.833333333333332</ele><time>2026-04-03T13:31:29Z</time></trkpt><trkpt lat="45.11632735046163" lon="10.558851711941962"><ele>24.0</ele><time>2026-04-03T13:31:30Z</time></trkpt><trkpt lat="45.116387138869044" lon="10.55877373171987"><ele>23.666666666666668</ele><time>2026-04-03T13:31:31Z</time></trkpt><trkpt lat="45.11644223160182" lon="10.558695415459791"><ele>23.333333333333332</ele><time>2026-04-03T13:31:32Z</time></trkpt><trkpt lat="45.116496631961155" lon="10.558616795193997"><ele>23.0</ele><time>2026-04-03T13:31:33Z</time></trkpt><trkpt lat="45.116551845185064" lon="10.558532320674693"><ele>22.666666666666664</ele><time>2026-04-03T13:31:34Z</time></trkpt><trkpt lat="45.1166039154502" lon="10.558449339549275"><ele>22.333333333333332</ele><time>2026-04-03T13:31:35Z</time></trkpt><trkpt lat="45.11665755376235" lon="10.55836136137893"><ele>22.0</ele><time>2026-04-03T13:31:36Z</time></trkpt><trkpt lat="45.11670789144751" lon="10.558273423872038"><ele>22.0</ele><time>2026-04-03T13:31:37Z</time></trkpt><trkpt lat="45.116752856500014" lon="10.5581867946552"><ele>22.0</ele><time>2026-04-03T13:31:38Z</time></trkpt><trkpt lat="45.11679679156487" lon="10.558099661670536"><ele>22.0</ele><time>2026-04-03T13:31:39Z</time></trkpt><trkpt lat="45.11684213650509" lon="10.558008836760008"><ele>22.0</ele><time>2026-04-03T13:31:40Z</time></trkpt><trkpt lat="45.11688737819088" lon="10.557911668706408"><ele>22.0</ele><time>2026-04-03T13:31:41Z</time></trkpt><trkpt lat="45.11693149853776" lon="10.557813065302613"><ele>22.0</ele><time>2026-04-03T13:31:42Z</time></trkpt><trkpt lat="45.116969519555205" lon="10.557717257387223"><ele>22.0</ele><time>2026-04-03T13:31:43Z</time></trkpt><trkpt lat="45.11700390063651" lon="10.557621664799239"><ele>22.0</ele><time>2026-04-03T13:31:44Z</time></trkpt><trkpt lat="45.117036196013665" lon="10.557529110951458"><ele>22.0</ele><time>2026-04-03T13:31:45Z</time></trkpt><trkpt lat="45.117065737655686" lon="10.557435117130769"><ele>22.0</ele><time>2026-04-03T13:31:46Z</time></trkpt><trkpt lat="45.11709438661428" lon="10.557339140131011"><ele>22.0</ele><time>2026-04-03T13:31:47Z</time></trkpt><trkpt lat="45.11712364964632" lon="10.557241081818292"><ele>22.0</ele><time>2026-04-03T13:31:48Z</time></trkpt><trkpt lat="45.11715107880303" lon="10.557142801314804"><ele>22.0</ele><time>2026-04-03T13:31:49Z</time></trkpt><trkpt lat="45.11718048862434" lon="10.557035774441765"><ele>21.5</ele><time>2026-04-03T13:31:50Z</time></trkpt><trkpt lat="45.11720557775661" lon="10.556937766435224"><ele>21.0</ele><time>2026-04-03T13:31:51Z</time></trkpt><trkpt lat="45.11724593925687" lon="10.556770954311704"><ele>20.5</ele><time>2026-04-03T13:31:53Z</time></trkpt><trkpt lat="45.11726883634111" lon="10.556669990719335"><ele>20.0</ele><time>2026-04-03T13:31:54Z</time></trkpt><trkpt lat="45.11729600693256" lon="10.556568302038393"><ele>19.5</ele><time>2026-04-03T13:31:55Z</time></trkpt><trkpt lat="45.117322387804826" lon="10.556455917857383"><ele>19.0</ele><time>2026-04-03T13:31:56Z</time></trkpt><trkpt lat="45.11735022012766" lon="10.556348946764691"><ele>19.0</ele><time>2026-04-03T13:31:57Z</time></trkpt><trkpt lat="45.11737635813419" lon="10.55623415992111"><ele>19.0</ele><time>2026-04-03T13:31:58Z</time></trkpt><trkpt lat="45.11740144788988" lon="10.556126149232544"><ele>19.0</ele><time>2026-04-03T13:31:59Z</time></trkpt><trkpt lat="45.117425324851396" lon="10.556022781097422"><ele>19.0</ele><time>2026-04-03T13:32:00Z</time></trkpt><trkpt lat="45.11744986587634" lon="10.555922483629937"><ele>19.0</ele><time>2026-04-03T13:32:01Z</time></trkpt><trkpt lat="45.11747668112112" lon="10.555806534764617"><ele>19.0</ele><time>2026-04-03T13:32:02Z</time></trkpt><trkpt lat="45.11750197160511" lon="10.55569725370159"><ele>19.5</ele><time>2026-04-03T13:32:03Z</time></trkpt><trkpt lat="45.11752976786876" lon="10.555581186893447"><ele>20.0</ele><time>2026-04-03T13:32:04Z</time></trkpt><trkpt lat="45.11755614863778" lon="10.555470857559648"><ele>20.5</ele><time>2026-04-03T13:32:05Z</time></trkpt><trkpt lat="45.11758227842917" lon="10.555361013450954"><ele>21.0</ele><time>2026-04-03T13:32:06Z</time></trkpt><trkpt lat="45.117608621161516" lon="10.555251753396197"><ele>21.5</ele><time>2026-04-03T13:32:07Z</time></trkpt><trkpt lat="45.117633689466764" lon="10.555142378777768"><ele>22.0</ele><time>2026-04-03T13:32:08Z</time></trkpt><trkpt lat="45.11765982817997" lon="10.555032885283426"><ele>22.0</ele><time>2026-04-03T13:32:09Z</time></trkpt><trkpt lat="45.117688309429916" lon="10.554917097777452"><ele>22.0</ele><time>2026-04-03T13:32:10Z</time></trkpt><trkpt lat="45.11771500967791" lon="10.554803101128286"><ele>22.0</ele><time>2026-04-03T13:32:11Z</time></trkpt><trkpt lat="45.11774106331242" lon="10.55468790605832"><ele>22.0</ele><time>2026-04-03T13:32:12Z</time></trkpt><trkpt lat="45.11776655259956" lon="10.55458173122858"><ele>22.0</ele><time>2026-04-03T13:32:13Z</time></trkpt><trkpt lat="45.11779377636944" lon="10.554466569606772"><ele>22.0</ele><time>2026-04-03T13:32:14Z</time></trkpt><trkpt lat="45.117820507757024" lon="10.554353978052653"><ele>21.666666666666664</ele><time>2026-04-03T13:32:15Z</time></trkpt><trkpt lat="45.11784621160165" lon="10.554242371806374"><ele>21.333333333333332</ele><time>2026-04-03T13:32:16Z</time></trkpt><trkpt lat="45.117872562635476" lon="10.55413582106268"><ele>21.0</ele><time>2026-04-03T13:32:17Z</time></trkpt><trkpt lat="45.11789897623188" lon="10.554029090542796"><ele>20.666666666666668</ele><time>2026-04-03T13:32:18Z</time></trkpt><trkpt lat="45.1179267321948" lon="10.553918462035162"><ele>20.333333333333336</ele><time>2026-04-03T13:32:19Z</time></trkpt><trkpt lat="45.11794851400931" lon="10.553812358396142"><ele>20.0</ele><time>2026-04-03T13:32:20Z</time></trkpt><trkpt lat="45.11797167798104" lon="10.553712244930512"><ele>20.166666666666668</ele><time>2026-04-03T13:32:21Z</time></trkpt><trkpt lat="45.117999394724706" lon="10.55360307047314"><ele>20.333333333333336</ele><time>2026-04-03T13:32:22Z</time></trkpt><trkpt lat="45.11802680758802" lon="10.553497385375493"><ele>20.5</ele><time>2026-04-03T13:32:23Z</time></trkpt><trkpt lat="45.118052790851365" lon="10.55338982189532"><ele>20.666666666666668</ele><time>2026-04-03T13:32:24Z</time></trkpt><trkpt lat="45.118079284861345" lon="10.553274166215168"><ele>20.833333333333332</ele><time>2026-04-03T13:32:25Z</time></trkpt><trkpt lat="45.118108622548846" lon="10.553151205494183"><ele>21.0</ele><time>2026-04-03T13:32:26Z</time></trkpt><trkpt lat="45.11813662312925" lon="10.553042301916612"><ele>21.0</ele><time>2026-04-03T13:32:27Z</time></trkpt><trkpt lat="45.118160957564776" lon="10.552943164095417"><ele>21.0</ele><time>2026-04-03T13:32:28Z</time></trkpt><trkpt lat="45.11818303342595" lon="10.552856417616024"><ele>21.0</ele><time>2026-04-03T13:32:29Z</time></trkpt><trkpt lat="45.11820327123059" lon="10.552771774111648"><ele>21.0</ele><time>2026-04-03T13:32:30Z</time></trkpt><trkpt lat="45.11822498037346" lon="10.552675518829219"><ele>21.0</ele><time>2026-04-03T13:32:31Z</time></trkpt><trkpt lat="45.11824824099463" lon="10.552574298869786"><ele>21.0</ele><time>2026-04-03T13:32:32Z</time></trkpt><trkpt lat="45.118270853256845" lon="10.552467868496457"><ele>21.0</ele><time>2026-04-03T13:32:33Z</time></trkpt><trkpt lat="45.118288126508304" lon="10.552368782416824"><ele>21.0</ele><time>2026-04-03T13:32:34Z</time></trkpt><trkpt lat="45.11830065220871" lon="10.552209130345975"><ele>21.0</ele><time>2026-04-03T13:32:36Z</time></trkpt><trkpt lat="45.118301984154755" lon="10.552026981701154"><ele>21.0</ele><time>2026-04-03T13:32:38Z</time></trkpt><trkpt lat="45.118300613009026" lon="10.551934251257588"><ele>21.0</ele><time>2026-04-03T13:32:39Z</time></trkpt><trkpt lat="45.11829834864689" lon="10.551838815378753"><ele>21.0</ele><time>2026-04-03T13:32:40Z</time></trkpt><trkpt lat="45.11829665254305" lon="10.551749610305222"><ele>21.0</ele><time>2026-04-03T13:32:41Z</time></trkpt><trkpt lat="45.11829084294307" lon="10.551600212358569"><ele>21.5</ele><time>2026-04-03T13:32:43Z</time></trkpt><trkpt lat="45.118284217882746" lon="10.551506639327357"><ele>22.0</ele><time>2026-04-03T13:32:44Z</time></trkpt><trkpt lat="45.11827182289484" lon="10.551398230119931"><ele>22.5</ele><time>2026-04-03T13:32:45Z</time></trkpt><trkpt lat="45.11825407486731" lon="10.551306505685151"><ele>23.0</ele><time>2026-04-03T13:32:46Z</time></trkpt><trkpt lat="45.11820270021559" lon="10.551152462279969"><ele>23.5</ele><time>2026-04-03T13:32:48Z</time></trkpt><trkpt lat="45.11816981378827" lon="10.551070249637107"><ele>24.0</ele><time>2026-04-03T13:32:49Z</time></trkpt><trkpt lat="45.11812853884462" lon="10.550995783670833"><ele>24.333333333333332</ele><time>2026-04-03T13:32:50Z</time></trkpt><trkpt lat="45.118080385697525" lon="10.550917297842574"><ele>24.666666666666664</ele><time>2026-04-03T13:32:51Z</time></trkpt><trkpt lat="45.1180200043627" lon="10.55083629228057"><ele>25.0</ele><time>2026-04-03T13:32:52Z</time></trkpt><trkpt lat="45.117949156354626" lon="10.550756612247977"><ele>25.333333333333332</ele><time>2026-04-03T13:32:53Z</time></trkpt><trkpt lat="45.117861143744506" lon="10.550677281768394"><ele>25.666666666666664</ele><time>2026-04-03T13:32:54Z</time></trkpt><trkpt lat="45.117781758555886" lon="10.550613386676968"><ele>26.0</ele><time>2026-04-03T13:32:55Z</time></trkpt><trkpt lat="45.11770943043389" lon="10.55056049153634"><ele>26.0</ele><time>2026-04-03T13:32:56Z</time></trkpt><trkpt lat="45.11762951087214" lon="10.550501454483198"><ele>26.0</ele><time>2026-04-03T13:32:57Z</time></trkpt><trkpt lat="45.11754515827153" lon="10.550443300789158"><ele>26.0</ele><time>2026-04-03T13:32:58Z</time></trkpt><trkpt lat="45.117463020612576" lon="10.550386256619836"><ele>26.0</ele><time>2026-04-03T13:32:59Z</time></trkpt><trkpt lat="45.117375720209886" lon="10.550321366871305"><ele>26.0</ele><time>2026-04-03T13:33:00Z</time></trkpt><trkpt lat="45.1172963157996" lon="10.550264117716731"><ele>25.499999999999996</ele><time>2026-04-03T13:33:01Z</time></trkpt><trkpt lat="45.11722542923545" lon="10.550218206312717"><ele>25.0</ele><time>2026-04-03T13:33:02Z</time></trkpt><trkpt lat="45.11715966000956" lon="10.55018117177656"><ele>24.5</ele><time>2026-04-03T13:33:03Z</time></trkpt><trkpt lat="45.11709398481007" lon="10.550156007923501"><ele>24.0</ele><time>2026-04-03T13:33:04Z</time></trkpt><trkpt lat="45.11701847810875" lon="10.5501371310244"><ele>23.5</ele><time>2026-04-03T13:33:05Z</time></trkpt><trkpt lat="45.116937411597746" lon="10.550130883104522"><ele>23.0</ele><time>2026-04-03T13:33:06Z</time></trkpt><trkpt lat="45.11685223143829" lon="10.55013475251417"><ele>23.0</ele><time>2026-04-03T13:33:07Z</time></trkpt><trkpt lat="45.116763882280296" lon="10.55014173763201"><ele>23.0</ele><time>2026-04-03T13:33:08Z</time></trkpt><trkpt lat="45.11669191331163" lon="10.550148095096821"><ele>23.0</ele><time>2026-04-03T13:33:09Z</time></trkpt><trkpt lat="45.116582184926905" lon="10.550150526555608"><ele>23.0</ele><time>2026-04-03T13:33:11Z</time></trkpt><trkpt lat="45.11645274626529" lon="10.550144141003212"><ele>23.0</ele><time>2026-04-03T13:33:13Z</time></trkpt><trkpt lat="45.11638007168778" lon="10.550142582775784"><ele>22.833333333333336</ele><time>2026-04-03T13:33:14Z</time></trkpt><trkpt lat="45.11630316787751" lon="10.550142551932154"><ele>22.666666666666668</ele><time>2026-04-03T13:33:15Z</time></trkpt><trkpt lat="45.11621309318581" lon="10.550140645266222"><ele>22.5</ele><time>2026-04-03T13:33:16Z</time></trkpt><trkpt lat="45.11612673687019" lon="10.550141251830887"><ele>22.333333333333332</ele><time>2026-04-03T13:33:17Z</time></trkpt><trkpt lat="45.11604187288813" lon="10.550140851393571"><ele>22.166666666666664</ele><time>2026-04-03T13:33:18Z</time></trkpt><trkpt lat="45.11596259200566" lon="10.55014111958855"><ele>22.0</ele><time>2026-04-03T13:33:19Z</time></trkpt><trkpt lat="45.11589519436777" lon="10.55014296561714"><ele>22.0</ele><time>2026-04-03T13:33:20Z</time></trkpt><trkpt lat="45.115821651774944" lon="10.550145414956258"><ele>22.0</ele><time>2026-04-03T13:33:21Z</time></trkpt><trkpt lat="45.11573347184271" lon="10.550150405263697"><ele>22.0</ele><time>2026-04-03T13:33:22Z</time></trkpt><trkpt lat="45.115643924177185" lon="10.550151284376945"><ele>22.0</ele><time>2026-04-03T13:33:23Z</time></trkpt><trkpt lat="45.11555444685188" lon="10.550151205314672"><ele>22.0</ele><time>2026-04-03T13:33:24Z</time></trkpt><trkpt lat="45.11546570055957" lon="10.55014889093926"><ele>22.0</ele><time>2026-04-03T13:33:25Z</time></trkpt><trkpt lat="45.1153803413209" lon="10.550145596152097"><ele>21.833333333333332</ele><time>2026-04-03T13:33:26Z</time></trkpt><trkpt lat="45.11529973512138" lon="10.550135860837786"><ele>21.666666666666664</ele><time>2026-04-03T13:33:27Z</time></trkpt><trkpt lat="45.115223029461866" lon="10.55011388963023"><ele>21.5</ele><time>2026-04-03T13:33:28Z</time></trkpt><trkpt lat="45.11514685894645" lon="10.550090480439616"><ele>21.333333333333332</ele><time>2026-04-03T13:33:29Z</time></trkpt><trkpt lat="45.115066379147315" lon="10.550063656629879"><ele>21.166666666666668</ele><time>2026-04-03T13:33:30Z</time></trkpt><trkpt lat="45.114987003291816" lon="10.550037383866972"><ele>21.0</ele><time>2026-04-03T13:33:31Z</time></trkpt><trkpt lat="45.11490984621878" lon="10.550014322862388"><ele>21.666666666666668</ele><time>2026-04-03T13:33:32Z</time></trkpt><trkpt lat="45.114830661460616" lon="10.550001767722867"><ele>22.333333333333336</ele><time>2026-04-03T13:33:33Z</time></trkpt><trkpt lat="45.11475028968222" lon="10.549998407859292"><ele>23.0</ele><time>2026-04-03T13:33:34Z</time></trkpt><trkpt lat="45.1146698955868" lon="10.550002010449763"><ele>23.666666666666668</ele><time>2026-04-03T13:33:35Z</time></trkpt><trkpt lat="45.114591230227354" lon="10.550010486225982"><ele>24.333333333333336</ele><time>2026-04-03T13:33:36Z</time></trkpt><trkpt lat="45.114519756946436" lon="10.550021080968078"><ele>25.0</ele><time>2026-04-03T13:33:37Z</time></trkpt><trkpt lat="45.11445136673988" lon="10.550030054492568"><ele>25.000000000000004</ele><time>2026-04-03T13:33:38Z</time></trkpt><trkpt lat="45.11434608881571" lon="10.550032737223907"><ele>25.0</ele><time>2026-04-03T13:33:40Z</time></trkpt><trkpt lat="45.11426013230728" lon="10.550007304018385"><ele>25.0</ele><time>2026-04-03T13:33:42Z</time></trkpt><trkpt lat="45.114198817273326" lon="10.549964134530795"><ele>25.0</ele><time>2026-04-03T13:33:43Z</time></trkpt><trkpt lat="45.11412930688993" lon="10.549895595805088"><ele>25.000000000000004</ele><time>2026-04-03T13:33:44Z</time></trkpt><trkpt lat="45.11405878367305" lon="10.549806028454874"><ele>25.0</ele><time>2026-04-03T13:33:45Z</time></trkpt><trkpt lat="45.11399327148825" lon="10.549710819441263"><ele>25.4</ele><time>2026-04-03T13:33:46Z</time></trkpt><trkpt lat="45.113930587200976" lon="10.54961585048348"><ele>25.8</ele><time>2026-04-03T13:33:47Z</time></trkpt><trkpt lat="45.113861485934954" lon="10.549518907514946"><ele>26.200000000000003</ele><time>2026-04-03T13:33:48Z</time></trkpt><trkpt lat="45.11378585878245" lon="10.549425003719128"><ele>26.6</ele><time>2026-04-03T13:33:49Z</time></trkpt><trkpt lat="45.11369966125227" lon="10.549332097213533"><ele>27.0</ele><time>2026-04-03T13:33:50Z</time></trkpt><trkpt lat="45.11362709785462" lon="10.549265820409174"><ele>27.0</ele><time>2026-04-03T13:33:51Z</time></trkpt><trkpt lat="45.11355676138463" lon="10.549216979415029"><ele>27.0</ele><time>2026-04-03T13:33:52Z</time></trkpt><trkpt lat="45.1134811279023" lon="10.549165682260188"><ele>27.0</ele><time>2026-04-03T13:33:53Z</time></trkpt><trkpt lat="45.113401052796206" lon="10.549104147008117"><ele>27.0</ele><time>2026-04-03T13:33:54Z</time></trkpt><trkpt lat="45.11332813349419" lon="10.549044729203011"><ele>27.0</ele><time>2026-04-03T13:33:55Z</time></trkpt><trkpt lat="45.113255092942275" lon="10.548984351264648"><ele>27.0</ele><time>2026-04-03T13:33:56Z</time></trkpt><trkpt lat="45.11318631776659" lon="10.54891871386418"><ele>26.833333333333332</ele><time>2026-04-03T13:33:57Z</time></trkpt><trkpt lat="45.11311528969104" lon="10.548844056557144"><ele>26.666666666666664</ele><time>2026-04-03T13:33:58Z</time></trkpt><trkpt lat="45.11304746998903" lon="10.548764492826841"><ele>26.5</ele><time>2026-04-03T13:33:59Z</time></trkpt><trkpt lat="45.112986999112145" lon="10.548682166609876"><ele>26.333333333333332</ele><time>2026-04-03T13:34:00Z</time></trkpt><trkpt lat="45.11292930564405" lon="10.548590755688023"><ele>26.166666666666664</ele><time>2026-04-03T13:34:01Z</time></trkpt><trkpt lat="45.11287254658139" lon="10.548493332912722"><ele>26.0</ele><time>2026-04-03T13:34:02Z</time></trkpt><trkpt lat="45.11281484600879" lon="10.548397706500147"><ele>25.999999999999996</ele><time>2026-04-03T13:34:03Z</time></trkpt><trkpt lat="45.11275705183517" lon="10.548301922776702"><ele>26.0</ele><time>2026-04-03T13:34:04Z</time></trkpt><trkpt lat="45.11270080623698" lon="10.548205309064858"><ele>26.0</ele><time>2026-04-03T13:34:05Z</time></trkpt><trkpt lat="45.112650429498224" lon="10.548115999165514"><ele>26.0</ele><time>2026-04-03T13:34:06Z</time></trkpt><trkpt lat="45.11260461347118" lon="10.548029658912498"><ele>25.999999999999996</ele><time>2026-04-03T13:34:07Z</time></trkpt><trkpt lat="45.11255090403328" lon="10.54793108038905"><ele>26.0</ele><time>2026-04-03T13:34:08Z</time></trkpt><trkpt lat="45.11250145791949" lon="10.547834508442362"><ele>25.666666666666664</ele><time>2026-04-03T13:34:09Z</time></trkpt><trkpt lat="45.11245749184446" lon="10.547742145568051"><ele>25.333333333333332</ele><time>2026-04-03T13:34:10Z</time></trkpt><trkpt lat="45.112422967154714" lon="10.547659267152723"><ele>25.0</ele><time>2026-04-03T13:34:11Z</time></trkpt><trkpt lat="45.11239386135223" lon="10.54757683908455"><ele>24.666666666666664</ele><time>2026-04-03T13:34:12Z</time></trkpt><trkpt lat="45.11236990169676" lon="10.547488021477163"><ele>24.333333333333332</ele><time>2026-04-03T13:34:13Z</time></trkpt><trkpt lat="45.11234742145572" lon="10.547319109690202"><ele>24.0</ele><time>2026-04-03T13:34:15Z</time></trkpt><trkpt lat="45.11235145468596" lon="10.547226453398194"><ele>23.5</ele><time>2026-04-03T13:34:16Z</time></trkpt><trkpt lat="45.1123680357109" lon="10.547123841061143"><ele>23.0</ele><time>2026-04-03T13:34:17Z</time></trkpt><trkpt lat="45.1123971317953" lon="10.54701562972125"><ele>22.5</ele><time>2026-04-03T13:34:18Z</time></trkpt><trkpt lat="45.11243254095309" lon="10.546915225595079"><ele>22.0</ele><time>2026-04-03T13:34:19Z</time></trkpt><trkpt lat="45.112474134167314" lon="10.546810781166778"><ele>21.5</ele><time>2026-04-03T13:34:20Z</time></trkpt><trkpt lat="45.11251834984741" lon="10.54671101907137"><ele>21.0</ele><time>2026-04-03T13:34:21Z</time></trkpt><trkpt lat="45.11257068247834" lon="10.546611078581323"><ele>21.0</ele><time>2026-04-03T13:34:22Z</time></trkpt><trkpt lat="45.11263106127826" lon="10.546513643551783"><ele>21.0</ele><time>2026-04-03T13:34:23Z</time></trkpt><trkpt lat="45.11269526939894" lon="10.54642110186186"><ele>21.0</ele><time>2026-04-03T13:34:24Z</time></trkpt><trkpt lat="45.112758193795976" lon="10.546329361761932"><ele>21.0</ele><time>2026-04-03T13:34:25Z</time></trkpt><trkpt lat="45.11282068792867" lon="10.546245197325389"><ele>21.0</ele><time>2026-04-03T13:34:26Z</time></trkpt><trkpt lat="45.112882835200345" lon="10.546162446145168"><ele>21.0</ele><time>2026-04-03T13:34:27Z</time></trkpt><trkpt lat="45.11294474184656" lon="10.546079652333463"><ele>20.833333333333332</ele><time>2026-04-03T13:34:28Z</time></trkpt><trkpt lat="45.11300576417851" lon="10.545998162922492"><ele>20.666666666666668</ele><time>2026-04-03T13:34:29Z</time></trkpt><trkpt lat="45.113059751871354" lon="10.545918627051458"><ele>20.5</ele><time>2026-04-03T13:34:30Z</time></trkpt><trkpt lat="45.11311888994088" lon="10.54583376114592"><ele>20.333333333333336</ele><time>2026-04-03T13:34:31Z</time></trkpt><trkpt lat="45.11317644998617" lon="10.545747416089217"><ele>20.166666666666668</ele><time>2026-04-03T13:34:32Z</time></trkpt><trkpt lat="45.11323160018327" lon="10.545657133647701"><ele>20.0</ele><time>2026-04-03T13:34:33Z</time></trkpt><trkpt lat="45.113285190086145" lon="10.545569728198586"><ele>20.0</ele><time>2026-04-03T13:34:34Z</time></trkpt><trkpt lat="45.1133450299674" lon="10.545469305722284"><ele>20.0</ele><time>2026-04-03T13:34:35Z</time></trkpt><trkpt lat="45.113402372215475" lon="10.545367371745247"><ele>20.0</ele><time>2026-04-03T13:34:36Z</time></trkpt><trkpt lat="45.113458885671434" lon="10.545261690560539"><ele>20.0</ele><time>2026-04-03T13:34:37Z</time></trkpt><trkpt lat="45.11351869392792" lon="10.545146977813024"><ele>20.0</ele><time>2026-04-03T13:34:38Z</time></trkpt><trkpt lat="45.11357712769997" lon="10.545027901262204"><ele>20.0</ele><time>2026-04-03T13:34:39Z</time></trkpt><trkpt lat="45.11362790584993" lon="10.54492092659386"><ele>20.0</ele><time>2026-04-03T13:34:40Z</time></trkpt><trkpt lat="45.11367125791409" lon="10.544816431675654"><ele>20.0</ele><time>2026-04-03T13:34:41Z</time></trkpt><trkpt lat="45.113709239424516" lon="10.544723507206363"><ele>20.0</ele><time>2026-04-03T13:34:42Z</time></trkpt><trkpt lat="45.11374486666969" lon="10.54463713914796"><ele>20.0</ele><time>2026-04-03T13:34:43Z</time></trkpt><trkpt lat="45.1137791850865" lon="10.544553035703041"><ele>20.0</ele><time>2026-04-03T13:34:44Z</time></trkpt><trkpt lat="45.1138148287879" lon="10.54446685758065"><ele>20.0</ele><time>2026-04-03T13:34:45Z</time></trkpt><trkpt lat="45.11384904533008" lon="10.544384317513126"><ele>20.0</ele><time>2026-04-03T13:34:46Z</time></trkpt><trkpt lat="45.11388266236816" lon="10.544297247684604"><ele>20.0</ele><time>2026-04-03T13:34:47Z</time></trkpt><trkpt lat="45.11392173642077" lon="10.544199897819652"><ele>20.0</ele><time>2026-04-03T13:34:48Z</time></trkpt><trkpt lat="45.11395906542724" lon="10.544112760741207"><ele>20.0</ele><time>2026-04-03T13:34:49Z</time></trkpt><trkpt lat="45.11399922565929" lon="10.544009648889876"><ele>20.0</ele><time>2026-04-03T13:34:50Z</time></trkpt><trkpt lat="45.11403574441697" lon="10.543914377919306"><ele>20.0</ele><time>2026-04-03T13:34:51Z</time></trkpt><trkpt lat="45.11406444111024" lon="10.543831548654907"><ele>20.333333333333336</ele><time>2026-04-03T13:34:52Z</time></trkpt><trkpt lat="45.11411400119202" lon="10.543690854683478"><ele>20.666666666666668</ele><time>2026-04-03T13:34:54Z</time></trkpt><trkpt lat="45.11414121890534" lon="10.543608925720225"><ele>21.0</ele><time>2026-04-03T13:34:55Z</time></trkpt><trkpt lat="45.11416246074437" lon="10.543519323327997"><ele>21.333333333333332</ele><time>2026-04-03T13:34:56Z</time></trkpt><trkpt lat="45.11418222518706" lon="10.543430059968959"><ele>21.666666666666664</ele><time>2026-04-03T13:34:57Z</time></trkpt><trkpt lat="45.1142160968484" lon="10.543257326202557"><ele>22.0</ele><time>2026-04-03T13:34:59Z</time></trkpt><trkpt lat="45.11423061238537" lon="10.543166928040948"><ele>22.0</ele><time>2026-04-03T13:35:00Z</time></trkpt><trkpt lat="45.114245695201426" lon="10.543073032146683"><ele>22.0</ele><time>2026-04-03T13:35:01Z</time></trkpt><trkpt lat="45.11425895019288" lon="10.542982538953833"><ele>22.0</ele><time>2026-04-03T13:35:02Z</time></trkpt><trkpt lat="45.114271953309725" lon="10.542891036112284"><ele>22.0</ele><time>2026-04-03T13:35:03Z</time></trkpt><trkpt lat="45.1142983194998" lon="10.542710561569285"><ele>22.0</ele><time>2026-04-03T13:35:05Z</time></trkpt><trkpt lat="45.114318475196484" lon="10.54262445941306"><ele>22.0</ele><time>2026-04-03T13:35:06Z</time></trkpt><trkpt lat="45.11435739822433" lon="10.54246172253952"><ele>22.0</ele><time>2026-04-03T13:35:08Z</time></trkpt><trkpt lat="45.114397219165404" lon="10.542311505330204"><ele>22.0</ele><time>2026-04-03T13:35:10Z</time></trkpt><trkpt lat="45.114438767406995" lon="10.542166737908437"><ele>22.0</ele><time>2026-04-03T13:35:12Z</time></trkpt><trkpt lat="45.114472656289635" lon="10.542030312426498"><ele>22.0</ele><time>2026-04-03T13:35:14Z</time></trkpt><trkpt lat="45.11450836272631" lon="10.54191416184791"><ele>22.0</ele><time>2026-04-03T13:35:16Z</time></trkpt><trkpt lat="45.11455250635636" lon="10.541796981945376"><ele>22.400000000000002</ele><time>2026-04-03T13:35:18Z</time></trkpt><trkpt lat="45.114607558192034" lon="10.541668610581926"><ele>22.8</ele><time>2026-04-03T13:35:20Z</time></trkpt><trkpt lat="45.1146597367593" lon="10.541540070395554"><ele>23.2</ele><time>2026-04-03T13:35:22Z</time></trkpt><trkpt lat="45.11471747128803" lon="10.541417626681923"><ele>23.6</ele><time>2026-04-03T13:35:24Z</time></trkpt><trkpt lat="45.11478383764523" lon="10.541267481780567"><ele>24.0</ele><time>2026-04-03T13:35:26Z</time></trkpt><trkpt lat="45.11481867832187" lon="10.541188259698066"><ele>24.0</ele><time>2026-04-03T13:35:27Z</time></trkpt><trkpt lat="45.11488065832217" lon="10.54103775520943"><ele>24.0</ele><time>2026-04-03T13:35:29Z</time></trkpt><trkpt lat="45.11491260318644" lon="10.540952374002293"><ele>24.0</ele><time>2026-04-03T13:35:30Z</time></trkpt><trkpt lat="45.11494851317687" lon="10.54086508232796"><ele>24.0</ele><time>2026-04-03T13:35:31Z</time></trkpt><trkpt lat="45.11498497801333" lon="10.540777224190542"><ele>24.0</ele><time>2026-04-03T13:35:32Z</time></trkpt><trkpt lat="45.1150230327033" lon="10.540688928184565"><ele>24.0</ele><time>2026-04-03T13:35:33Z</time></trkpt><trkpt lat="45.11505604550195" lon="10.540604547215679"><ele>23.666666666666668</ele><time>2026-04-03T13:35:34Z</time></trkpt><trkpt lat="45.11508720387764" lon="10.540526861381888"><ele>23.333333333333332</ele><time>2026-04-03T13:35:35Z</time></trkpt><trkpt lat="45.115123688440114" lon="10.540438229779745"><ele>23.0</ele><time>2026-04-03T13:35:36Z</time></trkpt><trkpt lat="45.115159267126046" lon="10.540362711092108"><ele>22.666666666666664</ele><time>2026-04-03T13:35:37Z</time></trkpt><trkpt lat="45.115230360395095" lon="10.540225385292091"><ele>22.333333333333332</ele><time>2026-04-03T13:35:39Z</time></trkpt><trkpt lat="45.11527403012305" lon="10.540150321827383"><ele>22.0</ele><time>2026-04-03T13:35:40Z</time></trkpt><trkpt lat="45.11532654429513" lon="10.540075573425058"><ele>22.571428571428573</ele><time>2026-04-03T13:35:41Z</time></trkpt><trkpt lat="45.115378597406774" lon="10.540007428211904"><ele>23.142857142857142</ele><time>2026-04-03T13:35:42Z</time></trkpt><trkpt lat="45.11543518151006" lon="10.53993532776705"><ele>23.714285714285715</ele><time>2026-04-03T13:35:43Z</time></trkpt><trkpt lat="45.115493365112165" lon="10.539863345766802"><ele>24.285714285714285</ele><time>2026-04-03T13:35:44Z</time></trkpt><trkpt lat="45.11554602492079" lon="10.539793803397554"><ele>24.857142857142858</ele><time>2026-04-03T13:35:45Z</time></trkpt><trkpt lat="45.11559872555198" lon="10.539719935627433"><ele>25.428571428571427</ele><time>2026-04-03T13:35:46Z</time></trkpt><trkpt lat="45.115652808182354" lon="10.539638257523963"><ele>26.0</ele><time>2026-04-03T13:35:47Z</time></trkpt><trkpt lat="45.11570018243756" lon="10.539558784671458"><ele>25.666666666666664</ele><time>2026-04-03T13:35:48Z</time></trkpt><trkpt lat="45.11575236726074" lon="10.53946840141316"><ele>25.333333333333332</ele><time>2026-04-03T13:35:49Z</time></trkpt><trkpt lat="45.11580044561182" lon="10.539379447342586"><ele>25.0</ele><time>2026-04-03T13:35:50Z</time></trkpt><trkpt lat="45.11584576038998" lon="10.539295257513167"><ele>24.666666666666664</ele><time>2026-04-03T13:35:51Z</time></trkpt><trkpt lat="45.11588823631437" lon="10.539207589718178"><ele>24.333333333333332</ele><time>2026-04-03T13:35:52Z</time></trkpt><trkpt lat="45.11592851188213" lon="10.539115196869174"><ele>24.0</ele><time>2026-04-03T13:35:53Z</time></trkpt><trkpt lat="45.11596851131428" lon="10.539019364305394"><ele>24.0</ele><time>2026-04-03T13:35:54Z</time></trkpt><trkpt lat="45.116006479894175" lon="10.538920186640508"><ele>24.0</ele><time>2026-04-03T13:35:55Z</time></trkpt><trkpt lat="45.116037482345064" lon="10.538824748047602"><ele>24.0</ele><time>2026-04-03T13:35:56Z</time></trkpt><trkpt lat="45.11606615165964" lon="10.538731926272812"><ele>24.0</ele><time>2026-04-03T13:35:57Z</time></trkpt><trkpt lat="45.11609325603508" lon="10.538635439496247"><ele>24.0</ele><time>2026-04-03T13:35:58Z</time></trkpt><trkpt lat="45.11612146766311" lon="10.538537298267387"><ele>24.0</ele><time>2026-04-03T13:35:59Z</time></trkpt><trkpt lat="45.116145914207564" lon="10.538431107083516"><ele>23.833333333333332</ele><time>2026-04-03T13:36:00Z</time></trkpt><trkpt lat="45.11616861860862" lon="10.538328235799264"><ele>23.666666666666668</ele><time>2026-04-03T13:36:01Z</time></trkpt><trkpt lat="45.116182469525256" lon="10.538228600502578"><ele>23.5</ele><time>2026-04-03T13:36:02Z</time></trkpt><trkpt lat="45.11619327866425" lon="10.538125010998463"><ele>23.333333333333336</ele><time>2026-04-03T13:36:03Z</time></trkpt><trkpt lat="45.11620496359338" lon="10.538013276773185"><ele>23.166666666666668</ele><time>2026-04-03T13:36:04Z</time></trkpt><trkpt lat="45.11621347887486" lon="10.537907750815169"><ele>23.0</ele><time>2026-04-03T13:36:05Z</time></trkpt><trkpt lat="45.11622011642445" lon="10.537799598437292"><ele>23.0</ele><time>2026-04-03T13:36:06Z</time></trkpt><trkpt lat="45.116220884561315" lon="10.537699559321148"><ele>23.0</ele><time>2026-04-03T13:36:07Z</time></trkpt><trkpt lat="45.11621792465378" lon="10.537599451575685"><ele>23.0</ele><time>2026-04-03T13:36:08Z</time></trkpt><trkpt lat="45.116212988614976" lon="10.537496203016252"><ele>23.0</ele><time>2026-04-03T13:36:09Z</time></trkpt><trkpt lat="45.11620319912022" lon="10.53738141719483"><ele>23.0</ele><time>2026-04-03T13:36:10Z</time></trkpt><trkpt lat="45.11620068802368" lon="10.537269983124359"><ele>23.0</ele><time>2026-04-03T13:36:11Z</time></trkpt><trkpt lat="45.11619510563641" lon="10.537158181294352"><ele>22.833333333333336</ele><time>2026-04-03T13:36:12Z</time></trkpt><trkpt lat="45.11618397636581" lon="10.537051741043415"><ele>22.666666666666668</ele><time>2026-04-03T13:36:13Z</time></trkpt><trkpt lat="45.11617109601807" lon="10.536945565716561"><ele>22.5</ele><time>2026-04-03T13:36:14Z</time></trkpt><trkpt lat="45.116158324005596" lon="10.536839365805555"><ele>22.333333333333332</ele><time>2026-04-03T13:36:15Z</time></trkpt><trkpt lat="45.11614358154667" lon="10.536737945774961"><ele>22.166666666666664</ele><time>2026-04-03T13:36:16Z</time></trkpt><trkpt lat="45.11613206983341" lon="10.536645120171004"><ele>22.0</ele><time>2026-04-03T13:36:17Z</time></trkpt><trkpt lat="45.11611808761412" lon="10.536473709645183"><ele>22.0</ele><time>2026-04-03T13:36:19Z</time></trkpt><trkpt lat="45.11610735247101" lon="10.53638259757857"><ele>22.0</ele><time>2026-04-03T13:36:20Z</time></trkpt><trkpt lat="45.11607591737372" lon="10.53622700059419"><ele>22.0</ele><time>2026-04-03T13:36:22Z</time></trkpt><trkpt lat="45.116054561091715" lon="10.536130294200593"><ele>22.0</ele><time>2026-04-03T13:36:23Z</time></trkpt><trkpt lat="45.116007525314956" lon="10.535926852475678"><ele>22.0</ele><time>2026-04-03T13:36:25Z</time></trkpt><trkpt lat="45.115976967304036" lon="10.535827208641088"><ele>22.285714285714285</ele><time>2026-04-03T13:36:26Z</time></trkpt><trkpt lat="45.115943246042676" lon="10.535733486046261"><ele>22.57142857142857</ele><time>2026-04-03T13:36:27Z</time></trkpt><trkpt lat="45.11590410869835" lon="10.53565053842039"><ele>22.857142857142854</ele><time>2026-04-03T13:36:28Z</time></trkpt><trkpt lat="45.115869375674485" lon="10.53556332119871"><ele>23.142857142857142</ele><time>2026-04-03T13:36:29Z</time></trkpt><trkpt lat="45.11583178536383" lon="10.535474542923227"><ele>23.428571428571427</ele><time>2026-04-03T13:36:30Z</time></trkpt><trkpt lat="45.115796577848485" lon="10.535384859701432"><ele>23.71428571428571</ele><time>2026-04-03T13:36:31Z</time></trkpt><trkpt lat="45.11575764449886" lon="10.535300050108875"><ele>24.0</ele><time>2026-04-03T13:36:32Z</time></trkpt><trkpt lat="45.11571438119326" lon="10.535218023738208"><ele>24.857142857142854</ele><time>2026-04-03T13:36:33Z</time></trkpt><trkpt lat="45.115675718862114" lon="10.535138365124363"><ele>25.714285714285715</ele><time>2026-04-03T13:36:34Z</time></trkpt><trkpt lat="45.11564064470988" lon="10.53505366143692"><ele>26.57142857142857</ele><time>2026-04-03T13:36:35Z</time></trkpt><trkpt lat="45.115609300342676" lon="10.534959522299687"><ele>27.428571428571427</ele><time>2026-04-03T13:36:36Z</time></trkpt><trkpt lat="45.1155751668631" lon="10.534864901501185"><ele>28.285714285714285</ele><time>2026-04-03T13:36:37Z</time></trkpt><trkpt lat="45.11554673943679" lon="10.534779185135285"><ele>29.142857142857142</ele><time>2026-04-03T13:36:38Z</time></trkpt><trkpt lat="45.11552039078905" lon="10.53469480586189"><ele>30.0</ele><time>2026-04-03T13:36:39Z</time></trkpt><trkpt lat="45.11549003219802" lon="10.53461454713487"><ele>30.166666666666668</ele><time>2026-04-03T13:36:40Z</time></trkpt><trkpt lat="45.11545195323246" lon="10.534531030407596"><ele>30.333333333333336</ele><time>2026-04-03T13:36:41Z</time></trkpt><trkpt lat="45.11542100460051" lon="10.534439899794775"><ele>30.5</ele><time>2026-04-03T13:36:42Z</time></trkpt><trkpt lat="45.11539174166983" lon="10.534277260577843"><ele>30.666666666666668</ele><time>2026-04-03T13:36:44Z</time></trkpt><trkpt lat="45.11536866413359" lon="10.534104474330853"><ele>30.833333333333336</ele><time>2026-04-03T13:36:46Z</time></trkpt><trkpt lat="45.11536998572332" lon="10.534012471020842"><ele>31.0</ele><time>2026-04-03T13:36:47Z</time></trkpt><trkpt lat="45.115360996822254" lon="10.533838439287853"><ele>31.000000000000004</ele><time>2026-04-03T13:36:49Z</time></trkpt><trkpt lat="45.11535428770297" lon="10.533745398786825"><ele>31.0</ele><time>2026-04-03T13:36:50Z</time></trkpt><trkpt lat="45.115348894406594" lon="10.533648602548674"><ele>31.0</ele><time>2026-04-03T13:36:51Z</time></trkpt><trkpt lat="45.11534064608195" lon="10.533483824873889"><ele>31.0</ele><time>2026-04-03T13:36:53Z</time></trkpt><trkpt lat="45.115339824668" lon="10.533352634917112"><ele>31.000000000000004</ele><time>2026-04-03T13:36:55Z</time></trkpt><trkpt lat="45.11534573505719" lon="10.533217917112117"><ele>31.0</ele><time>2026-04-03T13:36:57Z</time></trkpt><trkpt lat="45.115353437355076" lon="10.533065730665843"><ele>30.6</ele><time>2026-04-03T13:36:59Z</time></trkpt><trkpt lat="45.11536287600268" lon="10.53291024629657"><ele>30.200000000000003</ele><time>2026-04-03T13:37:01Z</time></trkpt><trkpt lat="45.11538572062666" lon="10.532751607705098"><ele>29.799999999999997</ele><time>2026-04-03T13:37:03Z</time></trkpt><trkpt lat="45.11540277453446" lon="10.532609615084814"><ele>29.4</ele><time>2026-04-03T13:37:05Z</time></trkpt><trkpt lat="45.11541682886832" lon="10.532468394967513"><ele>29.0</ele><time>2026-04-03T13:37:07Z</time></trkpt><trkpt lat="45.1154461207784" lon="10.532375161915905"><ele>28.799999999999997</ele><time>2026-04-03T13:37:09Z</time></trkpt><trkpt lat="45.11552835017318" lon="10.532341997709224"><ele>28.599999999999998</ele><time>2026-04-03T13:37:11Z</time></trkpt><trkpt lat="45.115626621841876" lon="10.532363703555784"><ele>28.4</ele><time>2026-04-03T13:37:13Z</time></trkpt><trkpt lat="45.11570912961069" lon="10.532410827897237"><ele>28.2</ele><time>2026-04-03T13:37:15Z</time></trkpt><trkpt lat="45.11581277761511" lon="10.5324590226468"><ele>28.0</ele><time>2026-04-03T13:37:17Z</time></trkpt><trkpt lat="45.115913563267654" lon="10.532512310399586"><ele>28.0</ele><time>2026-04-03T13:37:19Z</time></trkpt><trkpt lat="45.11600063943591" lon="10.532560087018776"><ele>27.999999999999996</ele><time>2026-04-03T13:37:21Z</time></trkpt><trkpt lat="45.116090460311" lon="10.532536199177281"><ele>27.999999999999996</ele><time>2026-04-03T13:37:23Z</time></trkpt><trkpt lat="45.11616128720885" lon="10.532569892468771"><ele>28.0</ele><time>2026-04-03T13:37:25Z</time></trkpt><trkpt lat="45.11622867477626" lon="10.532602727007754"><ele>28.0</ele><time>2026-04-03T13:37:32Z</time></trkpt><trkpt lat="45.11635622949731" lon="10.532636436065186"><ele>28.0</ele><time>2026-04-03T13:37:34Z</time></trkpt><trkpt lat="45.1164526014035" lon="10.532686997822866"><ele>27.999999999999996</ele><time>2026-04-03T13:37:35Z</time></trkpt><trkpt lat="45.11655082811785" lon="10.532730776829581"><ele>27.999999999999996</ele><time>2026-04-03T13:37:36Z</time></trkpt><trkpt lat="45.11664743254497" lon="10.532774556734367"><ele>28.0</ele><time>2026-04-03T13:37:37Z</time></trkpt><trkpt lat="45.116750301692875" lon="10.532822494274388"><ele>28.0</ele><time>2026-04-03T13:37:38Z</time></trkpt><trkpt lat="45.116848523333324" lon="10.532869245226594"><ele>27.4</ele><time>2026-04-03T13:37:39Z</time></trkpt><trkpt lat="45.1169477573558" lon="10.532920438940115"><ele>26.799999999999997</ele><time>2026-04-03T13:37:40Z</time></trkpt><trkpt lat="45.11704914242354" lon="10.532968033372347"><ele>26.2</ele><time>2026-04-03T13:37:41Z</time></trkpt><trkpt lat="45.117158614599234" lon="10.53302102335332"><ele>25.6</ele><time>2026-04-03T13:37:42Z</time></trkpt><trkpt lat="45.117264648881175" lon="10.533077448856556"><ele>25.0</ele><time>2026-04-03T13:37:43Z</time></trkpt><trkpt lat="45.117366101337005" lon="10.533125676080408"><ele>25.2</ele><time>2026-04-03T13:37:44Z</time></trkpt><trkpt lat="45.11746968169869" lon="10.53316903304495"><ele>25.4</ele><time>2026-04-03T13:37:45Z</time></trkpt><trkpt lat="45.11757206510652" lon="10.533208759293386"><ele>25.6</ele><time>2026-04-03T13:37:46Z</time></trkpt><trkpt lat="45.11767652547798" lon="10.533238549105997"><ele>25.8</ele><time>2026-04-03T13:37:47Z</time></trkpt><trkpt lat="45.11778539867908" lon="10.533271868304354"><ele>26.0</ele><time>2026-04-03T13:37:48Z</time></trkpt><trkpt lat="45.11788377004325" lon="10.533300560464049"><ele>26.0</ele><time>2026-04-03T13:37:49Z</time></trkpt><trkpt lat="45.11798014429155" lon="10.533332654559276"><ele>26.0</ele><time>2026-04-03T13:37:50Z</time></trkpt><trkpt lat="45.118082346963014" lon="10.533372672012254"><ele>26.0</ele><time>2026-04-03T13:37:51Z</time></trkpt><trkpt lat="45.11819115323575" lon="10.533409438375203"><ele>26.0</ele><time>2026-04-03T13:37:52Z</time></trkpt><trkpt lat="45.11829850843242" lon="10.533446892595363"><ele>26.0</ele><time>2026-04-03T13:37:53Z</time></trkpt><trkpt lat="45.1184028604202" lon="10.5334917198991"><ele>26.0</ele><time>2026-04-03T13:37:54Z</time></trkpt><trkpt lat="45.1185084851227" lon="10.5335516415517"><ele>26.0</ele><time>2026-04-03T13:37:55Z</time></trkpt><trkpt lat="45.118617768497" lon="10.533617613124058"><ele>26.0</ele><time>2026-04-03T13:37:56Z</time></trkpt><trkpt lat="45.11873165443406" lon="10.533681833258292"><ele>26.0</ele><time>2026-04-03T13:37:57Z</time></trkpt><trkpt lat="45.11884467617027" lon="10.533746103553606"><ele>26.0</ele><time>2026-04-03T13:37:58Z</time></trkpt><trkpt lat="45.11895318647875" lon="10.533806686455195"><ele>26.0</ele><time>2026-04-03T13:37:59Z</time></trkpt><trkpt lat="45.1190526100645" lon="10.533866522901311"><ele>26.0</ele><time>2026-04-03T13:38:00Z</time></trkpt><trkpt lat="45.119153729839624" lon="10.53393371418863"><ele>26.0</ele><time>2026-04-03T13:38:01Z</time></trkpt><trkpt lat="45.11925840477618" lon="10.534008583504283"><ele>26.0</ele><time>2026-04-03T13:38:02Z</time></trkpt><trkpt lat="45.119365324891355" lon="10.534099668658751"><ele>26.0</ele><time>2026-04-03T13:38:03Z</time></trkpt><trkpt lat="45.119467108959675" lon="10.534211184748026"><ele>26.0</ele><time>2026-04-03T13:38:04Z</time></trkpt><trkpt lat="45.11956228392608" lon="10.534316263396622"><ele>26.0</ele><time>2026-04-03T13:38:05Z</time></trkpt><trkpt lat="45.11965303578501" lon="10.534409524580377"><ele>26.0</ele><time>2026-04-03T13:38:06Z</time></trkpt><trkpt lat="45.11974368799352" lon="10.534497026798714"><ele>26.0</ele><time>2026-04-03T13:38:07Z</time></trkpt><trkpt lat="45.11983838830159" lon="10.534589178664058"><ele>26.0</ele><time>2026-04-03T13:38:08Z</time></trkpt><trkpt lat="45.11993937916143" lon="10.534685247168078"><ele>26.0</ele><time>2026-04-03T13:38:09Z</time></trkpt><trkpt lat="45.120044997838605" lon="10.53478275680702"><ele>25.75</ele><time>2026-04-03T13:38:10Z</time></trkpt><trkpt lat="45.120149910702324" lon="10.534881587871164"><ele>25.5</ele><time>2026-04-03T13:38:11Z</time></trkpt><trkpt lat="45.12025804847315" lon="10.534972357502582"><ele>25.25</ele><time>2026-04-03T13:38:12Z</time></trkpt><trkpt lat="45.12036696845366" lon="10.535060488898564"><ele>25.0</ele><time>2026-04-03T13:38:13Z</time></trkpt><trkpt lat="45.120474526126465" lon="10.535149368870005"><ele>25.0</ele><time>2026-04-03T13:38:14Z</time></trkpt><trkpt lat="45.12057515839548" lon="10.535240347604372"><ele>25.0</ele><time>2026-04-03T13:38:15Z</time></trkpt><trkpt lat="45.12067294414027" lon="10.535324804030985"><ele>25.0</ele><time>2026-04-03T13:38:16Z</time></trkpt><trkpt lat="45.1207675118398" lon="10.535410955846862"><ele>25.0</ele><time>2026-04-03T13:38:17Z</time></trkpt><trkpt lat="45.120866951695795" lon="10.535498452161463"><ele>25.0</ele><time>2026-04-03T13:38:18Z</time></trkpt><trkpt lat="45.12096530642506" lon="10.53558804345189"><ele>25.0</ele><time>2026-04-03T13:38:19Z</time></trkpt><trkpt lat="45.12105666325092" lon="10.53567222892369"><ele>25.0</ele><time>2026-04-03T13:38:20Z</time></trkpt><trkpt lat="45.12114091124785" lon="10.53574698426619"><ele>25.0</ele><time>2026-04-03T13:38:21Z</time></trkpt><trkpt lat="45.121221968991534" lon="10.53581696583121"><ele>25.0</ele><time>2026-04-03T13:38:22Z</time></trkpt><trkpt lat="45.121303433808066" lon="10.535891782543473"><ele>25.0</ele><time>2026-04-03T13:38:23Z</time></trkpt><trkpt lat="45.12137750443565" lon="10.535962004509113"><ele>25.0</ele><time>2026-04-03T13:38:24Z</time></trkpt><trkpt lat="45.121447906050896" lon="10.53602984848612"><ele>25.0</ele><time>2026-04-03T13:38:25Z</time></trkpt><trkpt lat="45.121522395479154" lon="10.536094250156568"><ele>25.0</ele><time>2026-04-03T13:38:26Z</time></trkpt><trkpt lat="45.12160816554736" lon="10.536169026693337"><ele>25.0</ele><time>2026-04-03T13:38:27Z</time></trkpt><trkpt lat="45.121699344892136" lon="10.536256153910978"><ele>25.0</ele><time>2026-04-03T13:38:28Z</time></trkpt><trkpt lat="45.12179200675272" lon="10.536342139013476"><ele>25.0</ele><time>2026-04-03T13:38:29Z</time></trkpt><trkpt lat="45.12188210819967" lon="10.536422361752786"><ele>25.0</ele><time>2026-04-03T13:38:30Z</time></trkpt><trkpt lat="45.12196865347868" lon="10.53649601232945"><ele>25.0</ele><time>2026-04-03T13:38:31Z</time></trkpt><trkpt lat="45.12204773584205" lon="10.536565355169618"><ele>25.0</ele><time>2026-04-03T13:38:32Z</time></trkpt><trkpt lat="45.12211500763481" lon="10.536638193659012"><ele>25.0</ele><time>2026-04-03T13:38:33Z</time></trkpt><trkpt lat="45.122204168911004" lon="10.536634072254145"><ele>25.0</ele><time>2026-04-03T13:38:34Z</time></trkpt><trkpt lat="45.1222940278159" lon="10.53662846292819"><ele>25.0</ele><time>2026-04-03T13:38:35Z</time></trkpt><trkpt lat="45.12239478121323" lon="10.53660084032955"><ele>25.0</ele><time>2026-04-03T13:38:36Z</time></trkpt><trkpt lat="45.12250233304901" lon="10.536558373094278"><ele>25.0</ele><time>2026-04-03T13:38:37Z</time></trkpt><trkpt lat="45.12261263693545" lon="10.536506395413953"><ele>25.25</ele><time>2026-04-03T13:38:38Z</time></trkpt><trkpt lat="45.12272964304085" lon="10.536470448707894"><ele>25.5</ele><time>2026-04-03T13:38:39Z</time></trkpt><trkpt lat="45.122845526561505" lon="10.536441212254605"><ele>25.75</ele><time>2026-04-03T13:38:40Z</time></trkpt><trkpt lat="45.122956702284775" lon="10.536410336216008"><ele>26.0</ele><time>2026-04-03T13:38:41Z</time></trkpt><trkpt lat="45.123058067579116" lon="10.536379472590962"><ele>25.999999999999996</ele><time>2026-04-03T13:38:42Z</time></trkpt><trkpt lat="45.12314862389658" lon="10.53634954218185"><ele>26.0</ele><time>2026-04-03T13:38:43Z</time></trkpt><trkpt lat="45.123227811774875" lon="10.53632859896703"><ele>26.0</ele><time>2026-04-03T13:38:44Z</time></trkpt><trkpt lat="45.12329462971327" lon="10.536337438539766"><ele>26.0</ele><time>2026-04-03T13:38:45Z</time></trkpt><trkpt lat="45.12336210347656" lon="10.536346908865399"><ele>25.999999999999996</ele><time>2026-04-03T13:38:46Z</time></trkpt><trkpt lat="45.1234240395898" lon="10.536419915522846"><ele>26.0</ele><time>2026-04-03T13:38:47Z</time></trkpt><trkpt lat="45.123469115172746" lon="10.536532471974905"><ele>26.0</ele><time>2026-04-03T13:38:48Z</time></trkpt><trkpt lat="45.12352544749416" lon="10.536654812855236"><ele>26.0</ele><time>2026-04-03T13:38:49Z</time></trkpt><trkpt lat="45.1235735749419" lon="10.536780894388134"><ele>26.0</ele><time>2026-04-03T13:38:50Z</time></trkpt><trkpt lat="45.123642774484054" lon="10.53687350100648"><ele>26.0</ele><time>2026-04-03T13:38:51Z</time></trkpt><trkpt lat="45.12371610222107" lon="10.536954180861477"><ele>26.0</ele><time>2026-04-03T13:38:52Z</time></trkpt><trkpt lat="45.123810436432926" lon="10.537038932027977"><ele>26.200000000000003</ele><time>2026-04-03T13:38:53Z</time></trkpt><trkpt lat="45.123910901147354" lon="10.537107372775885"><ele>26.400000000000002</ele><time>2026-04-03T13:38:54Z</time></trkpt><trkpt lat="45.12400516560013" lon="10.537188410002909"><ele>26.6</ele><time>2026-04-03T13:38:55Z</time></trkpt><trkpt lat="45.124094883434225" lon="10.537226858920576"><ele>26.8</ele><time>2026-04-03T13:38:56Z</time></trkpt><trkpt lat="45.124165377378965" lon="10.537291413599625"><ele>27.0</ele><time>2026-04-03T13:38:57Z</time></trkpt><trkpt lat="45.124241518513095" lon="10.53731832453176"><ele>27.400000000000002</ele><time>2026-04-03T13:38:58Z</time></trkpt><trkpt lat="45.12432807202822" lon="10.53734662781737"><ele>27.800000000000004</ele><time>2026-04-03T13:38:59Z</time></trkpt><trkpt lat="45.12442897018614" lon="10.537368930022744"><ele>28.2</ele><time>2026-04-03T13:39:00Z</time></trkpt><trkpt lat="45.12453972024323" lon="10.537393040319053"><ele>28.6</ele><time>2026-04-03T13:39:01Z</time></trkpt><trkpt lat="45.12466768184366" lon="10.537426155455046"><ele>29.0</ele><time>2026-04-03T13:39:02Z</time></trkpt><trkpt lat="45.12478612678734" lon="10.53746779637284"><ele>29.0</ele><time>2026-04-03T13:39:03Z</time></trkpt><trkpt lat="45.124888724774074" lon="10.537511842668842"><ele>29.0</ele><time>2026-04-03T13:39:04Z</time></trkpt><trkpt lat="45.12498528564914" lon="10.537565965272256"><ele>29.0</ele><time>2026-04-03T13:39:05Z</time></trkpt><trkpt lat="45.125084749014505" lon="10.537598333888418"><ele>29.0</ele><time>2026-04-03T13:39:06Z</time></trkpt><trkpt lat="45.12517083816672" lon="10.537660978419256"><ele>29.0</ele><time>2026-04-03T13:39:07Z</time></trkpt><trkpt lat="45.12523010384074" lon="10.53773413999028"><ele>28.666666666666664</ele><time>2026-04-03T13:39:08Z</time></trkpt><trkpt lat="45.12529063764648" lon="10.537785595083282"><ele>28.333333333333332</ele><time>2026-04-03T13:39:09Z</time></trkpt><trkpt lat="45.125367109870105" lon="10.537866481977245"><ele>28.0</ele><time>2026-04-03T13:39:11Z</time></trkpt><trkpt lat="45.12541452948777" lon="10.537948941820979"><ele>27.666666666666664</ele><time>2026-04-03T13:39:14Z</time></trkpt><trkpt lat="45.12548190289364" lon="10.538090868421747"><ele>27.333333333333332</ele><time>2026-04-03T13:39:16Z</time></trkpt><trkpt lat="45.125535581048105" lon="10.538183292532718"><ele>27.0</ele><time>2026-04-03T13:39:17Z</time></trkpt><trkpt lat="45.125590200523064" lon="10.5382514549933"><ele>27.0</ele><time>2026-04-03T13:39:18Z</time></trkpt><trkpt lat="45.125647894505356" lon="10.538291290748639"><ele>27.000000000000004</ele><time>2026-04-03T13:39:19Z</time></trkpt><trkpt lat="45.12571411708532" lon="10.538307922345862"><ele>27.000000000000004</ele><time>2026-04-03T13:39:20Z</time></trkpt><trkpt lat="45.12580326899392" lon="10.538306835401224"><ele>27.0</ele><time>2026-04-03T13:39:21Z</time></trkpt><trkpt lat="45.12591549336239" lon="10.538295593949886"><ele>27.0</ele><time>2026-04-03T13:39:22Z</time></trkpt><trkpt lat="45.126032032201664" lon="10.538286076729003"><ele>26.400000000000002</ele><time>2026-04-03T13:39:23Z</time></trkpt><trkpt lat="45.12613456323483" lon="10.538294211487015"><ele>25.800000000000004</ele><time>2026-04-03T13:39:24Z</time></trkpt><trkpt lat="45.12622692548359" lon="10.53831796830825"><ele>25.2</ele><time>2026-04-03T13:39:25Z</time></trkpt><trkpt lat="45.12631615488481" lon="10.538315087259768"><ele>24.6</ele><time>2026-04-03T13:39:26Z</time></trkpt><trkpt lat="45.12640439102285" lon="10.538479001202278"><ele>24.0</ele><time>2026-04-03T13:39:27Z</time></trkpt><trkpt lat="45.12650138920782" lon="10.538622475411893"><ele>24.25</ele><time>2026-04-03T13:39:28Z</time></trkpt><trkpt lat="45.12659900588608" lon="10.53876619784096"><ele>24.5</ele><time>2026-04-03T13:39:29Z</time></trkpt><trkpt lat="45.1266977296568" lon="10.538910511934292"><ele>24.75</ele><time>2026-04-03T13:39:30Z</time></trkpt><trkpt lat="45.12679925566531" lon="10.5390588146082"><ele>25.0</ele><time>2026-04-03T13:39:31Z</time></trkpt><trkpt lat="45.12690117648294" lon="10.539210109047495"><ele>25.0</ele><time>2026-04-03T13:39:32Z</time></trkpt><trkpt lat="45.12699804545967" lon="10.539350427862667"><ele>25.0</ele><time>2026-04-03T13:39:33Z</time></trkpt><trkpt lat="45.12708701735616" lon="10.539475766477704"><ele>25.0</ele><time>2026-04-03T13:39:34Z</time></trkpt><trkpt lat="45.127172112263466" lon="10.539592615064729"><ele>25.0</ele><time>2026-04-03T13:39:35Z</time></trkpt><trkpt lat="45.12725147777282" lon="10.539701174215084"><ele>25.25</ele><time>2026-04-03T13:39:36Z</time></trkpt><trkpt lat="45.12735033385696" lon="10.539797387401618"><ele>25.5</ele><time>2026-04-03T13:39:37Z</time></trkpt><trkpt lat="45.127478466343874" lon="10.539878151172788"><ele>25.75</ele><time>2026-04-03T13:39:38Z</time></trkpt><trkpt lat="45.127622458947855" lon="10.5399531124365"><ele>26.0</ele><time>2026-04-03T13:39:39Z</time></trkpt><trkpt lat="45.12776414624755" lon="10.54002931595927"><ele>26.0</ele><time>2026-04-03T13:39:40Z</time></trkpt><trkpt lat="45.12789550230796" lon="10.540103333081914"><ele>26.0</ele><time>2026-04-03T13:39:41Z</time></trkpt><trkpt lat="45.12801445920547" lon="10.540175635462598"><ele>26.0</ele><time>2026-04-03T13:39:42Z</time></trkpt><trkpt lat="45.12812483532211" lon="10.54024962768724"><ele>26.0</ele><time>2026-04-03T13:39:43Z</time></trkpt><trkpt lat="45.12823514044269" lon="10.540319400931368"><ele>25.5</ele><time>2026-04-03T13:39:44Z</time></trkpt><trkpt lat="45.12835975190939" lon="10.540368457431697"><ele>25.0</ele><time>2026-04-03T13:39:45Z</time></trkpt><trkpt lat="45.12849959904586" lon="10.540381963973038"><ele>24.5</ele><time>2026-04-03T13:39:46Z</time></trkpt><trkpt lat="45.12863845240133" lon="10.540376034432224"><ele>24.0</ele><time>2026-04-03T13:39:47Z</time></trkpt><trkpt lat="45.12876606057188" lon="10.540369386377787"><ele>24.0</ele><time>2026-04-03T13:39:48Z</time></trkpt><trkpt lat="45.12888291419086" lon="10.54036529405293"><ele>24.0</ele><time>2026-04-03T13:39:49Z</time></trkpt><trkpt lat="45.128985720975955" lon="10.540363834680782"><ele>24.0</ele><time>2026-04-03T13:39:50Z</time></trkpt><trkpt lat="45.12908476200908" lon="10.54036593762859"><ele>24.0</ele><time>2026-04-03T13:39:51Z</time></trkpt><trkpt lat="45.12917368774777" lon="10.540377424581449"><ele>24.0</ele><time>2026-04-03T13:39:52Z</time></trkpt><trkpt lat="45.12925372576494" lon="10.540420984189016"><ele>24.2</ele><time>2026-04-03T13:39:53Z</time></trkpt><trkpt lat="45.12933660545654" lon="10.540512496702412"><ele>24.4</ele><time>2026-04-03T13:39:54Z</time></trkpt><trkpt lat="45.129410519805525" lon="10.540618314503144"><ele>24.6</ele><time>2026-04-03T13:39:55Z</time></trkpt><trkpt lat="45.12948803644339" lon="10.54069128786456"><ele>24.8</ele><time>2026-04-03T13:39:56Z</time></trkpt><trkpt lat="45.12959581140811" lon="10.540715443728484"><ele>25.0</ele><time>2026-04-03T13:39:57Z</time></trkpt><trkpt lat="45.12972785723041" lon="10.540711497562636"><ele>25.0</ele><time>2026-04-03T13:39:58Z</time></trkpt><trkpt lat="45.129868406387004" lon="10.540705777716411"><ele>25.0</ele><time>2026-04-03T13:39:59Z</time></trkpt><trkpt lat="45.13002223182256" lon="10.540698760944046"><ele>25.0</ele><time>2026-04-03T13:40:00Z</time></trkpt><trkpt lat="45.1301831698394" lon="10.540693166189621"><ele>25.0</ele><time>2026-04-03T13:40:01Z</time></trkpt><trkpt lat="45.13034457717696" lon="10.54068731000255"><ele>25.0</ele><time>2026-04-03T13:40:02Z</time></trkpt><trkpt lat="45.13051090487999" lon="10.540684337986109"><ele>25.0</ele><time>2026-04-03T13:40:03Z</time></trkpt><trkpt lat="45.13068154692083" lon="10.540681582481753"><ele>25.333333333333336</ele><time>2026-04-03T13:40:04Z</time></trkpt><trkpt lat="45.13084658125506" lon="10.540684398084128"><ele>25.666666666666664</ele><time>2026-04-03T13:40:05Z</time></trkpt><trkpt lat="45.130993620980945" lon="10.540693918392238"><ele>26.0</ele><time>2026-04-03T13:40:06Z</time></trkpt><trkpt lat="45.13113939741511" lon="10.540720836085239"><ele>26.0</ele><time>2026-04-03T13:40:07Z</time></trkpt><trkpt lat="45.1312888169798" lon="10.540766626736144"><ele>26.0</ele><time>2026-04-03T13:40:08Z</time></trkpt><trkpt lat="45.13144007356917" lon="10.540833013090348"><ele>26.0</ele><time>2026-04-03T13:40:09Z</time></trkpt><trkpt lat="45.13159081072331" lon="10.540897796151375"><ele>25.666666666666664</ele><time>2026-04-03T13:40:10Z</time></trkpt><trkpt lat="45.13174496347156" lon="10.540959706133629"><ele>25.333333333333336</ele><time>2026-04-03T13:40:11Z</time></trkpt><trkpt lat="45.13190267507338" lon="10.541019086386932"><ele>25.0</ele><time>2026-04-03T13:40:12Z</time></trkpt><trkpt lat="45.13206180079591" lon="10.54107609040151"><ele>25.0</ele><time>2026-04-03T13:40:13Z</time></trkpt><trkpt lat="45.13222618338024" lon="10.541139259407675"><ele>25.0</ele><time>2026-04-03T13:40:14Z</time></trkpt><trkpt lat="45.13239264287303" lon="10.541208142932225"><ele>25.0</ele><time>2026-04-03T13:40:15Z</time></trkpt><trkpt lat="45.132563382426895" lon="10.541277686393958"><ele>25.0</ele><time>2026-04-03T13:40:16Z</time></trkpt><trkpt lat="45.1327330471348" lon="10.54134865863482"><ele>25.0</ele><time>2026-04-03T13:40:17Z</time></trkpt><trkpt lat="45.13290323843917" lon="10.541424357070522"><ele>25.0</ele><time>2026-04-03T13:40:18Z</time></trkpt><trkpt lat="45.13306851317973" lon="10.541514770060004"><ele>24.333333333333336</ele><time>2026-04-03T13:40:19Z</time></trkpt><trkpt lat="45.13323027879781" lon="10.541623695235657"><ele>23.666666666666668</ele><time>2026-04-03T13:40:20Z</time></trkpt><trkpt lat="45.13338776274784" lon="10.54174277986321"><ele>23.0</ele><time>2026-04-03T13:40:21Z</time></trkpt><trkpt lat="45.13354703350314" lon="10.541864462893477"><ele>23.0</ele><time>2026-04-03T13:40:22Z</time></trkpt><trkpt lat="45.13369827151368" lon="10.541978442710361"><ele>23.0</ele><time>2026-04-03T13:40:23Z</time></trkpt><trkpt lat="45.13383945203623" lon="10.542084381044555"><ele>23.0</ele><time>2026-04-03T13:40:24Z</time></trkpt><trkpt lat="45.13398291902469" lon="10.542174880721374"><ele>23.333333333333336</ele><time>2026-04-03T13:40:25Z</time></trkpt><trkpt lat="45.13414262981107" lon="10.542254743574498"><ele>23.666666666666668</ele><time>2026-04-03T13:40:26Z</time></trkpt><trkpt lat="45.134305132533534" lon="10.542332539101176"><ele>24.0</ele><time>2026-04-03T13:40:27Z</time></trkpt><trkpt lat="45.13447004498174" lon="10.542416099293924"><ele>24.0</ele><time>2026-04-03T13:40:28Z</time></trkpt><trkpt lat="45.13463619156114" lon="10.542504422235561"><ele>24.0</ele><time>2026-04-03T13:40:29Z</time></trkpt><trkpt lat="45.134799434033994" lon="10.542592335288116"><ele>24.0</ele><time>2026-04-03T13:40:30Z</time></trkpt><trkpt lat="45.13496203989681" lon="10.542677314836215"><ele>24.0</ele><time>2026-04-03T13:40:31Z</time></trkpt><trkpt lat="45.13512356879071" lon="10.542761149030511"><ele>24.0</ele><time>2026-04-03T13:40:32Z</time></trkpt><trkpt lat="45.135279063564745" lon="10.542840915214343"><ele>24.0</ele><time>2026-04-03T13:40:33Z</time></trkpt><trkpt lat="45.13543254242632" lon="10.542920416264174"><ele>24.0</ele><time>2026-04-03T13:40:34Z</time></trkpt><trkpt lat="45.135590456481864" lon="10.543001194809888"><ele>24.0</ele><time>2026-04-03T13:40:35Z</time></trkpt><trkpt lat="45.1357455030512" lon="10.543077452537268"><ele>24.0</ele><time>2026-04-03T13:40:36Z</time></trkpt><trkpt lat="45.1358946380072" lon="10.543148556737457"><ele>24.25</ele><time>2026-04-03T13:40:37Z</time></trkpt><trkpt lat="45.13602984182725" lon="10.543214204416769"><ele>24.5</ele><time>2026-04-03T13:40:38Z</time></trkpt><trkpt lat="45.136157336087024" lon="10.543282731125043"><ele>24.75</ele><time>2026-04-03T13:40:39Z</time></trkpt><trkpt lat="45.136281579183795" lon="10.543349789494076"><ele>25.0</ele><time>2026-04-03T13:40:40Z</time></trkpt><trkpt lat="45.13640824834549" lon="10.543421302084091"><ele>25.0</ele><time>2026-04-03T13:40:41Z</time></trkpt><trkpt lat="45.13653864792758" lon="10.543505722414604"><ele>25.0</ele><time>2026-04-03T13:40:42Z</time></trkpt><trkpt lat="45.136665683740084" lon="10.543620677189226"><ele>25.0</ele><time>2026-04-03T13:40:43Z</time></trkpt><trkpt lat="45.136790747094544" lon="10.543763571601225"><ele>24.666666666666668</ele><time>2026-04-03T13:40:44Z</time></trkpt><trkpt lat="45.13691751760605" lon="10.543915469311374"><ele>24.333333333333336</ele><time>2026-04-03T13:40:45Z</time></trkpt><trkpt lat="45.137043261172444" lon="10.544066653541256"><ele>24.0</ele><time>2026-04-03T13:40:46Z</time></trkpt><trkpt lat="45.13715966899051" lon="10.544206892348404"><ele>24.0</ele><time>2026-04-03T13:40:47Z</time></trkpt><trkpt lat="45.13725751985874" lon="10.544327762791486"><ele>24.0</ele><time>2026-04-03T13:40:48Z</time></trkpt><trkpt lat="45.13734208913797" lon="10.544421131604558"><ele>24.0</ele><time>2026-04-03T13:40:49Z</time></trkpt><trkpt lat="45.137410021644584" lon="10.544499973612515"><ele>24.0</ele><time>2026-04-03T13:40:50Z</time></trkpt><trkpt lat="45.13746573974726" lon="10.544581515933231"><ele>24.0</ele><time>2026-04-03T13:40:51Z</time></trkpt><trkpt lat="45.137491563059065" lon="10.544685179064736"><ele>24.0</ele><time>2026-04-03T13:40:52Z</time></trkpt><trkpt lat="45.137479522644924" lon="10.544817149752898"><ele>24.0</ele><time>2026-04-03T13:40:53Z</time></trkpt><trkpt lat="45.13740592858382" lon="10.544944991936843"><ele>24.0</ele><time>2026-04-03T13:40:54Z</time></trkpt><trkpt lat="45.13734189393895" lon="10.545097298414875"><ele>24.0</ele><time>2026-04-03T13:40:55Z</time></trkpt><trkpt lat="45.137287289973536" lon="10.545249320758565"><ele>23.75</ele><time>2026-04-03T13:40:56Z</time></trkpt><trkpt lat="45.137249232348275" lon="10.545382347749804"><ele>23.5</ele><time>2026-04-03T13:40:57Z</time></trkpt><trkpt lat="45.13724934604387" lon="10.545527648090863"><ele>23.25</ele><time>2026-04-03T13:40:58Z</time></trkpt><trkpt lat="45.137264421246755" lon="10.54568949822854"><ele>23.0</ele><time>2026-04-03T13:40:59Z</time></trkpt><trkpt lat="45.13730996662373" lon="10.545871068941748"><ele>23.0</ele><time>2026-04-03T13:41:00Z</time></trkpt><trkpt lat="45.13736568418013" lon="10.546053125887681"><ele>23.0</ele><time>2026-04-03T13:41:01Z</time></trkpt><trkpt lat="45.13741594410195" lon="10.54623411266261"><ele>23.0</ele><time>2026-04-03T13:41:02Z</time></trkpt><trkpt lat="45.13744132392226" lon="10.546424638538031"><ele>23.0</ele><time>2026-04-03T13:41:03Z</time></trkpt><trkpt lat="45.137468184172164" lon="10.546603108093151"><ele>23.4</ele><time>2026-04-03T13:41:04Z</time></trkpt><trkpt lat="45.13748651850003" lon="10.546768812314502"><ele>23.799999999999997</ele><time>2026-04-03T13:41:05Z</time></trkpt><trkpt lat="45.13750445472649" lon="10.546928292119436"><ele>24.2</ele><time>2026-04-03T13:41:06Z</time></trkpt><trkpt lat="45.13752063499058" lon="10.54708031782876"><ele>24.6</ele><time>2026-04-03T13:41:07Z</time></trkpt><trkpt lat="45.13755139759149" lon="10.547221328710318"><ele>25.0</ele><time>2026-04-03T13:41:08Z</time></trkpt><trkpt lat="45.137561510767114" lon="10.54735697756212"><ele>25.166666666666668</ele><time>2026-04-03T13:41:09Z</time></trkpt><trkpt lat="45.13759184410115" lon="10.54746199124817"><ele>25.333333333333336</ele><time>2026-04-03T13:41:10Z</time></trkpt><trkpt lat="45.13763618432434" lon="10.547544126723151"><ele>25.5</ele><time>2026-04-03T13:41:11Z</time></trkpt><trkpt lat="45.13768763088142" lon="10.547618580347043"><ele>25.666666666666664</ele><time>2026-04-03T13:41:12Z</time></trkpt><trkpt lat="45.13778937550417" lon="10.547641774688046"><ele>25.833333333333332</ele><time>2026-04-03T13:41:13Z</time></trkpt><trkpt lat="45.137895710519224" lon="10.547676037296622"><ele>26.0</ele><time>2026-04-03T13:41:14Z</time></trkpt><trkpt lat="45.13800810011233" lon="10.547707531502175"><ele>26.0</ele><time>2026-04-03T13:41:15Z</time></trkpt><trkpt lat="45.13812312172905" lon="10.547739933369542"><ele>26.0</ele><time>2026-04-03T13:41:16Z</time></trkpt><trkpt lat="45.13823080282322" lon="10.547768531692642"><ele>26.0</ele><time>2026-04-03T13:41:17Z</time></trkpt><trkpt lat="45.138323695591616" lon="10.547791210154832"><ele>26.0</ele><time>2026-04-03T13:41:18Z</time></trkpt><trkpt lat="45.138405729419816" lon="10.54781156492483"><ele>26.0</ele><time>2026-04-03T13:41:19Z</time></trkpt><trkpt lat="45.13848088008546" lon="10.547838089844898"><ele>26.0</ele><time>2026-04-03T13:41:20Z</time></trkpt><trkpt lat="45.138551453588995" lon="10.54787634328874"><ele>26.0</ele><time>2026-04-03T13:41:21Z</time></trkpt><trkpt lat="45.13862248376962" lon="10.54794676629915"><ele>26.0</ele><time>2026-04-03T13:41:22Z</time></trkpt><trkpt lat="45.138689998677506" lon="10.548058262067608"><ele>26.0</ele><time>2026-04-03T13:41:23Z</time></trkpt><trkpt lat="45.13876652666654" lon="10.548190391171909"><ele>26.0</ele><time>2026-04-03T13:41:24Z</time></trkpt><trkpt lat="45.13884657277253" lon="10.548322800857973"><ele>26.0</ele><time>2026-04-03T13:41:25Z</time></trkpt><trkpt lat="45.13892764626319" lon="10.548461529257988"><ele>26.0</ele><time>2026-04-03T13:41:26Z</time></trkpt><trkpt lat="45.13901037883288" lon="10.548600149630825"><ele>26.0</ele><time>2026-04-03T13:41:27Z</time></trkpt><trkpt lat="45.13909715125325" lon="10.54873338018495"><ele>26.0</ele><time>2026-04-03T13:41:28Z</time></trkpt><trkpt lat="45.13919180534474" lon="10.54886735423748"><ele>26.0</ele><time>2026-04-03T13:41:29Z</time></trkpt><trkpt lat="45.139288407696995" lon="10.549001977822167"><ele>26.0</ele><time>2026-04-03T13:41:30Z</time></trkpt><trkpt lat="45.13938640770861" lon="10.549131263641861"><ele>26.0</ele><time>2026-04-03T13:41:31Z</time></trkpt><trkpt lat="45.139486093376995" lon="10.549253503759447"><ele>26.0</ele><time>2026-04-03T13:41:32Z</time></trkpt><trkpt lat="45.13957883059267" lon="10.549363290495668"><ele>26.0</ele><time>2026-04-03T13:41:33Z</time></trkpt><trkpt lat="45.139666610631835" lon="10.549465940663131"><ele>26.0</ele><time>2026-04-03T13:41:34Z</time></trkpt><trkpt lat="45.13975951415588" lon="10.549577009951523"><ele>26.0</ele><time>2026-04-03T13:41:35Z</time></trkpt><trkpt lat="45.13985377729675" lon="10.549696932817723"><ele>26.0</ele><time>2026-04-03T13:41:36Z</time></trkpt><trkpt lat="45.13994337241479" lon="10.549816318013352"><ele>26.200000000000003</ele><time>2026-04-03T13:41:37Z</time></trkpt><trkpt lat="45.140029708456495" lon="10.549927021612277"><ele>26.400000000000002</ele><time>2026-04-03T13:41:38Z</time></trkpt><trkpt lat="45.140112627145726" lon="10.550015834837117"><ele>26.6</ele><time>2026-04-03T13:41:39Z</time></trkpt><trkpt lat="45.140198155092776" lon="10.55008487992601"><ele>26.8</ele><time>2026-04-03T13:41:40Z</time></trkpt><trkpt lat="45.14029313103893" lon="10.55015245730102"><ele>27.0</ele><time>2026-04-03T13:41:41Z</time></trkpt><trkpt lat="45.140378947286756" lon="10.550217757382205"><ele>27.0</ele><time>2026-04-03T13:41:42Z</time></trkpt><trkpt lat="45.1404565183084" lon="10.550286830483158"><ele>27.0</ele><time>2026-04-03T13:41:43Z</time></trkpt><trkpt lat="45.14052107009583" lon="10.550356918137387"><ele>27.0</ele><time>2026-04-03T13:41:44Z</time></trkpt><trkpt lat="45.140566783647095" lon="10.55044287116731"><ele>27.0</ele><time>2026-04-03T13:41:45Z</time></trkpt><trkpt lat="45.14059521859043" lon="10.550542986382794"><ele>27.0</ele><time>2026-04-03T13:41:46Z</time></trkpt><trkpt lat="45.140620502294134" lon="10.550644393378231"><ele>27.0</ele><time>2026-04-03T13:41:47Z</time></trkpt><trkpt lat="45.14064162455822" lon="10.550732416322152"><ele>27.0</ele><time>2026-04-03T13:41:48Z</time></trkpt><trkpt lat="45.14067412313957" lon="10.550835642377915"><ele>27.000000000000004</ele><time>2026-04-03T13:41:50Z</time></trkpt><trkpt lat="45.14069642938861" lon="10.550923376293541"><ele>27.000000000000004</ele><time>2026-04-03T13:41:53Z</time></trkpt><trkpt lat="45.1408243785205" lon="10.55086999499413"><ele>27.0</ele><time>2026-04-03T13:41:55Z</time></trkpt><trkpt lat="45.14089618416222" lon="10.550804978591525"><ele>27.0</ele><time>2026-04-03T13:41:56Z</time></trkpt><trkpt lat="45.14097503065028" lon="10.550751427674175"><ele>27.200000000000003</ele><time>2026-04-03T13:41:57Z</time></trkpt><trkpt lat="45.1410591377173" lon="10.55071250837706"><ele>27.400000000000002</ele><time>2026-04-03T13:41:58Z</time></trkpt><trkpt lat="45.14115187039152" lon="10.550677476067316"><ele>27.599999999999998</ele><time>2026-04-03T13:41:59Z</time></trkpt><trkpt lat="45.141241656454454" lon="10.550637511331603"><ele>27.799999999999997</ele><time>2026-04-03T13:42:00Z</time></trkpt><trkpt lat="45.1413337774769" lon="10.55059570219373"><ele>28.0</ele><time>2026-04-03T13:42:01Z</time></trkpt><trkpt lat="45.14142581889197" lon="10.550562488322296"><ele>28.0</ele><time>2026-04-03T13:42:02Z</time></trkpt><trkpt lat="45.14152178377348" lon="10.550519095301052"><ele>27.999999999999996</ele><time>2026-04-03T13:42:03Z</time></trkpt><trkpt lat="45.1416270217888" lon="10.55048514388225"><ele>27.999999999999996</ele><time>2026-04-03T13:42:04Z</time></trkpt><trkpt lat="45.141713850129285" lon="10.550436128420674"><ele>28.0</ele><time>2026-04-03T13:42:05Z</time></trkpt><trkpt lat="45.1417945836408" lon="10.55039054281787"><ele>28.0</ele><time>2026-04-03T13:42:06Z</time></trkpt><trkpt lat="45.141878923514625" lon="10.550338424702755"><ele>28.0</ele><time>2026-04-03T13:42:07Z</time></trkpt><trkpt lat="45.141974296922484" lon="10.5502752807795"><ele>27.999999999999996</ele><time>2026-04-03T13:42:08Z</time></trkpt><trkpt lat="45.14207388670906" lon="10.550209022261626"><ele>27.999999999999996</ele><time>2026-04-03T13:42:09Z</time></trkpt><trkpt lat="45.142173604845865" lon="10.55013698767492"><ele>28.0</ele><time>2026-04-03T13:42:10Z</time></trkpt><trkpt lat="45.1422645447598" lon="10.550064131338482"><ele>28.0</ele><time>2026-04-03T13:42:11Z</time></trkpt><trkpt lat="45.142347384584625" lon="10.549990887828187"><ele>28.0</ele><time>2026-04-03T13:42:12Z</time></trkpt><trkpt lat="45.142425689509736" lon="10.549899532874901"><ele>27.999999999999996</ele><time>2026-04-03T13:42:13Z</time></trkpt><trkpt lat="45.14249460557624" lon="10.549784029863716"><ele>27.999999999999996</ele><time>2026-04-03T13:42:14Z</time></trkpt><trkpt lat="45.142544964406845" lon="10.549652811094832"><ele>28.0</ele><time>2026-04-03T13:42:15Z</time></trkpt><trkpt lat="45.14257385750986" lon="10.549514410212439"><ele>28.0</ele><time>2026-04-03T13:42:16Z</time></trkpt><trkpt lat="45.142618096586624" lon="10.549384961911022"><ele>28.0</ele><time>2026-04-03T13:42:17Z</time></trkpt><trkpt lat="45.142654210365606" lon="10.54922032173782"><ele>28.0</ele><time>2026-04-03T13:42:18Z</time></trkpt><trkpt lat="45.1426981237289" lon="10.549018240319802"><ele>28.0</ele><time>2026-04-03T13:42:19Z</time></trkpt><trkpt lat="45.14272872509654" lon="10.548773002042127"><ele>28.0</ele><time>2026-04-03T13:42:20Z</time></trkpt><trkpt lat="45.14277780647551" lon="10.548539704893889"><ele>28.0</ele><time>2026-04-03T13:42:21Z</time></trkpt><trkpt lat="45.14281584613008" lon="10.548343644495183"><ele>28.0</ele><time>2026-04-03T13:42:22Z</time></trkpt><trkpt lat="45.142851435626895" lon="10.548168311068949"><ele>28.0</ele><time>2026-04-03T13:42:23Z</time></trkpt><trkpt lat="45.142881509379556" lon="10.548016609348721"><ele>28.0</ele><time>2026-04-03T13:42:24Z</time></trkpt><trkpt lat="45.14291331158848" lon="10.547867725016793"><ele>28.000000000000004</ele><time>2026-04-03T13:42:25Z</time></trkpt><trkpt lat="45.142945150357924" lon="10.54773582907938"><ele>28.0</ele><time>2026-04-03T13:42:26Z</time></trkpt><trkpt lat="45.14297245354326" lon="10.54762351250058"><ele>28.0</ele><time>2026-04-03T13:42:27Z</time></trkpt><trkpt lat="45.14299476456795" lon="10.547534995036647"><ele>28.0</ele><time>2026-04-03T13:42:28Z</time></trkpt><trkpt lat="45.14305042839219" lon="10.5473980822139"><ele>28.000000000000004</ele><time>2026-04-03T13:42:30Z</time></trkpt><trkpt lat="45.14308100373179" lon="10.547308687204607"><ele>28.0</ele><time>2026-04-03T13:42:32Z</time></trkpt><trkpt lat="45.14320560262403" lon="10.547344638689069"><ele>28.0</ele><time>2026-04-03T13:42:33Z</time></trkpt><trkpt lat="45.143274166313915" lon="10.547385422399065"><ele>27.999999999999996</ele><time>2026-04-03T13:42:34Z</time></trkpt><trkpt lat="45.143361807470974" lon="10.547448511835716"><ele>27.999999999999996</ele><time>2026-04-03T13:42:35Z</time></trkpt><trkpt lat="45.143455404939246" lon="10.547515960096078"><ele>28.0</ele><time>2026-04-03T13:42:36Z</time></trkpt><trkpt lat="45.14354131368463" lon="10.547595996028246"><ele>28.0</ele><time>2026-04-03T13:42:37Z</time></trkpt><trkpt lat="45.143635931944004" lon="10.547665228328245"><ele>28.0</ele><time>2026-04-03T13:42:38Z</time></trkpt><trkpt lat="45.14373405182736" lon="10.547703611763355"><ele>27.999999999999996</ele><time>2026-04-03T13:42:39Z</time></trkpt><trkpt lat="45.14383291382524" lon="10.547714025018182"><ele>27.999999999999996</ele><time>2026-04-03T13:42:40Z</time></trkpt><trkpt lat="45.14393518487727" lon="10.547686078165368"><ele>28.0</ele><time>2026-04-03T13:42:41Z</time></trkpt><trkpt lat="45.14404026813934" lon="10.54761498050268"><ele>28.0</ele><time>2026-04-03T13:42:42Z</time></trkpt><trkpt lat="45.14414458438376" lon="10.547512334911387"><ele>27.75</ele><time>2026-04-03T13:42:43Z</time></trkpt><trkpt lat="45.14424108496211" lon="10.547387335839241"><ele>27.5</ele><time>2026-04-03T13:42:44Z</time></trkpt><trkpt lat="45.14433793436236" lon="10.547260810623422"><ele>27.25</ele><time>2026-04-03T13:42:45Z</time></trkpt><trkpt lat="45.14444367306397" lon="10.54712295235942"><ele>27.0</ele><time>2026-04-03T13:42:46Z</time></trkpt><trkpt lat="45.144544165954464" lon="10.54697826347424"><ele>27.0</ele><time>2026-04-03T13:42:47Z</time></trkpt><trkpt lat="45.14465210955806" lon="10.54681544212072"><ele>27.0</ele><time>2026-04-03T13:42:48Z</time></trkpt><trkpt lat="45.14475506902713" lon="10.546636175799359"><ele>27.0</ele><time>2026-04-03T13:42:49Z</time></trkpt><trkpt lat="45.14485331840335" lon="10.546455805726946"><ele>27.0</ele><time>2026-04-03T13:42:50Z</time></trkpt><trkpt lat="45.14495492077111" lon="10.546279772717105"><ele>27.0</ele><time>2026-04-03T13:42:51Z</time></trkpt><trkpt lat="45.14505929199234" lon="10.546086284162428"><ele>27.0</ele><time>2026-04-03T13:42:52Z</time></trkpt><trkpt lat="45.145156269087146" lon="10.545878163674246"><ele>27.0</ele><time>2026-04-03T13:42:53Z</time></trkpt><trkpt lat="45.14525883091388" lon="10.545665876120376"><ele>27.0</ele><time>2026-04-03T13:42:54Z</time></trkpt><trkpt lat="45.14536177867524" lon="10.545449759558142"><ele>27.0</ele><time>2026-04-03T13:42:55Z</time></trkpt><trkpt lat="45.145481410526514" lon="10.545227489424734"><ele>26.666666666666664</ele><time>2026-04-03T13:42:56Z</time></trkpt><trkpt lat="45.14560422390322" lon="10.544991493402545"><ele>26.333333333333332</ele><time>2026-04-03T13:42:57Z</time></trkpt><trkpt lat="45.14572575511063" lon="10.54475136446758"><ele>26.0</ele><time>2026-04-03T13:42:58Z</time></trkpt><trkpt lat="45.14584995127509" lon="10.544511656143262"><ele>25.666666666666664</ele><time>2026-04-03T13:42:59Z</time></trkpt><trkpt lat="45.14596339398055" lon="10.544292353127032"><ele>25.333333333333336</ele><time>2026-04-03T13:43:00Z</time></trkpt><trkpt lat="45.14606594010661" lon="10.544092861241923"><ele>25.0</ele><time>2026-04-03T13:43:01Z</time></trkpt><trkpt lat="45.14616773816344" lon="10.543899155099119"><ele>24.666666666666668</ele><time>2026-04-03T13:43:02Z</time></trkpt><trkpt lat="45.14626314482461" lon="10.543709896752015"><ele>24.333333333333336</ele><time>2026-04-03T13:43:03Z</time></trkpt><trkpt lat="45.14636257267601" lon="10.543516117890293"><ele>24.0</ele><time>2026-04-03T13:43:04Z</time></trkpt><trkpt lat="45.14646126332529" lon="10.543323549700498"><ele>24.25</ele><time>2026-04-03T13:43:05Z</time></trkpt><trkpt lat="45.14655281994692" lon="10.54314044555534"><ele>24.5</ele><time>2026-04-03T13:43:06Z</time></trkpt><trkpt lat="45.14663856617027" lon="10.542978100182777"><ele>24.75</ele><time>2026-04-03T13:43:07Z</time></trkpt><trkpt lat="45.14672131191342" lon="10.542824354641587"><ele>25.0</ele><time>2026-04-03T13:43:08Z</time></trkpt><trkpt lat="45.14679421452749" lon="10.542682113420028"><ele>25.0</ele><time>2026-04-03T13:43:09Z</time></trkpt><trkpt lat="45.146863875151354" lon="10.542559746826555"><ele>25.0</ele><time>2026-04-03T13:43:10Z</time></trkpt><trkpt lat="45.14693225363649" lon="10.542450279605914"><ele>25.0</ele><time>2026-04-03T13:43:11Z</time></trkpt><trkpt lat="45.147007447452296" lon="10.54236858911361"><ele>25.0</ele><time>2026-04-03T13:43:12Z</time></trkpt><trkpt lat="45.147099589169805" lon="10.542321302557875"><ele>25.0</ele><time>2026-04-03T13:43:13Z</time></trkpt><trkpt lat="45.14720590200141" lon="10.542306198728935"><ele>25.0</ele><time>2026-04-03T13:43:14Z</time></trkpt><trkpt lat="45.1473213808732" lon="10.542318677679594"><ele>25.0</ele><time>2026-04-03T13:43:15Z</time></trkpt><trkpt lat="45.14745287087293" lon="10.542398713530456"><ele>25.0</ele><time>2026-04-03T13:43:16Z</time></trkpt><trkpt lat="45.1476082951927" lon="10.542466041339262"><ele>25.0</ele><time>2026-04-03T13:43:17Z</time></trkpt><trkpt lat="45.147771577435506" lon="10.542584156741599"><ele>25.333333333333336</ele><time>2026-04-03T13:43:18Z</time></trkpt><trkpt lat="45.14794811624855" lon="10.542689812381884"><ele>25.666666666666664</ele><time>2026-04-03T13:43:19Z</time></trkpt><trkpt lat="45.148121816257614" lon="10.54277977367067"><ele>26.0</ele><time>2026-04-03T13:43:20Z</time></trkpt><trkpt lat="45.14829642415371" lon="10.542870804411121"><ele>26.0</ele><time>2026-04-03T13:43:21Z</time></trkpt><trkpt lat="45.14847272780123" lon="10.542964189748826"><ele>26.0</ele><time>2026-04-03T13:43:22Z</time></trkpt><trkpt lat="45.148645238122164" lon="10.543058972998416"><ele>26.0</ele><time>2026-04-03T13:43:23Z</time></trkpt><trkpt lat="45.14881737363538" lon="10.543154734467302"><ele>26.0</ele><time>2026-04-03T13:43:24Z</time></trkpt><trkpt lat="45.14899066490201" lon="10.543248523517162"><ele>26.0</ele><time>2026-04-03T13:43:25Z</time></trkpt><trkpt lat="45.149174276326676" lon="10.54334130032526"><ele>26.0</ele><time>2026-04-03T13:43:26Z</time></trkpt><trkpt lat="45.14935479363431" lon="10.54343788829458"><ele>26.333333333333332</ele><time>2026-04-03T13:43:27Z</time></trkpt><trkpt lat="45.14954175192578" lon="10.543540033291434"><ele>26.666666666666664</ele><time>2026-04-03T13:43:28Z</time></trkpt><trkpt lat="45.14972808080364" lon="10.543640986344391"><ele>27.0</ele><time>2026-04-03T13:43:29Z</time></trkpt><trkpt lat="45.14991344839798" lon="10.54374687409613"><ele>26.333333333333336</ele><time>2026-04-03T13:43:30Z</time></trkpt><trkpt lat="45.15010227643008" lon="10.543854071369365"><ele>25.666666666666668</ele><time>2026-04-03T13:43:31Z</time></trkpt><trkpt lat="45.15029765837867" lon="10.543961798591873"><ele>25.0</ele><time>2026-04-03T13:43:32Z</time></trkpt><trkpt lat="45.15049586817718" lon="10.5440741449717"><ele>25.0</ele><time>2026-04-03T13:43:33Z</time></trkpt><trkpt lat="45.15069525370374" lon="10.544185124504821"><ele>25.0</ele><time>2026-04-03T13:43:34Z</time></trkpt><trkpt lat="45.150895856434204" lon="10.544289188689898"><ele>25.0</ele><time>2026-04-03T13:43:35Z</time></trkpt><trkpt lat="45.15109492983625" lon="10.544399330174217"><ele>25.666666666666668</ele><time>2026-04-03T13:43:36Z</time></trkpt><trkpt lat="45.15130016622585" lon="10.544511948539766"><ele>26.333333333333336</ele><time>2026-04-03T13:43:37Z</time></trkpt><trkpt lat="45.15150333841594" lon="10.544623086754397"><ele>27.0</ele><time>2026-04-03T13:43:38Z</time></trkpt><trkpt lat="45.151707894266465" lon="10.544736931170856"><ele>27.0</ele><time>2026-04-03T13:43:39Z</time></trkpt><trkpt lat="45.1519101330281" lon="10.544845259778127"><ele>27.0</ele><time>2026-04-03T13:43:40Z</time></trkpt><trkpt lat="45.152115591157695" lon="10.544958612024756"><ele>27.0</ele><time>2026-04-03T13:43:41Z</time></trkpt><trkpt lat="45.152313591652245" lon="10.545073232872847"><ele>27.0</ele><time>2026-04-03T13:43:42Z</time></trkpt><trkpt lat="45.1525142965102" lon="10.545192793143393"><ele>27.0</ele><time>2026-04-03T13:43:43Z</time></trkpt><trkpt lat="45.15271521139285" lon="10.5453118671309"><ele>27.0</ele><time>2026-04-03T13:43:44Z</time></trkpt><trkpt lat="45.15290973247322" lon="10.54542971190899"><ele>27.0</ele><time>2026-04-03T13:43:45Z</time></trkpt><trkpt lat="45.153104822479165" lon="10.545549005124652"><ele>27.0</ele><time>2026-04-03T13:43:46Z</time></trkpt><trkpt lat="45.15329924445336" lon="10.545664525686131"><ele>27.0</ele><time>2026-04-03T13:43:47Z</time></trkpt><trkpt lat="45.15349445792653" lon="10.545784351792872"><ele>27.0</ele><time>2026-04-03T13:43:48Z</time></trkpt><trkpt lat="45.15368669423593" lon="10.545902372625266"><ele>27.0</ele><time>2026-04-03T13:43:49Z</time></trkpt><trkpt lat="45.15387833256982" lon="10.546017000938315"><ele>27.0</ele><time>2026-04-03T13:43:50Z</time></trkpt><trkpt lat="45.15406728529967" lon="10.546132852838017"><ele>27.0</ele><time>2026-04-03T13:43:51Z</time></trkpt><trkpt lat="45.154262227202146" lon="10.546251451825492"><ele>27.0</ele><time>2026-04-03T13:43:52Z</time></trkpt><trkpt lat="45.15445216019713" lon="10.54636915898366"><ele>27.0</ele><time>2026-04-03T13:43:53Z</time></trkpt><trkpt lat="45.154634959439036" lon="10.54647781427611"><ele>27.0</ele><time>2026-04-03T13:43:54Z</time></trkpt><trkpt lat="45.15480696530109" lon="10.546587085839116"><ele>27.0</ele><time>2026-04-03T13:43:55Z</time></trkpt><trkpt lat="45.15498367992033" lon="10.546692586933023"><ele>27.0</ele><time>2026-04-03T13:43:56Z</time></trkpt><trkpt lat="45.15516603850232" lon="10.546800399539304"><ele>27.0</ele><time>2026-04-03T13:43:57Z</time></trkpt><trkpt lat="45.15534915713085" lon="10.546911957477173"><ele>27.0</ele><time>2026-04-03T13:43:58Z</time></trkpt><trkpt lat="45.1555359659107" lon="10.547022463567652"><ele>27.0</ele><time>2026-04-03T13:43:59Z</time></trkpt><trkpt lat="45.155721512253834" lon="10.547131317197389"><ele>27.0</ele><time>2026-04-03T13:44:00Z</time></trkpt><trkpt lat="45.15590182702695" lon="10.547242926073418"><ele>27.0</ele><time>2026-04-03T13:44:01Z</time></trkpt><trkpt lat="45.1560820847749" lon="10.547361064258823"><ele>27.0</ele><time>2026-04-03T13:44:02Z</time></trkpt><trkpt lat="45.15626819784519" lon="10.547463785606151"><ele>27.0</ele><time>2026-04-03T13:44:03Z</time></trkpt><trkpt lat="45.15644791182767" lon="10.547557214615548"><ele>27.0</ele><time>2026-04-03T13:44:04Z</time></trkpt><trkpt lat="45.156646540114124" lon="10.547664929136946"><ele>27.0</ele><time>2026-04-03T13:44:05Z</time></trkpt><trkpt lat="45.156852027791885" lon="10.547782076645438"><ele>27.0</ele><time>2026-04-03T13:44:06Z</time></trkpt><trkpt lat="45.15706733049413" lon="10.54791277963259"><ele>27.0</ele><time>2026-04-03T13:44:07Z</time></trkpt><trkpt lat="45.15728431148159" lon="10.548052253572413"><ele>26.5</ele><time>2026-04-03T13:44:08Z</time></trkpt><trkpt lat="45.1575010152627" lon="10.548192910264584"><ele>26.0</ele><time>2026-04-03T13:44:09Z</time></trkpt><trkpt lat="45.15771407762488" lon="10.5483340794103"><ele>26.0</ele><time>2026-04-03T13:44:10Z</time></trkpt><trkpt lat="45.1579217299262" lon="10.548467626707499"><ele>26.0</ele><time>2026-04-03T13:44:11Z</time></trkpt><trkpt lat="45.158116840705915" lon="10.54858942190383"><ele>26.0</ele><time>2026-04-03T13:44:12Z</time></trkpt><trkpt lat="45.158303507137035" lon="10.548708450610405"><ele>27.0</ele><time>2026-04-03T13:44:13Z</time></trkpt><trkpt lat="45.158490863898834" lon="10.548827189602399"><ele>28.0</ele><time>2026-04-03T13:44:14Z</time></trkpt><trkpt lat="45.15867365383297" lon="10.548937925123086"><ele>29.0</ele><time>2026-04-03T13:44:15Z</time></trkpt><trkpt lat="45.15885804571867" lon="10.549048226039856"><ele>29.0</ele><time>2026-04-03T13:44:16Z</time></trkpt><trkpt lat="45.159044279324426" lon="10.549160496290309"><ele>29.0</ele><time>2026-04-03T13:44:17Z</time></trkpt><trkpt lat="45.15922802644311" lon="10.549271044388563"><ele>29.0</ele><time>2026-04-03T13:44:18Z</time></trkpt><trkpt lat="45.159405689304315" lon="10.54938295950737"><ele>29.0</ele><time>2026-04-03T13:44:19Z</time></trkpt><trkpt lat="45.15958392086388" lon="10.549493519965905"><ele>29.0</ele><time>2026-04-03T13:44:20Z</time></trkpt><trkpt lat="45.159762505659465" lon="10.549604883710721"><ele>29.0</ele><time>2026-04-03T13:44:21Z</time></trkpt><trkpt lat="45.159945238069355" lon="10.549715259635738"><ele>29.333333333333332</ele><time>2026-04-03T13:44:22Z</time></trkpt><trkpt lat="45.16012830149133" lon="10.549826730509242"><ele>29.666666666666664</ele><time>2026-04-03T13:44:23Z</time></trkpt><trkpt lat="45.160312058533385" lon="10.549941574191685"><ele>30.0</ele><time>2026-04-03T13:44:24Z</time></trkpt><trkpt lat="45.16049977643449" lon="10.550054148429975"><ele>30.0</ele><time>2026-04-03T13:44:25Z</time></trkpt><trkpt lat="45.160694441409746" lon="10.550165970239346"><ele>30.0</ele><time>2026-04-03T13:44:26Z</time></trkpt><trkpt lat="45.1608929841992" lon="10.550280433762142"><ele>30.0</ele><time>2026-04-03T13:44:27Z</time></trkpt><trkpt lat="45.161097002856565" lon="10.550398412878446"><ele>29.666666666666664</ele><time>2026-04-03T13:44:28Z</time></trkpt><trkpt lat="45.16130098006385" lon="10.550515541097827"><ele>29.333333333333332</ele><time>2026-04-03T13:44:29Z</time></trkpt><trkpt lat="45.16151155587436" lon="10.550634018996563"><ele>29.0</ele><time>2026-04-03T13:44:30Z</time></trkpt><trkpt lat="45.161724689271246" lon="10.550753845249247"><ele>28.5</ele><time>2026-04-03T13:44:31Z</time></trkpt><trkpt lat="45.16193765027575" lon="10.550878200342765"><ele>28.0</ele><time>2026-04-03T13:44:32Z</time></trkpt><trkpt lat="45.162148591038644" lon="10.550999294155678"><ele>28.0</ele><time>2026-04-03T13:44:33Z</time></trkpt><trkpt lat="45.16235801683956" lon="10.551119553714553"><ele>28.0</ele><time>2026-04-03T13:44:34Z</time></trkpt><trkpt lat="45.162569886915136" lon="10.551238205332988"><ele>28.0</ele><time>2026-04-03T13:44:35Z</time></trkpt><trkpt lat="45.16278949130745" lon="10.551360483782354"><ele>28.0</ele><time>2026-04-03T13:44:36Z</time></trkpt><trkpt lat="45.16300844936963" lon="10.551487343559582"><ele>28.5</ele><time>2026-04-03T13:44:37Z</time></trkpt><trkpt lat="45.16322817782208" lon="10.55161562043376"><ele>29.0</ele><time>2026-04-03T13:44:38Z</time></trkpt><trkpt lat="45.163454713723404" lon="10.55174691938178"><ele>29.0</ele><time>2026-04-03T13:44:39Z</time></trkpt><trkpt lat="45.1636884053967" lon="10.551876322359803"><ele>29.0</ele><time>2026-04-03T13:44:40Z</time></trkpt><trkpt lat="45.16392102820669" lon="10.552002925383848"><ele>28.5</ele><time>2026-04-03T13:44:41Z</time></trkpt><trkpt lat="45.16415759338858" lon="10.552129917452834"><ele>28.0</ele><time>2026-04-03T13:44:42Z</time></trkpt><trkpt lat="45.16439128344587" lon="10.552255237407529"><ele>28.0</ele><time>2026-04-03T13:44:43Z</time></trkpt><trkpt lat="45.164632733874484" lon="10.552380109688068"><ele>28.0</ele><time>2026-04-03T13:44:44Z</time></trkpt><trkpt lat="45.164877433593155" lon="10.552507389322066"><ele>28.5</ele><time>2026-04-03T13:44:45Z</time></trkpt><trkpt lat="45.1651238281342" lon="10.552636003886048"><ele>29.0</ele><time>2026-04-03T13:44:46Z</time></trkpt><trkpt lat="45.16536377129624" lon="10.552762768631352"><ele>28.5</ele><time>2026-04-03T13:44:47Z</time></trkpt><trkpt lat="45.16560275503652" lon="10.552888193296708"><ele>28.0</ele><time>2026-04-03T13:44:48Z</time></trkpt><trkpt lat="45.16583886320312" lon="10.553011034970448"><ele>28.0</ele><time>2026-04-03T13:44:49Z</time></trkpt><trkpt lat="45.16607039880458" lon="10.553129509052365"><ele>28.0</ele><time>2026-04-03T13:44:50Z</time></trkpt><trkpt lat="45.16629762685307" lon="10.55324442750388"><ele>28.0</ele><time>2026-04-03T13:44:51Z</time></trkpt><trkpt lat="45.16652375595244" lon="10.553357809998408"><ele>28.0</ele><time>2026-04-03T13:44:52Z</time></trkpt><trkpt lat="45.166745832806136" lon="10.553470066985907"><ele>28.0</ele><time>2026-04-03T13:44:53Z</time></trkpt><trkpt lat="45.16696306681153" lon="10.553581586650823"><ele>28.0</ele><time>2026-04-03T13:44:54Z</time></trkpt><trkpt lat="45.167178382349405" lon="10.553693549559485"><ele>28.666666666666668</ele><time>2026-04-03T13:44:55Z</time></trkpt><trkpt lat="45.16739266783921" lon="10.553803956703154"><ele>29.333333333333336</ele><time>2026-04-03T13:44:56Z</time></trkpt><trkpt lat="45.167600009769124" lon="10.553912888648528"><ele>30.0</ele><time>2026-04-03T13:44:57Z</time></trkpt><trkpt lat="45.167791825362684" lon="10.554015406649484"><ele>30.0</ele><time>2026-04-03T13:44:58Z</time></trkpt><trkpt lat="45.16797310143562" lon="10.55411288542713"><ele>30.0</ele><time>2026-04-03T13:44:59Z</time></trkpt><trkpt lat="45.168147489071394" lon="10.554202397921426"><ele>30.0</ele><time>2026-04-03T13:45:00Z</time></trkpt><trkpt lat="45.16832471452071" lon="10.554291665401443"><ele>30.0</ele><time>2026-04-03T13:45:01Z</time></trkpt><trkpt lat="45.168500461750995" lon="10.554378395323832"><ele>30.0</ele><time>2026-04-03T13:45:02Z</time></trkpt><trkpt lat="45.16867323380012" lon="10.554463310894805"><ele>30.0</ele><time>2026-04-03T13:45:03Z</time></trkpt><trkpt lat="45.16885937790822" lon="10.554550478617394"><ele>30.0</ele><time>2026-04-03T13:45:04Z</time></trkpt><trkpt lat="45.169052327200795" lon="10.554635163927067"><ele>30.0</ele><time>2026-04-03T13:45:05Z</time></trkpt><trkpt lat="45.169250557927036" lon="10.554722958589219"><ele>30.0</ele><time>2026-04-03T13:45:06Z</time></trkpt><trkpt lat="45.16944778067579" lon="10.554812311727817"><ele>30.0</ele><time>2026-04-03T13:45:07Z</time></trkpt><trkpt lat="45.16964550762854" lon="10.554901975585427"><ele>30.0</ele><time>2026-04-03T13:45:08Z</time></trkpt><trkpt lat="45.16984284737753" lon="10.554990738772073"><ele>30.0</ele><time>2026-04-03T13:45:09Z</time></trkpt><trkpt lat="45.17004412923939" lon="10.555081805024836"><ele>30.333333333333336</ele><time>2026-04-03T13:45:10Z</time></trkpt><trkpt lat="45.17024273014092" lon="10.555170338926697"><ele>30.666666666666668</ele><time>2026-04-03T13:45:11Z</time></trkpt><trkpt lat="45.17043469707926" lon="10.555254925906645"><ele>31.0</ele><time>2026-04-03T13:45:12Z</time></trkpt><trkpt lat="45.17061009921391" lon="10.55533362506898"><ele>31.0</ele><time>2026-04-03T13:45:13Z</time></trkpt><trkpt lat="45.17077287387218" lon="10.555409006604547"><ele>31.0</ele><time>2026-04-03T13:45:14Z</time></trkpt><trkpt lat="45.17091959461935" lon="10.555473580382737"><ele>31.0</ele><time>2026-04-03T13:45:15Z</time></trkpt><trkpt lat="45.171052660254674" lon="10.55552969497348"><ele>31.0</ele><time>2026-04-03T13:45:16Z</time></trkpt><trkpt lat="45.17116245704757" lon="10.555583097467679"><ele>31.0</ele><time>2026-04-03T13:45:17Z</time></trkpt><trkpt lat="45.17126086947113" lon="10.555619031599669"><ele>31.0</ele><time>2026-04-03T13:45:18Z</time></trkpt><trkpt lat="45.17135611836854" lon="10.555648995546434"><ele>31.0</ele><time>2026-04-03T13:45:19Z</time></trkpt><trkpt lat="45.17147159039532" lon="10.555587287176825"><ele>31.0</ele><time>2026-04-03T13:45:20Z</time></trkpt><trkpt lat="45.17157715115857" lon="10.555520815063758"><ele>31.0</ele><time>2026-04-03T13:45:21Z</time></trkpt><trkpt lat="45.17166204272759" lon="10.555444545335604"><ele>31.0</ele><time>2026-04-03T13:45:22Z</time></trkpt><trkpt lat="45.171727358408724" lon="10.555342812489595"><ele>31.0</ele><time>2026-04-03T13:45:23Z</time></trkpt><trkpt lat="45.17177992941686" lon="10.555196059822107"><ele>31.0</ele><time>2026-04-03T13:45:24Z</time></trkpt><trkpt lat="45.17181458894635" lon="10.555011150625692"><ele>31.0</ele><time>2026-04-03T13:45:25Z</time></trkpt><trkpt lat="45.17182127336923" lon="10.554793462530997"><ele>31.0</ele><time>2026-04-03T13:45:26Z</time></trkpt><trkpt lat="45.17180812205486" lon="10.554560036605725"><ele>31.0</ele><time>2026-04-03T13:45:27Z</time></trkpt><trkpt lat="45.17181489609467" lon="10.554304556016827"><ele>31.0</ele><time>2026-04-03T13:45:28Z</time></trkpt><trkpt lat="45.17181214796938" lon="10.554044272908756"><ele>31.666666666666668</ele><time>2026-04-03T13:45:29Z</time></trkpt><trkpt lat="45.171812240217996" lon="10.553794852951457"><ele>32.333333333333336</ele><time>2026-04-03T13:45:30Z</time></trkpt><trkpt lat="45.17181716090224" lon="10.553547243153211"><ele>33.0</ele><time>2026-04-03T13:45:31Z</time></trkpt><trkpt lat="45.171819924958214" lon="10.553303969950068"><ele>33.0</ele><time>2026-04-03T13:45:32Z</time></trkpt><trkpt lat="45.17188801164218" lon="10.553061532155292"><ele>33.0</ele><time>2026-04-03T13:45:33Z</time></trkpt><trkpt lat="45.171949441257624" lon="10.55278691408401"><ele>33.0</ele><time>2026-04-03T13:45:34Z</time></trkpt><trkpt lat="45.17205105781321" lon="10.552530314827724"><ele>32.333333333333336</ele><time>2026-04-03T13:45:35Z</time></trkpt><trkpt lat="45.17216836518182" lon="10.552277840628863"><ele>31.666666666666668</ele><time>2026-04-03T13:45:36Z</time></trkpt><trkpt lat="45.17228748967482" lon="10.552043262034115"><ele>31.0</ele><time>2026-04-03T13:45:37Z</time></trkpt><trkpt lat="45.17240760580038" lon="10.5518163385122"><ele>31.0</ele><time>2026-04-03T13:45:38Z</time></trkpt><trkpt lat="45.172531664536336" lon="10.551602121687823"><ele>31.0</ele><time>2026-04-03T13:45:39Z</time></trkpt><trkpt lat="45.17267095395333" lon="10.551387748871965"><ele>31.0</ele><time>2026-04-03T13:45:40Z</time></trkpt><trkpt lat="45.17281627120516" lon="10.551183960355841"><ele>30.666666666666668</ele><time>2026-04-03T13:45:41Z</time></trkpt><trkpt lat="45.172968571016405" lon="10.55099177878117"><ele>30.333333333333336</ele><time>2026-04-03T13:45:42Z</time></trkpt><trkpt lat="45.173119025337954" lon="10.550807536024257"><ele>30.0</ele><time>2026-04-03T13:45:43Z</time></trkpt><trkpt lat="45.17326268351161" lon="10.550634987257443"><ele>30.0</ele><time>2026-04-03T13:45:44Z</time></trkpt><trkpt lat="45.17339964245793" lon="10.55047385527982"><ele>30.0</ele><time>2026-04-03T13:45:45Z</time></trkpt><trkpt lat="45.17354729692498" lon="10.550316104025871"><ele>30.0</ele><time>2026-04-03T13:45:46Z</time></trkpt><trkpt lat="45.173715379228184" lon="10.550174653685197"><ele>30.333333333333336</ele><time>2026-04-03T13:45:47Z</time></trkpt><trkpt lat="45.17390415745789" lon="10.550049801656785"><ele>30.666666666666668</ele><time>2026-04-03T13:45:48Z</time></trkpt><trkpt lat="45.174104620931224" lon="10.549936705766479"><ele>31.0</ele><time>2026-04-03T13:45:49Z</time></trkpt><trkpt lat="45.174319670416125" lon="10.549817945854938"><ele>31.0</ele><time>2026-04-03T13:45:50Z</time></trkpt><trkpt lat="45.17452759226116" lon="10.549694592599028"><ele>31.0</ele><time>2026-04-03T13:45:51Z</time></trkpt><trkpt lat="45.174723637891006" lon="10.549566573875827"><ele>31.0</ele><time>2026-04-03T13:45:52Z</time></trkpt><trkpt lat="45.17490362657676" lon="10.549441963095385"><ele>31.0</ele><time>2026-04-03T13:45:53Z</time></trkpt><trkpt lat="45.17506929079536" lon="10.549321342124491"><ele>31.0</ele><time>2026-04-03T13:45:54Z</time></trkpt><trkpt lat="45.17523931304863" lon="10.549185077274908"><ele>31.0</ele><time>2026-04-03T13:45:55Z</time></trkpt><trkpt lat="45.175419625847034" lon="10.549041823077625"><ele>31.0</ele><time>2026-04-03T13:45:56Z</time></trkpt><trkpt lat="45.17559657466847" lon="10.548876959667961"><ele>31.0</ele><time>2026-04-03T13:45:57Z</time></trkpt><trkpt lat="45.17575459998845" lon="10.548728750813646"><ele>31.0</ele><time>2026-04-03T13:45:58Z</time></trkpt><trkpt lat="45.17589875659175" lon="10.548596524823317"><ele>30.5</ele><time>2026-04-03T13:45:59Z</time></trkpt><trkpt lat="45.176026154002656" lon="10.548481567466276"><ele>30.0</ele><time>2026-04-03T13:46:00Z</time></trkpt><trkpt lat="45.17613892765775" lon="10.548380587215759"><ele>29.5</ele><time>2026-04-03T13:46:01Z</time></trkpt><trkpt lat="45.17623449202228" lon="10.548294486178163"><ele>29.0</ele><time>2026-04-03T13:46:02Z</time></trkpt><trkpt lat="45.17633077280813" lon="10.548231205303116"><ele>29.0</ele><time>2026-04-03T13:46:03Z</time></trkpt><trkpt lat="45.176442086875106" lon="10.54820089023835"><ele>29.0</ele><time>2026-04-03T13:46:04Z</time></trkpt><trkpt lat="45.17656815497055" lon="10.548215545413939"><ele>29.0</ele><time>2026-04-03T13:46:05Z</time></trkpt><trkpt lat="45.17670018317332" lon="10.548279955487649"><ele>29.0</ele><time>2026-04-03T13:46:06Z</time></trkpt><trkpt lat="45.17681936966664" lon="10.548350945043351"><ele>30.0</ele><time>2026-04-03T13:46:07Z</time></trkpt><trkpt lat="45.17694632626389" lon="10.54837551059006"><ele>31.0</ele><time>2026-04-03T13:46:08Z</time></trkpt><trkpt lat="45.17711078770152" lon="10.548337191222634"><ele>32.0</ele><time>2026-04-03T13:46:09Z</time></trkpt><trkpt lat="45.177296536005606" lon="10.548252402079063"><ele>31.666666666666664</ele><time>2026-04-03T13:46:10Z</time></trkpt><trkpt lat="45.17749462127473" lon="10.548133008845792"><ele>31.333333333333336</ele><time>2026-04-03T13:46:11Z</time></trkpt><trkpt lat="45.17766674979513" lon="10.547998169985908"><ele>31.0</ele><time>2026-04-03T13:46:12Z</time></trkpt><trkpt lat="45.17782691171632" lon="10.547857502045945"><ele>31.0</ele><time>2026-04-03T13:46:13Z</time></trkpt><trkpt lat="45.17798489987629" lon="10.54770982733379"><ele>31.0</ele><time>2026-04-03T13:46:14Z</time></trkpt><trkpt lat="45.178132898822334" lon="10.547571038810766"><ele>31.0</ele><time>2026-04-03T13:46:15Z</time></trkpt><trkpt lat="45.178263997869934" lon="10.547448655832294"><ele>31.0</ele><time>2026-04-03T13:46:16Z</time></trkpt><trkpt lat="45.17837983534167" lon="10.547320630304782"><ele>31.0</ele><time>2026-04-03T13:46:17Z</time></trkpt><trkpt lat="45.1784802116387" lon="10.547163691730166"><ele>31.0</ele><time>2026-04-03T13:46:18Z</time></trkpt><trkpt lat="45.17856810005862" lon="10.5470005296578"><ele>31.0</ele><time>2026-04-03T13:46:19Z</time></trkpt><trkpt lat="45.178647170023005" lon="10.546854674352247"><ele>30.6</ele><time>2026-04-03T13:46:20Z</time></trkpt><trkpt lat="45.17871920752853" lon="10.546732934236916"><ele>30.200000000000003</ele><time>2026-04-03T13:46:21Z</time></trkpt><trkpt lat="45.17878415457358" lon="10.546632962661182"><ele>29.799999999999997</ele><time>2026-04-03T13:46:22Z</time></trkpt><trkpt lat="45.17884161773155" lon="10.546558006457385"><ele>29.4</ele><time>2026-04-03T13:46:23Z</time></trkpt><trkpt lat="45.178921094223725" lon="10.546452737640623"><ele>29.0</ele><time>2026-04-03T13:46:25Z</time></trkpt><trkpt lat="45.178974760272006" lon="10.546382090920835"><ele>29.5</ele><time>2026-04-03T13:46:28Z</time></trkpt><trkpt lat="45.17912693451445" lon="10.546507552590748"><ele>30.0</ele><time>2026-04-03T13:46:35Z</time></trkpt><trkpt lat="45.179194729704115" lon="10.546605984415834"><ele>30.5</ele><time>2026-04-03T13:46:36Z</time></trkpt><trkpt lat="45.179255818885586" lon="10.54673044369705"><ele>31.0</ele><time>2026-04-03T13:46:37Z</time></trkpt><trkpt lat="45.17933102876247" lon="10.546881211545406"><ele>31.0</ele><time>2026-04-03T13:46:38Z</time></trkpt><trkpt lat="45.17942956388797" lon="10.54704413944814"><ele>31.0</ele><time>2026-04-03T13:46:39Z</time></trkpt><trkpt lat="45.17953196286068" lon="10.547204442866413"><ele>31.0</ele><time>2026-04-03T13:46:40Z</time></trkpt><trkpt lat="45.17963939897018" lon="10.547382706560974"><ele>30.666666666666668</ele><time>2026-04-03T13:46:41Z</time></trkpt><trkpt lat="45.179742414460705" lon="10.54755695537305"><ele>30.333333333333336</ele><time>2026-04-03T13:46:42Z</time></trkpt><trkpt lat="45.17984772261716" lon="10.547740107487027"><ele>30.0</ele><time>2026-04-03T13:46:43Z</time></trkpt><trkpt lat="45.179961019417924" lon="10.547933994086051"><ele>30.0</ele><time>2026-04-03T13:46:44Z</time></trkpt><trkpt lat="45.180078847239756" lon="10.548131411245539"><ele>30.0</ele><time>2026-04-03T13:46:45.001Z</time></trkpt><trkpt lat="45.180197764747795" lon="10.548326529233611"><ele>30.0</ele><time>2026-04-03T13:46:46.001Z</time></trkpt><trkpt lat="45.1803163331913" lon="10.548523073166862"><ele>30.333333333333336</ele><time>2026-04-03T13:46:47.001Z</time></trkpt><trkpt lat="45.180434787759026" lon="10.548721396437374"><ele>30.666666666666668</ele><time>2026-04-03T13:46:48.001Z</time></trkpt><trkpt lat="45.18055571610563" lon="10.548924670412061"><ele>31.0</ele><time>2026-04-03T13:46:49.001Z</time></trkpt><trkpt lat="45.18067620544773" lon="10.549126845923936"><ele>31.0</ele><time>2026-04-03T13:46:50.001Z</time></trkpt><trkpt lat="45.180799449742885" lon="10.549328463218473"><ele>31.0</ele><time>2026-04-03T13:46:51.001Z</time></trkpt><trkpt lat="45.18092414377617" lon="10.549533239035195"><ele>31.0</ele><time>2026-04-03T13:46:52.001Z</time></trkpt><trkpt lat="45.18104814170196" lon="10.549738436098574"><ele>30.666666666666668</ele><time>2026-04-03T13:46:53.001Z</time></trkpt><trkpt lat="45.1811732546954" lon="10.549946025460434"><ele>30.333333333333336</ele><time>2026-04-03T13:46:54.001Z</time></trkpt><trkpt lat="45.18129328444292" lon="10.550151475432461"><ele>30.0</ele><time>2026-04-03T13:46:55.001Z</time></trkpt><trkpt lat="45.18141677350445" lon="10.550357041544"><ele>30.666666666666664</ele><time>2026-04-03T13:46:56.001Z</time></trkpt><trkpt lat="45.18154254351576" lon="10.550567675659245"><ele>31.333333333333332</ele><time>2026-04-03T13:46:57.001Z</time></trkpt><trkpt lat="45.18166784293232" lon="10.550781263227947"><ele>32.0</ele><time>2026-04-03T13:46:58.001Z</time></trkpt><trkpt lat="45.18179111027229" lon="10.550995310485773"><ele>32.0</ele><time>2026-04-03T13:46:59.001Z</time></trkpt><trkpt lat="45.18191697894457" lon="10.551212520002368"><ele>32.0</ele><time>2026-04-03T13:47:00.001Z</time></trkpt><trkpt lat="45.182045349016846" lon="10.551429014997488"><ele>32.0</ele><time>2026-04-03T13:47:01.001Z</time></trkpt><trkpt lat="45.18217596302383" lon="10.551646889456599"><ele>32.0</ele><time>2026-04-03T13:47:02Z</time></trkpt><trkpt lat="45.18230152487663" lon="10.55185584460997"><ele>32.0</ele><time>2026-04-03T13:47:03Z</time></trkpt><trkpt lat="45.18242654653101" lon="10.552069463495796"><ele>32.0</ele><time>2026-04-03T13:47:04Z</time></trkpt><trkpt lat="45.182550808602244" lon="10.552278745051174"><ele>32.0</ele><time>2026-04-03T13:47:05Z</time></trkpt><trkpt lat="45.18267115584619" lon="10.552483684685715"><ele>32.0</ele><time>2026-04-03T13:47:06Z</time></trkpt><trkpt lat="45.18279399312035" lon="10.552688680055626"><ele>32.0</ele><time>2026-04-03T13:47:07Z</time></trkpt><trkpt lat="45.18291434479682" lon="10.55288729758607"><ele>32.0</ele><time>2026-04-03T13:47:08Z</time></trkpt><trkpt lat="45.18303185197158" lon="10.553081664452945"><ele>32.0</ele><time>2026-04-03T13:47:09Z</time></trkpt><trkpt lat="45.18315044809181" lon="10.553277630389672"><ele>32.0</ele><time>2026-04-03T13:47:10Z</time></trkpt><trkpt lat="45.18327533892623" lon="10.553488579554678"><ele>32.0</ele><time>2026-04-03T13:47:11Z</time></trkpt><trkpt lat="45.183393079139705" lon="10.553692069792318"><ele>32.0</ele><time>2026-04-03T13:47:12Z</time></trkpt><trkpt lat="45.18351468584875" lon="10.553892033975144"><ele>32.0</ele><time>2026-04-03T13:47:13Z</time></trkpt><trkpt lat="45.183636048950405" lon="10.554090202660493"><ele>32.0</ele><time>2026-04-03T13:47:14Z</time></trkpt><trkpt lat="45.183755409577074" lon="10.554290747220696"><ele>32.0</ele><time>2026-04-03T13:47:15Z</time></trkpt><trkpt lat="45.1838765490993" lon="10.554492028715684"><ele>32.0</ele><time>2026-04-03T13:47:16Z</time></trkpt><trkpt lat="45.18399924922951" lon="10.554697271679615"><ele>32.33333333333333</ele><time>2026-04-03T13:47:17Z</time></trkpt><trkpt lat="45.184122465909105" lon="10.5549028662647"><ele>32.666666666666664</ele><time>2026-04-03T13:47:18Z</time></trkpt><trkpt lat="45.18424206906297" lon="10.555102674242507"><ele>33.0</ele><time>2026-04-03T13:47:19Z</time></trkpt><trkpt lat="45.18435957859499" lon="10.555299715019236"><ele>33.0</ele><time>2026-04-03T13:47:20Z</time></trkpt><trkpt lat="45.18447798791372" lon="10.55549981692862"><ele>33.0</ele><time>2026-04-03T13:47:21Z</time></trkpt><trkpt lat="45.184597466910034" lon="10.55569684073084"><ele>33.0</ele><time>2026-04-03T13:47:22Z</time></trkpt><trkpt lat="45.18472233584901" lon="10.555900713953207"><ele>33.0</ele><time>2026-04-03T13:47:23Z</time></trkpt><trkpt lat="45.18484285105784" lon="10.556101365046585"><ele>33.0</ele><time>2026-04-03T13:47:24Z</time></trkpt><trkpt lat="45.18495385656916" lon="10.556290784776536"><ele>33.0</ele><time>2026-04-03T13:47:25Z</time></trkpt><trkpt lat="45.185068509262095" lon="10.556483182414302"><ele>33.0</ele><time>2026-04-03T13:47:26Z</time></trkpt><trkpt lat="45.185178403116524" lon="10.556675429673955"><ele>33.0</ele><time>2026-04-03T13:47:27Z</time></trkpt><trkpt lat="45.18528630329894" lon="10.556855292970678"><ele>33.0</ele><time>2026-04-03T13:47:28Z</time></trkpt><trkpt lat="45.18538919663928" lon="10.557027999139622"><ele>33.0</ele><time>2026-04-03T13:47:29Z</time></trkpt><trkpt lat="45.18549459299851" lon="10.557203305806809"><ele>33.0</ele><time>2026-04-03T13:47:30Z</time></trkpt><trkpt lat="45.185602236443465" lon="10.55738206568692"><ele>33.0</ele><time>2026-04-03T13:47:31Z</time></trkpt><trkpt lat="45.185704448864534" lon="10.557550240092468"><ele>33.0</ele><time>2026-04-03T13:47:32Z</time></trkpt><trkpt lat="45.1858056889188" lon="10.557718418215822"><ele>33.0</ele><time>2026-04-03T13:47:33Z</time></trkpt><trkpt lat="45.18590783889698" lon="10.557889374874538"><ele>33.0</ele><time>2026-04-03T13:47:34Z</time></trkpt><trkpt lat="45.1860116743141" lon="10.558065664895974"><ele>32.666666666666664</ele><time>2026-04-03T13:47:35Z</time></trkpt><trkpt lat="45.186113710699445" lon="10.558242096354975"><ele>32.33333333333333</ele><time>2026-04-03T13:47:36Z</time></trkpt><trkpt lat="45.1862177076663" lon="10.558423693771633"><ele>32.0</ele><time>2026-04-03T13:47:37Z</time></trkpt><trkpt lat="45.186318595187004" lon="10.558592734909364"><ele>32.0</ele><time>2026-04-03T13:47:38Z</time></trkpt><trkpt lat="45.186419355421805" lon="10.558759915717536"><ele>32.0</ele><time>2026-04-03T13:47:39Z</time></trkpt><trkpt lat="45.18651831922537" lon="10.558930054060122"><ele>32.0</ele><time>2026-04-03T13:47:40Z</time></trkpt><trkpt lat="45.1866188866639" lon="10.559104479769653"><ele>32.33333333333333</ele><time>2026-04-03T13:47:41Z</time></trkpt><trkpt lat="45.18672394426875" lon="10.55927754328736"><ele>32.666666666666664</ele><time>2026-04-03T13:47:42Z</time></trkpt><trkpt lat="45.18682527353206" lon="10.559454964189934"><ele>33.0</ele><time>2026-04-03T13:47:43Z</time></trkpt><trkpt lat="45.18692885859079" lon="10.559633334892746"><ele>33.0</ele><time>2026-04-03T13:47:44Z</time></trkpt><trkpt lat="45.18703019959864" lon="10.559800279344664"><ele>33.0</ele><time>2026-04-03T13:47:45Z</time></trkpt><trkpt lat="45.18712668375759" lon="10.559955838273183"><ele>33.0</ele><time>2026-04-03T13:47:46Z</time></trkpt><trkpt lat="45.18721720328032" lon="10.560102955397975"><ele>33.0</ele><time>2026-04-03T13:47:47Z</time></trkpt><trkpt lat="45.18729885738035" lon="10.560241085436541"><ele>33.0</ele><time>2026-04-03T13:47:48Z</time></trkpt><trkpt lat="45.18737802040559" lon="10.560372566239602"><ele>33.0</ele><time>2026-04-03T13:47:49Z</time></trkpt><trkpt lat="45.18744749111558" lon="10.560488445243113"><ele>33.0</ele><time>2026-04-03T13:47:50Z</time></trkpt><trkpt lat="45.18750760904334" lon="10.56059012962809"><ele>33.0</ele><time>2026-04-03T13:47:51Z</time></trkpt><trkpt lat="45.18755606982485" lon="10.560673902419031"><ele>33.0</ele><time>2026-04-03T13:47:52Z</time></trkpt><trkpt lat="45.187598816607505" lon="10.560744271878104"><ele>33.0</ele><time>2026-04-03T13:47:53Z</time></trkpt><trkpt lat="45.18763931760065" lon="10.560836189923588"><ele>33.0</ele><time>2026-04-03T13:47:55Z</time></trkpt><trkpt lat="45.18755942830731" lon="10.560935477947432"><ele>33.0</ele><time>2026-04-03T13:47:58Z</time></trkpt><trkpt lat="45.18750257943337" lon="10.561019665917712"><ele>33.0</ele><time>2026-04-03T13:48:00Z</time></trkpt><trkpt lat="45.1874637724709" lon="10.561098189416414"><ele>33.0</ele><time>2026-04-03T13:48:02Z</time></trkpt><trkpt lat="45.18740045610084" lon="10.561140642003362"><ele>33.0</ele><time>2026-04-03T13:48:04Z</time></trkpt></trkseg></trk></gpx>